[[{"header":{"parameterUnit":"m.s-1","parameterCategory":1,"la1":30.6,"la2":28.766,"lo1":-90.7593,"lo2":-88.6598,"dy":0.0162,"dx":0.0183,"nx":116,"ny":114,"refTime":"2023-05-14T12:00:00:Z","depth":0,"parameterNumber":2,"parameterNumberName":"U-component_of_WINDS"},"data":[0.0,0.0,0.0,0.0,0.0,0.0,0.0,0.0,0.0,0.0,0.0,0.0,0.0,0.0,0.0,0.0,0.0,0.0,0.0,0.0,0.0,0.0,0.0,0.0,0.0,0.0,0.0,0.0,0.0,0.0,0.0,0.0,0.0,0.0,0.0,0.0,0.0,0.0,0.0,0.0,0.0,0.0,0.0,0.0,0.0,0.0,0.0,0.0,0.0,0.0,0.0,0.0,0.0,0.0,0.0,0.0,0.0,0.0,0.0,0.0,0.0,0.0,0.0,0.0,0.0,0.0,0.0,0.0,0.0,0.0,0.0,0.0,0.0,0.0,0.0,0.0,0.0,0.0,0.0,0.0,0.0,0.0,0.0,0.0,0.0,0.0,0.0,0.0,0.0,0.0,0.0,0.0,0.0,0.0,0.0,0.0,0.0,0.0,0.0,0.0,0.0,0.0,0.0,0.0,0.0,0.0,0.0,0.0,0.0,0.0,0.0,0.0,0.0,0.0,0.0,0.0,0.0,0.0,0.0,0.0,0.0,0.0,0.0,0.0,0.0,0.0,0.0,0.0,0.0,0.0,0.0,0.0,0.0,0.0,0.0,0.0,0.0,0.0,0.0,0.0,0.0,0.0,0.0,0.0,0.0,0.0,0.0,0.0,0.0,0.0,0.0,0.0,0.0,0.0,0.0,0.0,0.0,0.0,0.0,0.0,0.0,0.0,0.0,0.0,0.0,0.0,0.0,0.0,0.0,0.0,0.0,0.0,0.0,0.0,0.0,0.0,0.0,0.0,0.0,0.0,0.0,0.0,0.0,0.0,0.0,0.0,0.0,0.0,0.0,0.0,0.0,0.0,0.0,0.0,0.0,0.0,0.0,0.0,0.0,0.0,0.0,0.0,0.0,0.0,0.0,0.0,0.0,0.0,0.0,0.0,0.0,0.0,0.0,0.0,0.0,0.0,0.0,0.0,0.0,0.0,0.0,0.0,0.0,0.0,0.0,0.0,0.0,0.0,0.0,0.0,0.0,0.0,0.0,0.0,0.0,0.0,0.0,0.0,0.0,0.0,0.0,0.0,0.0,0.0,0.0,0.0,0.0,0.0,0.0,0.0,0.0,0.0,0.0,0.0,0.0,0.0,0.0,0.0,0.0,0.0,0.0,0.0,0.0,0.0,0.0,0.0,0.0,0.0,0.0,0.0,0.0,0.0,0.0,0.0,0.0,0.0,0.0,0.0,0.0,0.0,0.0,0.0,0.0,0.0,0.0,0.0,0.0,0.0,0.0,0.0,0.0,0.0,0.0,0.0,0.0,0.0,0.0,0.0,0.0,0.0,0.0,0.0,0.0,0.0,0.0,0.0,0.0,0.0,0.0,0.0,0.0,0.0,0.0,0.0,0.0,0.0,0.0,0.0,0.0,0.0,0.0,0.0,0.0,0.0,0.0,0.0,0.0,0.0,0.0,0.0,0.0,0.0,0.0,0.0,0.0,0.0,0.0,0.0,0.0,0.0,0.0,0.0,0.0,0.0,0.0,0.0,0.0,0.0,0.0,0.0,0.0,0.0,0.0,0.0,0.0,0.0,0.0,0.0,0.0,0.0,0.0,0.0,0.0,0.0,0.0,0.0,0.0,0.0,0.0,0.0,0.0,0.0,0.0,0.0,0.0,0.0,0.0,0.0,0.0,0.0,0.0,0.0,0.0,0.0,0.0,0.0,0.0,0.0,0.0,0.0,0.0,0.0,0.0,0.0,0.0,0.0,0.0,0.0,0.0,0.0,0.0,0.0,0.0,0.0,0.0,0.0,0.0,0.0,0.0,0.0,0.0,0.0,0.0,0.0,0.0,0.0,0.0,0.0,0.0,0.0,0.0,0.0,0.0,0.0,0.0,0.0,0.0,0.0,0.0,0.0,0.0,0.0,0.0,0.0,0.0,0.0,0.0,0.0,0.0,0.0,0.0,0.0,0.0,0.0,0.0,0.0,0.0,0.0,0.0,0.0,0.0,0.0,0.0,0.0,0.0,0.0,0.0,0.0,0.0,0.0,0.0,0.0,0.0,0.0,0.0,0.0,0.0,0.0,0.0,0.0,0.0,0.0,0.0,0.0,0.0,0.0,0.0,0.0,0.0,0.0,0.0,0.0,0.0,0.0,0.0,0.0,0.0,0.0,0.0,0.0,0.0,0.0,0.0,0.0,0.0,0.0,0.0,0.0,0.0,0.0,0.0,0.0,0.0,0.0,0.0,0.0,0.0,0.0,0.0,0.0,0.0,0.0,0.0,0.0,0.0,0.0,0.0,0.0,0.0,0.0,0.0,0.0,0.0,0.0,0.0,0.0,0.0,0.0,0.0,0.0,0.0,0.0,0.0,0.0,0.0,0.0,0.0,0.0,0.0,0.0,0.0,0.0,0.0,0.0,0.0,0.0,0.0,0.0,0.0,0.0,0.0,0.0,0.0,0.0,0.0,0.0,0.0,0.0,0.0,0.0,0.0,0.0,0.0,0.0,0.0,0.0,0.0,0.0,0.0,0.0,0.0,0.0,0.0,0.0,0.0,0.0,0.0,0.0,0.0,0.0,0.0,0.0,0.0,0.0,0.0,0.0,0.0,0.0,0.0,0.0,0.0,0.0,0.0,0.0,0.0,0.0,0.0,0.0,0.0,0.0,0.0,0.0,0.0,0.0,0.0,0.0,0.0,0.0,0.0,0.0,0.0,0.0,0.0,0.0,0.0,0.0,0.0,0.0,0.0,0.0,0.0,0.0,0.0,0.0,0.0,0.0,0.0,0.0,0.0,0.0,0.0,0.0,0.0,0.0,0.0,0.0,0.0,0.0,0.0,0.0,0.0,0.0,0.0,0.0,0.0,0.0,0.0,0.0,0.0,0.0,0.0,0.0,0.0,0.0,0.0,0.0,0.0,0.0,0.0,0.0,0.0,0.0,0.0,0.0,0.0,0.0,0.0,0.0,0.0,0.0,0.0,0.0,0.0,0.0,0.0,0.0,0.0,0.0,0.0,0.0,0.0,0.0,0.0,0.0,0.0,0.0,0.0,0.0,0.0,0.0,0.0,0.0,0.0,0.0,0.0,0.0,0.0,0.0,0.0,0.0,0.0,0.0,0.0,0.0,0.0,0.0,0.0,0.0,0.0,0.0,0.0,0.0,0.0,0.0,0.0,0.0,0.0,0.0,0.0,0.0,0.0,0.0,0.0,0.0,0.0,0.0,0.0,0.0,0.0,0.0,0.0,0.0,0.0,0.0,0.0,0.0,0.0,0.0,0.0,0.0,0.0,0.0,0.0,0.0,0.0,0.0,0.0,0.0,0.0,0.0,0.0,0.0,0.0,0.0,0.0,0.0,0.0,0.0,0.0,0.0,0.0,0.0,0.0,0.0,0.0,0.0,0.0,0.0,0.0,0.0,0.0,0.0,0.0,0.0,0.0,0.0,0.0,0.0,0.0,0.0,0.0,0.0,0.0,0.0,0.0,0.0,0.0,0.0,0.0,0.0,0.0,0.0,0.0,0.0,0.0,0.0,0.0,0.0,0.0,0.0,0.0,0.0,0.0,0.0,0.0,0.0,0.0,0.0,0.0,0.0,0.0,0.0,0.0,0.0,0.0,0.0,0.0,0.0,0.0,0.0,0.0,0.0,0.0,0.0,0.0,0.0,0.0,0.0,0.0,0.0,0.0,0.0,0.0,0.0,0.0,0.0,0.0,0.0,0.0,0.0,0.0,0.0,0.0,0.0,0.0,0.0,0.0,0.0,0.0,0.0,0.0,0.0,0.0,0.0,0.0,0.0,0.0,0.0,0.0,0.0,0.0,0.0,0.0,0.0,0.0,0.0,0.0,0.0,0.0,0.0,0.0,0.0,0.0,0.0,0.0,0.0,0.0,0.0,0.0,0.0,0.0,0.0,0.0,0.0,0.0,0.0,0.0,0.0,0.0,0.0,0.0,0.0,0.0,0.0,0.0,0.0,0.0,0.0,0.0,0.0,0.0,0.0,0.0,0.0,0.0,0.0,0.0,0.0,0.0,0.0,0.0,0.0,0.0,0.0,0.0,0.0,0.0,0.0,0.0,0.0,0.0,0.0,0.0,0.0,0.0,0.0,0.0,0.0,0.0,0.0,0.0,0.0,0.0,0.0,0.0,0.0,0.0,0.0,0.0,0.0,0.0,0.0,0.0,0.0,0.0,0.0,0.0,0.0,0.0,0.0,0.0,0.0,0.0,0.0,0.0,0.0,0.0,0.0,0.0,0.0,0.0,0.0,0.0,0.0,0.0,0.0,0.0,0.0,0.0,0.0,0.0,0.0,0.0,0.0,0.0,0.0,0.0,0.0,0.0,0.0,0.0,0.0,0.0,0.0,0.0,0.0,0.0,0.0,0.0,0.0,0.0,0.0,0.0,0.0,0.0,0.0,0.0,0.0,0.0,0.0,0.0,0.0,0.0,0.0,0.0,0.0,0.0,0.0,0.0,0.0,0.0,0.0,0.0,0.0,0.0,0.0,0.0,0.0,0.0,0.0,0.0,0.0,0.0,0.0,0.0,0.0,0.0,0.0,0.0,0.0,0.0,0.0,0.0,0.0,0.0,0.0,0.0,0.0,0.0,0.0,0.0,0.0,0.0,0.0,0.0,0.0,0.0,0.0,0.0,0.0,0.0,0.0,0.0,0.0,0.0,0.0,0.0,0.0,0.0,0.0,0.0,0.0,0.0,0.0,0.0,0.0,0.0,0.0,0.0,0.0,0.0,0.0,0.0,0.0,0.0,0.0,0.0,0.0,0.0,0.0,0.0,0.0,0.0,0.0,0.0,0.0,0.0,0.0,0.0,0.0,0.0,0.0,0.0,0.0,0.0,0.0,0.0,0.0,0.0,0.0,0.0,0.0,0.0,0.0,0.0,0.0,0.0,0.0,0.0,0.0,0.0,0.0,0.0,0.0,0.0,0.0,0.0,0.0,0.0,0.0,0.0,0.0,0.0,0.0,0.0,0.0,0.0,0.0,0.0,0.0,0.0,0.0,0.0,0.0,0.0,0.0,0.0,0.0,0.0,0.0,0.0,0.0,0.0,0.0,0.0,0.0,0.0,0.0,0.0,0.0,0.0,0.0,0.0,0.0,0.0,0.0,0.0,0.0,0.0,0.0,0.0,0.0,0.0,0.0,0.0,0.0,0.0,0.0,0.0,0.0,0.0,0.0,0.0,0.0,0.0,0.0,0.0,0.0,0.0,0.0,0.0,0.0,0.0,0.0,0.0,0.0,0.0,0.0,0.0,0.0,0.0,0.0,0.0,0.0,0.0,0.0,0.0,0.0,0.0,0.0,0.0,0.0,0.0,0.0,0.0,0.0,0.0,0.0,0.0,0.0,0.0,0.0,0.0,0.0,0.0,0.0,0.0,0.0,0.0,0.0,0.0,0.0,0.0,0.0,0.0,0.0,0.0,0.0,0.0,0.0,0.0,0.0,0.0,0.0,0.0,0.0,0.0,0.0,0.0,0.0,0.0,0.0,0.0,0.0,0.0,0.0,0.0,0.0,0.0,0.0,0.0,0.0,0.0,0.0,0.0,0.0,0.0,0.0,0.0,0.0,0.0,0.0,0.0,0.0,0.0,0.0,0.0,0.0,0.0,0.0,0.0,0.0,0.0,0.0,0.0,0.0,0.0,0.0,0.0,0.0,0.0,0.0,0.0,0.0,0.0,0.0,0.0,0.0,0.0,0.0,0.0,0.0,0.0,0.0,0.0,0.0,0.0,0.0,0.0,0.0,0.0,0.0,0.0,0.0,0.0,0.0,0.0,0.0,0.0,0.0,0.0,0.0,0.0,0.0,0.0,0.0,0.0,0.0,0.0,0.0,0.0,0.0,0.0,0.0,0.0,0.0,0.0,0.0,0.0,0.0,0.0,0.0,0.0,0.0,0.0,0.0,0.0,0.0,0.0,0.0,0.0,0.0,0.0,0.0,0.0,0.0,0.0,0.0,0.0,0.0,0.0,0.0,0.0,0.0,0.0,0.0,0.0,0.0,0.0,0.0,0.0,0.0,0.0,0.0,0.0,0.0,0.0,0.0,0.0,0.0,0.0,0.0,0.0,0.0,0.0,0.0,0.0,0.0,0.0,0.0,0.9851,0.0,0.0,0.0,0.0,0.0,0.0,0.0,0.0,0.0,0.0,0.0,0.0,0.0,0.0,0.0,0.0,0.0,0.0,0.0,0.0,0.0,0.0,0.0,0.0,0.0,0.0,0.0,0.0,0.0,0.0,0.0,0.0,0.0,0.0,0.0,0.0,0.0,0.0,0.0,-0.322,-0.2229,-0.0035,-0.0435,-0.0288,0.0416,0.0,0.0,0.0,0.0,0.0,0.0,0.0,0.0,0.0,0.0,0.0,0.0,0.0,0.0,0.0,0.0,0.0,0.0,0.0,0.0,0.0,0.0,0.0,0.0,0.0,0.0,0.0,0.0,0.0,0.0,0.0,0.0,0.0,0.0,0.0,0.0,0.0,0.0,0.0,0.0,0.0,0.0,0.0,0.0,0.0,0.0,0.0,0.0,0.0,0.0,0.0,0.0,0.0,0.0,0.0,0.0,0.0,0.0,0.0,0.0,0.0,0.0,0.0,0.0,0.0,0.0,0.0,0.0,0.0,0.0,0.0,0.9511,0.0,0.0,0.0,0.0,0.0,0.0,0.0,0.0,0.0,0.0,0.0,0.0,0.0,0.0,0.0,0.0,0.0,0.0,0.0,0.0,0.0,0.0,0.0,-0.1139,-0.1083,-0.3395,-0.2225,-0.2016,0.0,0.0,0.0,0.0,0.0,0.0,0.0,-0.3078,-0.296,-0.2083,-0.1031,0.0573,0.2658,0.3575,0.3375,0.2396,0.4371,0.0,0.0,0.0,0.0,0.0,0.0,0.0,0.0,0.0,0.0,0.0,0.0,0.0,0.0,0.0,0.0,0.0,0.0,0.0,0.0,0.0,0.0,0.0,0.0,0.0,0.0,0.0,0.0,0.0,0.0,0.0,0.0,0.0,0.0,0.0,0.0,0.0,0.0,0.0,0.0,0.0,0.0,0.0,0.0,0.0,0.0,0.0,0.0,0.0,0.0,0.0,0.0,0.0,0.0,0.0,0.0,0.0,0.0,0.0,0.0,0.0,0.0,0.0,1.1438,1.0903,1.0209,1.0148,0.9683,0.8928,0.9465,0.9467,0.9281,1.1457,0.0,0.0,0.0,0.0,0.0,0.0,0.0,0.0,0.0,0.0,0.0,0.0,0.0,0.0,0.0,0.0,0.0,0.0,0.0,0.0,0.0,-0.3007,-0.2707,-0.4624,-0.3114,-0.27,-0.4183,0.0,0.0,0.0,0.0,0.0,-0.318,-0.3502,-0.2987,-0.1664,0.1769,0.4178,0.5572,0.6343,0.7108,0.7746,0.5876,0.729,1.0978,0.0,0.0,0.0,0.0,0.0,0.0,0.0,0.0,0.0,0.0,0.0,0.0,0.0,0.0,0.0,0.0,0.0,0.0,0.0,0.0,0.0,0.0,0.0,0.0,0.0,0.0,0.0,0.0,0.0,0.0,0.0,0.0,0.0,0.0,0.0,0.0,0.0,0.0,0.0,0.0,0.0,0.7637,0.8241,0.0,0.0,0.0,0.0,0.0,0.0,0.0,0.0,0.0,0.0,0.0,0.0,0.0,1.2469,1.3278,1.3031,1.2559,1.1861,1.1716,1.0755,0.9107,0.9111,0.873,0.8108,0.9229,0.0,0.958,0.9123,0.0,0.0,0.0,0.0,0.0,0.0,0.0,0.0,0.0,0.0,0.0,0.0,0.0,0.0,0.0,0.0,0.0,0.0,0.0,0.0,0.0,-0.1106,-0.0784,-0.2032,-0.0941,-0.1029,-0.3093,-0.2854,0.0,0.0,0.0,-0.3204,-0.3011,-0.2633,-0.1038,0.1787,0.3913,0.6113,0.8233,0.8842,0.939,0.9821,0.8773,0.9071,1.0396,1.0262,0.0,0.0,0.0,0.0,0.0,0.0,0.0,0.0,0.0,0.0,0.0,0.0,0.0,0.0,0.0,0.0,0.0,0.0,0.0,0.0,0.0,0.0,0.0,0.0,0.0,0.0,0.0,0.0,0.0,0.0,0.0,0.0,0.0,0.0,0.0,0.0,0.0,0.0,0.0,0.6893,0.7739,0.7729,0.8283,0.8664,0.0,0.0,0.0,0.0,0.0,0.0,0.0,0.0,0.0,1.3855,1.3348,1.3581,1.4631,1.425,1.3763,1.3117,1.2627,1.1791,1.0672,0.9818,0.9239,0.8991,0.9379,0.9679,1.003,1.0498,1.0956,1.1299,0.0,0.0,0.0,0.0,1.0474,1.04,0.0,0.0,0.0,0.0,0.0,0.0,0.0,0.0,0.0,0.0,0.0,0.0,-0.0391,0.0652,0.0884,-0.0129,0.0752,0.0443,-0.1731,-0.15,-0.1753,0.0,-0.2924,-0.2623,-0.184,-0.0564,0.159,0.4684,0.5853,0.7762,1.031,1.0644,1.0877,1.1102,1.1219,1.0809,1.0037,1.1025,1.1205,1.0842,0.0,0.0,0.0,0.0,0.0,0.0,0.0,0.0,0.0,0.0,0.0,0.0,0.0,0.0,0.0,0.0,0.0,0.0,0.0,0.0,0.0,0.0,0.0,0.0,0.0,0.0,0.0,0.0,0.0,0.0,0.0,0.0,0.0,0.0,0.0,0.0,0.0,0.7089,0.7861,0.7433,0.8615,0.9244,0.0,0.0,0.0,0.0,0.0,0.0,1.469,1.4401,1.4709,1.5738,1.507,1.518,1.6177,1.5868,1.5373,1.4666,1.4061,1.3248,1.2258,1.1032,1.0304,1.0049,1.0053,1.023,1.0691,1.1547,1.1805,1.1631,1.1753,1.1591,1.1322,1.1089,1.1058,1.1204,0.0,0.0,0.0,0.0,0.0,0.0,0.0,0.0,0.0,0.0,0.0,-0.1025,-0.0549,0.0589,0.0651,-0.0914,0.0379,0.0757,-0.0583,-0.0473,-0.0325,-0.0186,-0.1211,-0.0973,0.078,0.305,0.4629,0.5453,0.7678,0.9673,1.1417,1.1328,1.166,1.2416,1.2286,1.2085,1.181,1.0995,1.0922,1.1327,1.0659,0.0,0.0,0.0,0.0,0.0,0.0,0.0,0.0,0.0,0.0,0.0,0.0,0.0,0.0,0.0,0.0,0.0,0.0,0.0,0.0,0.0,0.0,0.0,0.0,0.0,0.0,0.0,0.0,0.0,0.0,0.0,0.0,0.0,0.0,0.0,0.0,0.0,0.0,0.7904,0.9758,0.0,0.0,0.0,0.0,1.2825,1.4242,1.5505,1.6443,1.7169,1.7652,1.7852,1.7791,1.7856,1.8075,1.8041,1.7461,1.63,1.6112,1.4903,1.2754,1.2475,1.1791,1.0762,1.1399,1.1679,1.1626,1.0513,1.0858,1.2086,1.1264,1.1731,1.2657,1.1717,1.1679,1.2119,0.0,0.0,0.0,0.0,0.0,0.0,0.0,0.0,0.1787,0.1315,0.2055,0.2522,0.2312,0.3133,0.3308,0.2409,0.281,0.2474,0.0942,0.1053,0.0703,-0.0328,-0.0422,0.0514,0.2689,0.4256,0.5738,0.703,0.8997,1.0478,1.1525,1.2146,1.26,1.2878,1.3315,1.3199,1.2661,1.1669,1.1152,1.0944,1.0278,0.9637,0.0,0.0,0.0,0.0,0.0,0.0,0.0,0.0,0.0,0.0,0.0,0.0,0.0,0.0,0.0,0.0,0.0,0.0,0.0,0.0,0.0,0.0,0.0,0.0,0.0,0.0,0.0,0.0,0.0,0.0,0.0,0.0,0.0,0.0,0.0,0.0,0.0,0.9506,1.0988,0.0,1.1061,1.2121,1.3357,1.4628,1.6337,1.7771,1.8776,1.9316,1.9476,1.9159,1.8832,1.8497,1.8204,1.8204,1.7997,1.755,1.7146,1.6223,1.4928,1.373,1.2744,1.187,1.1817,1.1783,1.1792,1.1794,1.1844,1.1927,1.177,1.1789,1.1817,1.1897,1.2034,1.2256,0.0,0.0,0.0,0.0,0.0,0.0,0.0,0.0,0.3075,0.3151,0.3997,0.4561,0.4507,0.5037,0.5276,0.5047,0.49,0.423,0.2945,0.2394,0.1578,0.0287,0.1061,0.2307,0.3886,0.5731,0.7377,0.8756,1.0257,1.1396,1.2284,1.2939,1.3128,1.2952,1.3626,1.3571,1.2937,1.2565,1.1976,1.1233,1.0692,1.0048,0.9321,0.0,0.0,0.0,0.0,0.0,0.0,0.0,0.0,0.0,0.0,0.0,0.0,0.0,0.0,0.0,0.0,0.0,0.0,0.0,0.0,0.0,0.0,0.0,0.0,0.0,0.0,0.0,0.0,0.0,0.0,0.0,0.0,0.0,0.0,0.0,0.9784,0.9866,1.1388,1.2172,1.1477,1.2627,1.4051,1.5604,1.7282,1.8643,1.9621,2.0381,2.0527,1.9952,1.9699,1.9359,1.8995,1.8746,1.8461,1.802,1.7733,1.7012,1.5771,1.5016,1.4098,1.3037,1.2991,1.2789,1.2582,1.2945,1.2819,1.2404,1.2407,1.2149,1.1836,1.2253,1.2451,1.249,0.0,0.0,0.0,0.0,0.0,0.0,0.0,0.3016,0.3373,0.3867,0.4259,0.4834,0.5794,0.6092,0.6363,0.6602,0.6228,0.5819,0.5367,0.353,0.2319,0.1947,0.3419,0.4332,0.4484,0.7611,0.9611,1.0524,1.1462,1.256,1.3825,1.372,1.3318,1.2747,1.3376,1.3318,1.2763,1.3755,1.3416,1.2278,1.2014,1.1299,1.0266,0.0,0.0,0.0,0.0,0.0,0.0,0.0,0.0,0.0,0.0,0.0,0.0,0.0,0.0,0.0,0.0,0.0,0.0,0.0,0.0,0.0,0.0,0.0,0.0,0.0,0.0,0.0,0.0,0.0,0.0,0.0,0.0,0.0,0.7418,0.8491,0.9163,0.8937,1.1112,1.2197,1.1104,1.2785,1.4496,1.5677,1.6857,1.7944,1.8791,2.033,2.0856,2.025,2.0527,2.0661,2.054,1.994,1.9019,1.7779,1.8177,1.725,1.5217,1.6284,1.5807,1.4214,1.4893,1.4788,1.4111,1.3701,1.3525,1.3486,1.3047,1.2881,1.2881,1.2881,1.2891,1.29,0.0,0.0,0.0,0.0,0.0,0.0,0.0,0.3476,0.3859,0.4262,0.5349,0.6028,0.597,0.6784,0.7087,0.6632,0.5987,0.5659,0.5672,0.4538,0.4037,0.4488,0.5575,0.6342,0.6785,0.8384,0.9611,1.0524,1.1777,1.3021,1.4236,1.5015,1.5276,1.5157,1.5346,1.5105,1.4655,1.5274,1.5146,1.4424,1.3143,1.211,1.1249,0.0,0.0,0.0,0.0,0.0,0.0,0.0,0.0,0.0,0.0,0.0,0.0,0.0,0.0,0.0,0.0,0.0,0.0,0.0,0.0,0.0,0.0,0.0,0.0,0.0,0.0,0.0,0.0,0.0,0.0,0.0,0.0,0.756,0.823,0.9262,1.0219,1.0833,1.2257,1.3182,1.3092,1.3376,1.3945,1.4769,1.5716,1.6854,1.8137,1.9158,2.0031,2.064,2.0736,2.0834,2.1033,2.0773,2.0268,1.953,1.9605,1.8838,1.7277,1.6959,1.6235,1.522,1.464,1.4553,1.474,1.4149,1.4165,1.4501,1.3353,1.2881,1.2881,1.2881,1.3076,1.3379,0.0,0.0,0.0,0.0,0.0,0.0,0.0,0.3419,0.3754,0.4081,0.5446,0.6325,0.6181,0.7238,0.7783,0.7201,0.669,0.6245,0.5977,0.4801,0.4383,0.4992,0.5972,0.6938,0.7985,0.9365,1.0492,1.1392,1.2646,1.3892,1.5138,1.5817,1.603,1.5875,1.6214,1.6007,1.5463,1.6098,1.6201,1.5879,1.4893,1.4111,1.3418,1.233,1.1849,1.1603,1.0377,0.9289,0.8234,0.7266,0.0,0.0,0.0,0.0,0.0,0.0,0.0,0.0,0.0,0.0,0.0,0.0,0.0,0.0,0.0,0.0,0.0,0.0,0.0,0.0,0.0,0.0,0.0,0.0,0.7803,0.8132,0.8244,0.8931,0.9693,1.035,1.1303,1.204,1.2423,1.2646,1.3164,1.4104,1.46,1.5498,1.6702,1.7967,1.8916,1.9467,2.0312,2.0639,2.0252,2.0716,2.0262,1.897,1.9598,1.9114,1.7632,1.769,1.7049,1.5915,1.5646,1.5522,1.5464,1.4721,1.4871,0.0,0.0,0.0,0.0,0.0,1.3941,1.4553,0.0,0.0,0.0,0.0,0.0,0.0,0.0,0.307,0.3342,0.3593,0.49,0.5908,0.6307,0.7437,0.7947,0.7465,0.7248,0.6764,0.5954,0.4808,0.4376,0.4854,0.5806,0.7028,0.854,1.0413,1.1732,1.2597,1.3661,1.487,1.6143,1.6143,1.5985,1.5716,1.6469,1.6395,1.579,1.6517,1.684,1.6953,1.7002,1.6631,1.5937,1.4495,1.4099,1.4045,1.2593,1.0806,0.9256,0.98,0.0,0.0,0.0,0.0,0.0,0.0,0.0,0.0,0.0,0.0,0.0,0.0,0.0,0.0,0.0,0.0,0.0,0.0,0.0,0.0,0.0,0.0,0.0,0.0,0.8548,0.838,0.7813,0.7977,0.8203,0.8537,0.9272,0.9919,1.0248,1.1169,1.2192,1.3281,1.3448,1.3954,1.495,0.0,0.0,0.0,0.0,2.0053,1.9104,2.0118,1.959,1.7448,1.8753,1.8632,1.7259,1.8333,1.801,1.6686,1.7207,1.7119,1.6524,1.5638,1.5815,1.6492,1.4522,1.3779,1.383,1.4428,1.5196,1.5972,0.0,0.0,0.0,0.0,0.0,0.0,0.0,0.2807,0.3075,0.3759,0.4194,0.4879,0.5885,0.6483,0.614,0.4565,0.433,0.4225,0.4054,0.5838,0.7141,0.7627,0.8468,0.9099,0.942,1.0926,1.1972,1.2597,1.3661,1.5018,1.6602,1.6602,1.6763,1.705,1.7191,1.7181,1.7069,1.7551,1.7959,1.8301,1.8652,1.7695,1.6096,1.5722,1.54,1.509,1.4453,1.3543,1.2376,1.0834,0.9666,0.8586,0.7107,0.5591,0.0,0.0,0.0,0.0,0.0,0.0,0.0,0.0,0.0,0.0,0.0,0.0,0.0,0.0,0.0,0.0,0.0,0.0,0.0,0.7621,0.799,0.8185,0.7613,0.7559,0.7707,0.8218,0.8865,0.9391,0.9617,1.0273,1.0876,1.1354,1.2137,1.3025,1.3954,1.495,1.6053,1.7338,1.8378,1.9152,1.9652,1.9705,1.9329,1.8415,0.0,0.0,1.8562,1.7945,1.8158,1.8983,1.8104,1.7986,1.8374,1.8119,1.7734,1.7148,1.5908,1.5437,1.548,1.5973,1.6284,1.6521,0.0,0.0,0.0,0.0,0.0,0.0,0.0,0.2386,0.2559,0.3056,0.2811,0.2831,0.3483,0.3263,0.2649,0.1565,0.2633,0.3662,0.4311,0.678,0.8561,0.9234,0.984,1.0187,1.0334,1.2082,1.3076,1.3343,1.478,1.6023,1.7061,1.7061,1.7402,1.8008,1.8008,1.8135,1.8369,1.8789,1.9082,1.9316,1.9746,1.915,1.792,1.7275,1.6904,1.6631,1.5986,1.493,1.3727,1.2655,1.1527,1.0293,0.9045,0.7524,0.5788,0.0,0.0,0.0,0.0,0.0,0.0,0.0,0.0,0.0,0.0,0.0,0.0,0.0,0.0,0.8933,0.0,0.0,0.9721,0.9028,0.878,0.838,0.7646,0.7421,0.7437,0.7632,0.8275,0.8747,0.8823,0.9555,1.0008,1.0127,1.101,1.1755,1.2191,1.3585,1.4807,1.5904,1.7229,1.8065,1.8355,1.9135,1.9013,1.7949,1.84,1.8503,1.833,1.7859,1.8134,1.9026,1.8495,1.8654,1.9321,1.9598,1.9216,1.851,1.8024,1.7363,1.6746,1.6942,1.7361,1.7878,0.0,0.0,0.0,0.0,0.0,0.0,0.0,0.1888,0.2078,0.2179,0.1607,0.1066,0.0758,0.0465,0.0143,-0.0376,0.1535,0.3348,0.4826,0.7419,0.9291,1.0174,1.0488,1.0782,1.1069,1.308,1.4082,1.4082,1.5872,1.7002,1.75,1.75,1.7959,1.8769,1.8848,1.9131,1.957,1.999,2.0225,2.0322,2.0684,2.0615,2.0166,1.8965,1.835,1.8027,1.7256,1.5794,1.4264,1.4273,1.2822,1.1019,1.071,0.9232,0.7244,0.5016,0.3526,0.0,0.0,0.0,0.0,0.0,0.0,0.0,0.0,0.0,0.6375,0.7716,0.9034,0.991,0.9861,1.0084,1.0196,1.0239,0.9392,0.8463,0.776,0.756,0.7407,0.7248,0.7737,0.805,0.799,0.893,0.9518,0.9286,1.0472,1.1091,1.0859,1.2592,1.389,1.4386,1.6114,1.6904,1.6691,1.822,1.8355,1.7166,1.7833,1.8051,1.777,1.7845,1.815,1.866,1.8912,1.949,2.0228,2.0521,2.0369,2.0041,1.9984,1.9202,1.8072,1.8008,1.8454,1.9233,0.0,0.0,0.0,0.0,0.0,0.0,0.0,0.0,0.1755,0.1843,0.1637,0.084,-0.0829,0.0914,0.1734,0.0619,0.0673,0.165,0.3884,0.7241,0.9562,1.0474,1.0788,1.1082,1.1369,1.3138,1.4082,1.4082,1.5872,1.7148,1.7939,1.7939,1.8389,1.9238,1.9609,2.001,2.0449,2.0898,2.1309,2.167,2.1719,2.1709,2.1562,2.0635,1.957,1.8506,1.8037,1.6415,1.4569,1.4451,1.2831,1.0895,1.0857,1.0084,0.8764,0.6565,0.3966,0.1647,0.0885,0.1052,0.2354,0.5905,0.5698,0.5748,0.0,0.0,0.9035,1.0162,1.0981,1.0854,0.897,0.8962,0.9003,0.8295,0.8164,0.8065,0.7987,0.7976,0.7832,0.7567,0.7269,0.709,0.7073,0.873,0.9418,0.8457,1.0964,1.2145,1.1053,1.256,1.3535,1.3608,1.518,1.5965,1.5903,1.6751,1.7107,1.6908,1.7038,1.7472,1.8131,1.7552,1.8121,1.9673,1.9974,2.0819,2.1884,2.0948,2.0828,2.1141,2.0672,2.0397,2.0172,1.9725,1.9581,1.9768,0.0,0.0,0.0,0.0,0.0,0.0,0.0,0.0,0.0,0.1443,0.0479,-0.0489,-0.104,-0.1648,-0.2438,-0.3605,-0.1201,0.1056,0.2513,0.6773,0.9559,1.0274,1.0748,1.1395,1.2233,1.3684,1.4833,1.553,1.6845,1.7783,1.8379,1.8379,1.8965,2.0039,2.0215,2.0684,2.1357,2.1797,2.208,2.2275,2.2519,2.2324,2.1816,2.1191,1.9918,1.8351,1.6572,1.5126,0.0,1.2624,1.1552,1.076,1.1056,1.0478,0.8993,0.5486,0.418,0.3621,0.2294,0.2359,0.367,0.0,0.7445,0.7085,1.0126,0.9743,0.9111,1.0346,1.0984,1.0924,0.9513,0.9399,0.9505,0.0,0.8488,0.8007,0.7919,0.779,0.7611,0.736,0.7092,0.6929,0.6929,0.7522,0.7765,0.7207,0.9393,1.0503,1.0046,1.1751,1.3025,1.3462,1.4106,1.4681,1.5108,1.5903,1.6263,1.6263,1.6691,1.7107,1.7423,1.7304,1.7901,1.9069,2.0198,2.094,2.1416,2.1388,2.1535,2.1813,2.1284,2.1079,2.1007,2.0466,2.0273,2.0334,0.0,0.0,0.0,0.0,0.0,0.0,0.0,0.0,0.0,0.0,-0.0728,-0.185,-0.1487,-0.319,-0.4695,-0.557,-0.2084,0.0729,0.2018,0.6201,0.9028,0.9973,1.0561,1.1338,1.2365,1.365,1.488,1.6051,1.7092,1.7937,1.8562,1.876,1.9375,2.04,2.0644,2.1172,2.1914,2.2334,2.251,2.2539,2.2842,2.2461,2.166,2.106,1.9621,1.7823,1.5665,1.4217,1.3042,1.1389,1.0524,1.0246,1.0601,0.9826,0.8261,0.5537,0.4852,0.4634,0.3119,0.3395,0.0,0.7952,0.8375,0.8367,0.98,0.963,0.9347,1.0009,1.0466,1.0458,0.9415,0.9389,0.9395,0.9445,0.8598,0.7987,0.7831,0.756,0.7352,0.7173,0.686,0.6723,0.6803,0.7204,0.7327,0.7013,0.9038,1.0149,0.9769,1.1366,1.2519,1.3098,1.339,1.3673,1.4099,1.4966,1.5392,1.5321,1.5824,1.6254,1.6542,1.6959,1.7638,1.8499,1.9704,2.0484,2.0921,2.1388,2.1862,2.2149,2.1777,2.162,2.1572,2.1187,2.0959,2.0899,0.0,0.0,0.0,0.0,0.0,0.0,0.0,0.0,0.0,0.0,0.0,0.0,0.0,-0.2346,-0.226,-0.2431,-0.1223,0.0561,0.301,0.5733,0.7995,0.9666,1.0261,1.0772,1.1061,1.2589,1.3808,1.4772,1.6025,1.7344,1.8582,1.9072,1.9502,1.9971,2.083,2.1465,2.1914,2.2334,2.251,2.251,2.2519,2.2021,2.1121,2.0121,1.863,1.6932,1.6287,1.4582,1.2488,1.1413,1.0283,0.9231,0.9175,0.7744,0.6416,0.8163,0.6294,0.3542,0.2843,0.3936,0.5434,0.6149,0.7762,0.9379,1.0047,1.0647,1.074,0.9746,0.9749,0.9637,0.8125,0.7936,0.7991,0.7841,0.7943,0.7987,0.7831,0.7389,0.7154,0.7071,0.6602,0.6344,0.0,0.8532,0.9366,0.8237,1.0992,1.2184,1.101,1.1846,1.2231,1.2077,1.3025,1.331,1.2938,1.3875,1.4227,1.4076,1.4083,1.4585,1.5604,1.6673,1.756,1.82,1.8499,1.9486,2.0921,2.0921,2.1451,2.2197,2.2173,2.2173,2.2161,2.2149,2.1825,2.1452,0.0,0.0,0.0,0.0,0.0,0.0,0.0,0.0,0.0,0.0,0.0,0.0,0.0,0.0,0.0,0.0,-0.3423,-0.202,-0.1283,0.273,0.5309,0.5905,0.8561,1.0299,1.0791,1.2578,1.3802,1.4488,1.538,1.6325,1.7307,1.7519,1.8271,1.9512,1.9805,2.0342,2.1016,2.1162,2.1221,2.1172,2.0605,2.0217,1.9832,1.826,1.6969,1.5922,0.0,1.3267,1.1766,0.9851,0.9259,0.9373,0.9609,0.8816,0.7603,0.6863,0.5027,0.3197,0.358,0.4418,0.5826,0.8421,0.9316,0.9782,1.1023,1.0853,1.0267,0.9823,0.9123,0.8501,0.7876,0.7531,0.7517,0.7657,0.7778,0.7695,0.7539,0.7513,0.7376,0.6912,0.6726,0.0,0.0,0.0,0.0,0.7964,1.0285,1.1581,1.1188,1.2215,1.2906,1.2828,1.3131,1.3208,1.3131,1.3801,1.3982,1.3755,1.4377,1.4988,1.5534,1.6567,1.7129,1.7364,1.8037,1.8623,1.9135,1.9617,2.0409,2.1325,2.1325,2.1714,2.2197,2.2197,2.2015,2.1761,0.0,0.0,0.0,0.0,0.0,0.0,0.0,0.0,0.0,0.0,0.0,0.0,0.0,0.0,0.0,0.0,0.0,-0.3253,-0.2893,0.0553,0.2604,0.2616,0.5147,0.6747,0.7165,0.8706,0.9813,1.0457,1.2121,1.3339,1.4267,1.5595,1.6846,1.792,1.8232,1.8769,1.9434,1.9358,1.9351,1.9396,1.8762,1.8373,1.8005,1.6524,1.5501,0.0,1.3314,1.2269,1.1286,0.9511,0.915,0.9432,0.95,0.8851,0.778,0.6294,0.5064,0.434,0.491,0.5474,0.6477,0.8943,0.9245,0.922,1.0232,0.9845,0.9154,0.9009,0.7919,0.7135,0.7321,0.6756,0.647,0.7182,0.6906,0.6857,0.7562,0.7177,0.6837,0.6976,0.6932,0.6817,0.0,0.0,0.0,0.8327,1.0589,1.1846,1.1741,1.2641,1.3134,1.3127,1.3127,1.3127,1.2889,1.3272,1.3267,1.2878,1.383,1.439,1.4639,1.5988,1.6563,1.6431,1.7502,1.7852,1.7822,1.8583,1.9475,2.0386,2.0386,2.0921,2.1651,2.1651,2.1726,2.1925,0.0,0.0,0.0,0.0,0.0,0.0,0.0,0.0,0.0,0.0,0.0,0.0,0.0,0.0,0.0,0.0,0.0,0.0,-0.2119,-0.0837,-0.0096,-0.0047,0.0418,0.0716,0.0826,0.1587,0.241,0.3271,0.651,0.8619,0.9704,1.3261,1.5003,1.5225,1.6065,1.6683,1.7137,1.6906,1.6945,1.7079,1.6901,1.6394,1.5695,1.4951,1.4115,1.3236,1.2409,1.1625,1.0933,1.0268,0.9805,0.9348,0.8737,0.7963,0.7154,0.6603,0.6554,0.663,0.6695,0.7058,0.7461,0.775,0.7933,0.8038,0.8028,0.7902,0.7706,0.7315,0.6207,0.5553,0.0,0.0,0.4983,0.6411,0.5755,0.5726,0.7654,0.6411,0.5781,0.0,0.0,0.0,0.0,0.0,0.0,0.9336,0.0,1.3021,1.2882,1.3086,1.3174,1.2935,1.3174,1.2935,1.2376,1.2523,1.2299,1.157,1.2612,1.3058,1.3134,1.52,1.5984,1.565,1.6928,1.7259,1.6975,1.7784,1.867,1.9399,1.9399,1.9868,2.0526,2.059,2.1123,2.1862,0.0,0.0,0.0,0.0,0.0,0.0,0.0,0.0,0.0,0.0,0.0,0.0,0.0,0.0,0.0,0.0,0.0,0.0,-0.5232,-0.3224,-0.2444,-0.341,-0.0911,0.0282,-0.019,0.1338,0.2095,0.1889,0.3324,0.5061,0.7154,0.8184,0.9862,1.2019,1.2549,1.3305,1.4042,1.4151,1.4427,1.478,1.4061,1.4038,1.4354,1.3081,1.2538,1.2375,1.1874,1.1224,1.039,0.9884,0.955,0.9192,0.8292,0.814,0.805,0.715,0.6924,0.7101,0.7278,0.7533,0.7743,0.7933,0.8011,0.8011,0.7896,0.7668,0.7119,0.5852,0.4984,0.4269,0.0,0.0,0.0,0.5901,0.6192,0.0,0.7437,0.7254,0.0,0.7383,0.0,0.7339,0.7109,0.8147,0.0,0.0,1.1475,1.2575,1.334,1.3701,1.3868,1.3778,1.3861,1.3778,1.3612,1.3313,1.2926,1.2606,1.3308,1.3733,1.3811,1.6218,1.6837,1.6057,1.6741,1.6963,1.6954,1.7139,1.7755,1.8536,1.8536,1.9069,1.9803,2.0322,2.0602,2.088,0.0,0.0,0.0,0.0,0.0,0.0,0.0,0.0,0.0,0.0,0.0,0.0,0.0,0.0,0.0,0.0,0.0,0.0,0.0,-0.5167,-0.4687,-0.5328,-0.3619,-0.2809,-0.3121,-0.1951,-0.1702,-0.2415,0.0049,0.1631,0.2468,0.5446,0.7431,0.8513,0.982,1.077,1.1312,1.1539,1.1927,0.0,0.0,1.2035,1.2562,1.1644,1.1322,1.1331,1.1289,1.0828,1.0321,0.0,0.0,0.9544,0.9253,0.9387,0.9473,0.8304,0.8066,0.8132,0.7675,0.778,0.7933,0.8018,0.7987,0.7684,0.6893,0.6362,0.5804,0.4707,0.3302,0.2292,0.2719,0.2664,0.3366,0.0,0.0,0.0,0.7186,0.6956,0.6919,0.0,0.7682,0.0,0.7451,0.8058,0.8958,0.0,1.1386,1.2675,1.3758,1.3995,1.4142,1.4275,1.4155,1.3997,1.3913,1.358,1.3271,1.2978,1.33,1.3691,1.4216,1.6065,1.6715,1.6271,0.0,1.7339,1.7254,1.7165,1.7325,1.7638,1.782,1.8252,1.8946,1.9541,2.002,2.0495,0.0,0.0,0.0,0.0,0.0,0.0,0.0,0.0,0.0,0.0,-0.6709,-0.7964,0.0,0.0,0.0,0.0,0.0,0.0,0.0,0.0,-0.6594,-0.6517,-0.6719,-0.6812,-0.6675,-0.6235,-0.6353,-0.7176,-0.3072,-0.1486,-0.203,0.3566,0.5843,0.534,0.7602,0.8717,0.8995,0.9234,0.959,1.0093,1.0013,1.0296,1.0685,0.0,1.0394,1.0286,1.054,1.0424,0.0,0.0,1.0732,1.0315,1.0718,1.1106,1.1169,0.9793,0.9486,0.9366,0.8265,0.7942,0.8038,0.8038,0.7909,0.7318,0.5542,0.4925,0.4467,0.3638,0.1708,0.0539,0.2048,0.1865,0.2379,0.5043,0.0,0.4817,0.7027,0.6285,0.6152,0.7831,0.7916,0.7845,0.7841,0.7841,0.8261,0.9337,1.1156,1.2715,1.3867,1.4077,1.4242,1.4456,1.4295,1.4182,1.4044,1.3704,1.3581,1.3576,1.3467,1.3845,1.4631,1.5895,1.6466,1.6509,1.7587,1.7954,1.7759,1.7659,1.7339,1.7018,1.7358,1.7689,1.8057,1.8755,1.9547,2.0412,0.0,0.0,0.0,0.0,0.0,0.0,0.0,0.0,0.0,0.0,-0.5594,-0.7432,0.0,0.0,0.0,0.0,0.0,0.0,0.0,0.0,0.0,-0.8048,-0.8157,-0.8149,-0.8157,-0.6989,-0.6379,-0.6379,-0.5289,-0.3476,-0.0879,-0.0307,0.1564,0.4433,0.5508,0.6449,0.7247,0.7684,0.8246,0.8897,0.9032,0.935,0.9733,0.9679,0.0,0.0,0.9472,0.0,0.0,0.0,1.1224,1.143,1.1235,1.1735,1.2337,1.1378,1.0459,0.9754,0.966,0.878,0.8038,0.8038,0.7834,0.7172,0.524,0.532,0.0,0.1928,0.1858,0.2048,0.096,0.109,0.1892,0.3696,0.4104,0.486,0.683,0.6969,0.7082,0.0,0.797,0.7922,0.8001,0.7997,0.0,0.0,1.0014,1.0934,1.3081,1.3943,1.4355,1.4168,1.4583,1.5122,1.5611,1.4774,1.5077,1.6522,1.571,1.5666,1.6351,1.7978,1.8135,1.725,1.784,0.0,1.8018,1.8018,1.777,1.7394,1.7468,1.7521,1.775,1.8834,1.943,2.0028,0.0,0.0,0.0,0.0,0.0,0.0,0.0,-0.2618,-0.3464,-0.2888,-0.5086,-0.6792,-0.696,-0.7343,-0.7558,0.0,0.0,0.0,0.0,0.0,0.0,0.0,0.0,0.0,-0.5908,-0.4979,-0.4713,-0.5175,0.0,-0.3053,-0.1737,-0.0303,0.1091,0.2481,0.4245,0.5274,0.5858,0.6522,0.7217,0.7833,0.8045,0.8407,0.8789,0.0,0.0,0.0,0.0,0.0,0.0,0.0,1.1064,1.1433,1.222,1.3048,1.3516,1.2728,1.1696,1.0771,1.0281,0.9084,0.8058,0.814,0.7756,0.6824,0.5048,0.0,0.0,0.1956,0.1449,0.137,0.1645,0.1364,0.0,0.2655,0.3455,0.4249,0.5441,0.5428,0.5395,0.583,0.7177,0.7969,0.7959,0.8045,0.8202,0.8796,0.9384,1.0712,1.3124,1.4307,1.4681,1.4144,1.4648,1.4987,1.5016,1.4949,1.5452,1.6278,1.6306,1.664,1.7423,1.8231,1.854,1.8364,1.8389,1.8437,1.843,1.843,1.8064,1.7513,1.7734,1.7559,1.7333,1.829,1.8665,1.9107,0.0,0.0,0.0,0.0,0.0,0.0,-0.1442,-0.2131,-0.2646,-0.26,-0.4398,-0.5743,-0.5943,-0.693,-0.7807,0.0,0.0,0.0,0.0,0.0,0.0,0.0,0.0,0.0,0.0,0.0,0.0,0.0,-0.2695,0.0,0.0,0.0,0.0,0.0,0.363,0.4743,0.4957,0.581,0.6478,0.0,0.0,0.7626,0.0,0.0,0.0,0.0,0.0,0.0,0.0,0.0,1.0368,1.0716,1.237,1.3149,1.3477,1.3483,1.2471,1.1207,1.0726,0.951,0.8361,0.8292,0.7655,0.6583,0.455,0.3703,0.0,0.1924,0.1089,0.0868,0.2147,0.1623,0.1114,0.0,0.2439,0.3271,0.3853,0.3667,0.3364,0.0,0.5525,0.0,0.7969,0.7952,0.0,0.7868,0.9072,1.0811,1.3142,1.432,1.4572,1.3996,1.4592,1.4721,1.4415,1.5113,1.5656,1.608,1.659,1.7367,1.8247,1.829,1.8612,1.9283,1.8971,1.8788,0.0,1.8715,1.8229,1.7523,1.7862,1.7596,1.7097,1.7841,1.8193,1.8478,0.0,0.0,0.0,0.0,0.0,0.0,-0.1623,-0.1743,-0.1842,-0.1894,-0.2784,-0.3821,-0.4976,-0.6647,-0.793,0.0,0.0,0.0,0.0,0.0,0.0,0.0,0.0,0.0,0.0,0.0,0.0,0.0,0.0,0.0,0.0,0.0,0.0,0.0,0.0,0.0,0.4951,0.582,0.0,0.0,0.0,0.0,0.0,0.0,0.0,0.0,0.0,0.0,0.0,0.0,0.0,0.9025,1.0236,1.0338,1.0594,1.3233,0.0,0.0,1.1409,1.0792,0.9513,0.835,0.7499,0.612,0.3266,0.0,0.3781,0.0435,0.135,0.2411,0.1066,0.1066,0.0859,-0.0425,0.0504,0.1813,0.3003,0.3152,0.2416,0.0552,0.0,0.0,0.7756,0.7952,0.8035,0.8021,0.9142,1.0683,1.2721,1.3027,1.3284,1.3704,1.4128,1.4796,1.5519,1.549,1.6407,1.8279,1.7771,1.81,1.9143,1.9182,1.9254,1.9301,1.9265,1.9045,0.0,1.8715,1.8229,1.7495,1.7541,1.7504,1.7512,1.8344,1.8773,1.9233,0.0,0.0,0.0,0.0,0.0,0.0,-0.1503,-0.1636,-0.1655,-0.1554,-0.2599,-0.39,-0.5364,-0.6563,-0.7539,-0.8201,0.0,0.0,0.0,0.0,0.0,0.0,0.0,0.0,0.0,0.0,-0.283,-0.2049,-0.1698,0.0,0.0,0.0,0.0,0.0,0.0,0.0,0.0,0.0,0.0,0.0,0.0,0.0,0.0,0.0,0.0,0.0,0.0,0.0,0.7523,0.0,0.0,0.0,0.8173,0.735,0.0,0.0,1.13,1.068,1.1591,1.1458,1.1002,1.0626,0.9204,0.756,0.6299,0.0,0.4133,0.217,0.2354,0.2443,0.1358,0.1086,0.0772,-0.0,-0.0,0.0,0.0272,0.08,0.0947,0.0088,0.3791,0.0,0.0,0.0,0.798,0.779,0.8099,0.8997,1.0411,1.1997,1.2872,1.2772,1.3586,1.4089,1.4402,1.49,1.5898,1.7318,1.7621,1.8362,1.9301,1.9314,1.9304,1.9301,1.9301,1.921,0.0,1.9063,1.8733,1.8229,1.8229,1.7926,1.7567,1.835,1.8793,1.9284,0.0,0.0,0.0,0.0,0.0,-0.1601,-0.1542,-0.1683,-0.1744,-0.1595,-0.249,-0.3695,-0.5169,-0.5961,-0.6763,-0.7698,-0.8289,0.0,0.0,0.0,0.0,0.0,0.0,0.0,0.0,0.0,-0.222,-0.1344,-0.0897,-0.0359,0.0,0.0,0.0,0.0,0.0,0.0,0.0,0.0,0.0,0.0,0.0,0.0,0.0,0.0,0.0,0.0,0.0,0.0,0.0,0.0,0.0,0.0,0.0,0.0,0.0,0.0,0.9979,1.0218,1.0677,1.1199,1.1497,1.0872,0.9263,0.7696,0.0,0.0,0.3994,0.2926,0.2634,0.2342,0.1653,0.1279,0.1021,0.0771,0.0168,-0.0351,-0.0694,-0.0539,-0.0147,0.0496,0.0,0.6344,0.0,0.7451,0.7885,0.7617,0.7458,0.7663,0.8376,1.0385,1.1741,1.1932,1.2715,1.3157,1.3337,1.4402,1.5289,1.6026,1.7098,1.7917,1.8567,1.8567,1.8567,1.8567,1.8807,1.8824,0.0,1.9049,1.8898,1.854,1.854,1.8109,1.7567,1.8341,1.8954,1.9472,0.0,0.0,0.0,0.0,0.0,0.0,-0.1775,-0.1921,-0.1988,-0.1997,-0.2192,-0.2758,-0.3876,-0.4601,-0.5629,-0.7189,-0.8758,0.0,0.0,0.0,0.0,0.0,0.0,0.0,0.0,0.0,-0.1344,-0.1208,-0.0851,-0.0447,0.0045,0.1435,0.2111,0.2158,0.0,0.0,0.0,0.0,0.0,0.0,0.0,0.0,0.0,0.0,0.0,0.0,0.0,0.0,0.0,0.0,0.0,0.0,0.0,0.0,0.0,0.0,0.7823,0.7635,0.845,0.973,1.0244,0.8011,0.6665,0.5598,0.0,0.3811,0.3229,0.1654,0.1896,0.2234,0.1706,0.1653,0.1653,0.1599,0.1014,0.0,0.123,-0.0266,-0.0572,0.0,0.0,0.2606,0.3935,0.6303,0.7753,0.7611,0.7458,0.0,0.7146,0.8021,0.9506,1.1677,1.1499,1.1935,1.3058,1.4126,1.4789,1.5039,1.6198,1.6698,1.6698,1.6698,1.6698,1.678,1.7674,1.7792,0.0,1.833,1.8485,1.8128,1.8128,1.7871,1.7639,1.8463,1.9359,2.0194,0.0,0.0,0.0,0.0,0.0,0.0,-0.188,-0.1976,-0.2061,-0.2075,-0.2168,-0.2763,-0.4134,-0.448,-0.5354,-0.719,-0.8325,0.0,0.0,0.0,0.0,0.0,0.0,0.0,0.0,-0.323,-0.1898,-0.0851,-0.1385,-0.1428,-0.0935,0.0137,0.0832,0.1158,0.2759,0.0,0.0,0.0,0.0,0.0,0.0,0.0,0.0,0.0,0.0,0.0,0.0,0.0,0.0,0.0,0.0,0.0,0.0,0.0,0.0,0.4451,0.5752,0.0,0.7253,0.8716,0.9917,0.8901,0.7695,0.6526,0.5877,0.4561,0.3231,0.2391,0.2121,0.1952,0.1541,0.1387,0.1346,0.1274,0.0941,0.0743,0.0,0.0,0.0,0.1917,0.4463,0.63,0.0,0.0,0.7753,0.7611,0.7458,0.7302,0.7149,0.7404,0.8536,1.0707,1.1322,1.21,1.3052,1.3724,1.43,1.4789,1.5462,1.6131,1.6698,1.6698,1.6698,1.6698,1.7025,1.7041,0.0,1.7552,1.7926,1.8074,1.8245,1.8258,1.8173,1.8811,1.9613,2.0477,0.0,0.0,0.0,0.0,0.0,0.0,-0.1985,-0.2146,-0.2297,-0.2376,-0.2501,-0.2917,-0.386,-0.4201,-0.5021,-0.6557,-0.7498,0.0,0.0,0.0,0.0,0.0,0.0,0.0,-0.4678,-0.2994,-0.1961,-0.1655,-0.1431,-0.1705,-0.2402,-0.0882,-0.0284,-0.0383,0.0936,0.1934,0.0,0.0,0.0,0.0,0.0,0.0,0.6002,0.0,0.0,0.0,0.0,0.0,0.0,0.0,0.0,0.0,0.0,0.0,0.0,0.0,0.3921,0.5189,0.5365,0.6818,0.8071,0.7617,0.6572,0.0,0.5484,0.4179,0.2896,0.2524,0.2142,0.1767,0.1463,0.1312,0.1169,0.1092,0.0925,0.0901,0.0,0.0,0.0,0.2317,0.0,0.0,0.0,0.7357,0.7607,0.7519,0.737,0.7241,0.7146,0.7139,0.7925,0.9753,1.0539,1.1488,1.2448,1.3137,1.3724,1.4216,1.4559,1.4996,1.5532,1.5532,1.5464,1.544,1.5797,1.6013,0.0,1.6814,1.7544,1.8089,1.8109,1.8303,1.859,1.9179,1.9817,2.0356,0.0,0.0,0.0,0.0,0.0,0.0,0.0,-0.2349,-0.2606,-0.2851,-0.3058,-0.317,-0.317,-0.3863,-0.4595,-0.5305,-0.6302,0.0,0.0,0.0,0.0,0.0,0.0,0.0,-0.4418,-0.2082,-0.1586,-0.3141,-0.112,-0.1502,-0.409,-0.1701,-0.1206,-0.2284,-0.1746,-0.1071,-0.0264,0.207,0.3923,0.537,0.5932,0.6086,0.0,0.0,0.0,0.0,0.0,0.0,0.0,0.0,0.0,0.0,0.0,0.0,0.0,0.0,0.0,0.0,0.0,0.4281,0.5141,0.4494,0.3869,0.3475,0.3537,0.2934,0.0,0.2254,0.1967,0.1724,0.147,0.1317,0.1165,0.1114,0.1021,0.1306,0.0,0.2312,0.0,0.0,0.5884,0.0,0.5472,0.6567,0.737,0.737,0.7227,0.7139,0.7139,0.7139,0.7577,0.8715,0.9492,1.0361,1.1322,1.2534,1.3215,1.3366,1.362,1.3644,1.3532,1.3532,1.3467,0.0,1.4358,1.4794,0.0,1.6056,1.709,1.8054,1.7709,1.8046,1.8746,1.9551,1.9827,1.9933,0.0,0.0,0.0,0.0,0.0,0.0,0.0,0.0,0.0,0.0,-0.2884,-0.2984,-0.2984,-0.3146,-0.3528,0.0,0.0,0.0,0.0,0.0,0.0,0.0,0.0,0.0,-0.5439,-0.2118,-0.1078,-0.2595,-0.1609,-0.233,-0.46,-0.2625,-0.2401,-0.351,-0.2015,-0.027,0.1695,0.3704,0.4877,0.5356,0.5777,0.5954,0.0,0.0,0.0,0.0,0.5555,0.5352,0.0,0.0,0.0,0.0,0.0,0.0,0.0,0.0,0.1954,0.1787,0.2116,0.0,0.3267,0.2843,0.2797,0.2847,0.0,0.0,0.0,0.0,0.0,0.1684,0.1631,0.1421,0.1262,0.1105,0.131,0.166,0.2355,0.0,0.0,0.4785,0.6474,0.7018,0.5596,0.6622,0.737,0.737,0.7227,0.7139,0.7139,0.7139,0.7228,0.7489,0.9226,1.0621,1.1585,1.2875,1.329,1.2831,1.3411,1.3431,1.3074,1.3234,1.3273,1.3213,1.3512,0.0,1.3684,1.4277,1.5116,1.6063,1.6442,1.717,1.8009,1.8325,1.8768,1.9362,0.0,0.0,0.0,0.0,0.0,0.0,0.0,0.0,0.0,0.0,-0.2904,-0.297,-0.29,-0.29,-0.3155,0.0,0.0,0.0,0.0,0.0,0.0,0.0,0.0,-0.5715,-0.4377,-0.2202,-0.1735,-0.3028,-0.2609,-0.3501,-0.5684,-0.4217,-0.4053,-0.4937,-0.2787,-0.0772,0.1215,0.3101,0.4415,0.5188,0.5501,0.0,0.0,0.0,0.0,0.0,0.5378,0.5022,0.0,0.4304,0.3878,0.3439,0.0,0.0,0.0,0.0,0.2087,0.1836,0.1965,0.2043,0.2043,0.2109,0.2099,0.2188,0.2361,0.0,0.0,0.0,0.0,0.1864,0.1706,0.1758,0.165,0.1278,0.1801,0.0,0.0,0.0,0.4962,0.5417,0.6119,0.643,0.0,0.6853,0.7265,0.7265,0.7187,0.7139,0.7139,0.7139,0.7139,0.7139,0.9139,1.0534,1.1058,1.2578,1.3214,1.2978,1.3183,1.3127,1.2843,1.2999,1.2919,1.2799,1.2939,0.0,1.3071,1.3424,1.4222,1.5255,1.5429,1.6323,1.7615,1.7755,1.8281,1.9137,0.0,0.0,0.0,0.0,0.0,0.0,0.0,0.0,0.0,0.0,0.0,0.0,0.0,0.0,0.0,0.0,0.0,0.0,0.0,0.0,0.0,0.0,-0.7455,-0.6169,-0.266,-0.2242,-0.2667,-0.386,-0.3656,-0.4693,-0.6832,-0.5673,-0.5474,-0.5932,-0.3542,-0.1604,-0.0055,0.1548,0.3261,0.4968,0.4944,0.0,0.0,0.0,0.0,0.0,0.0,0.0,0.0,0.4161,0.3729,0.3169,0.3018,0.0,0.0,0.0,0.0,0.0,0.2184,0.1842,0.1557,0.1943,0.1849,0.1796,0.224,0.0,0.0,0.0,0.0,0.2145,0.1932,0.2048,0.0,0.0,0.0,0.0,0.4026,0.4109,0.4508,0.5432,0.5593,0.0,0.6711,0.6936,0.7139,0.7139,0.7139,0.7139,0.7139,0.7143,0.7143,0.7143,0.9144,1.0255,1.0307,1.2165,1.313,1.316,1.2961,1.2817,1.2679,1.2679,1.2538,1.2318,0.0,0.0,1.2775,1.2959,1.3783,1.4781,1.4524,1.5528,1.7189,1.735,1.7935,1.8822,0.0,0.0,0.0,0.0,0.0,0.0,0.0,0.0,0.0,0.0,0.0,0.0,0.0,0.0,0.0,0.0,0.0,0.0,0.0,0.0,0.0,-0.421,-0.3917,-0.3375,-0.2636,-0.2112,-0.2614,-0.421,-0.4113,-0.5161,-0.72,-0.5672,-0.5108,-0.5332,-0.3385,-0.1497,0.0166,0.0718,0.2493,0.4744,0.3761,0.0,0.0,0.0,0.0,0.0,0.0,0.0,0.0,0.3903,0.358,0.3187,0.3021,0.0,0.0,0.0,0.0,0.0,0.2004,0.2078,0.22,0.2164,0.2128,0.224,0.2683,0.0,0.0,0.0,0.0,0.0,0.0,0.2044,0.1447,0.0,0.0,0.3816,0.0,0.0,0.6251,0.5427,0.0,0.6621,0.5518,0.6464,0.7139,0.7139,0.7139,0.7139,0.7139,0.7323,0.7415,0.7415,0.889,0.9924,1.0501,1.2318,1.3033,1.2715,1.2804,1.2583,1.2149,1.2297,1.2345,1.2305,0.0,1.2371,1.2371,1.2425,1.2887,1.3701,1.3962,1.466,1.561,1.659,1.7056,1.748,0.0,0.0,0.0,0.0,0.0,0.0,0.0,0.0,0.0,0.0,0.0,0.0,0.0,0.0,0.0,0.0,0.0,0.0,0.0,0.0,-0.2093,-0.2187,-0.2905,-0.3191,-0.3045,-0.3707,-0.4227,-0.4589,-0.5583,-0.6487,-0.7263,-0.6197,-0.5464,-0.4999,-0.3049,-0.1566,-0.0486,0.0432,0.153,0.26,0.0,0.0,0.0,0.0,0.0,0.0,0.0,0.0,0.0,0.0,0.3496,0.3005,0.3166,0.0,0.0,0.0,0.0,0.0,0.2203,0.2312,0.2521,0.2552,0.2573,0.2685,0.3077,0.0,0.0,0.0,0.0,0.0,0.0,0.0,0.3147,0.4656,0.0,0.5513,0.7278,0.6834,0.6331,0.0,0.0,0.6195,0.6156,0.6705,0.7139,0.7139,0.7139,0.7105,0.7031,0.7201,0.7336,0.7247,0.8586,0.9377,0.9693,1.1042,1.2049,1.2719,1.2576,1.2432,1.215,1.2224,1.2305,1.2305,0.0,1.2305,1.2305,1.2452,1.2762,1.317,1.3462,1.4068,1.4969,1.6368,1.7009,1.7441,0.0,0.0,0.0,0.0,0.0,0.0,0.0,0.0,0.0,0.0,0.0,0.0,0.0,0.0,0.0,0.0,0.0,0.0,0.0,-0.0999,-0.1496,-0.1576,-0.2939,-0.3577,-0.3245,-0.4884,-0.555,-0.5084,-0.681,-0.749,-0.7127,-0.6559,-0.5779,-0.4725,-0.3055,-0.19,-0.1162,-0.0422,0.0208,0.0756,0.0,0.0,0.0,0.0,0.0,0.0,0.0,0.0,0.0,0.0,0.0,0.0,0.0,0.0,0.0,0.291,0.2832,0.2652,0.2362,0.2462,0.2709,0.2556,0.2529,0.0,0.0,0.0,0.0,0.0,0.0,0.0,0.0,0.3512,0.0,0.711,0.6899,0.7061,0.9096,0.7897,0.7189,0.8126,0.7154,0.6816,0.7811,0.7921,0.7822,0.7523,0.7432,0.7284,0.6885,0.7041,0.7151,0.7112,0.8332,0.9041,0.9318,0.9943,1.1028,1.251,1.214,1.215,1.2298,1.2304,1.2238,1.2298,1.2298,1.2311,1.2378,1.2526,1.2746,1.2973,1.3119,1.376,1.4744,1.5948,1.6783,1.7562,0.0,0.0,0.0,0.0,0.0,0.0,0.0,0.0,0.0,0.0,0.0,0.0,0.0,0.0,0.0,0.0,0.0,0.0,0.0,-0.0563,-0.1415,-0.3498,-0.3709,-0.3482,-0.2751,-0.4279,-0.5335,-0.5921,-0.6924,-0.7192,-0.6729,-0.6239,-0.5494,-0.4512,-0.3928,-0.275,-0.1269,-0.2704,-0.1793,0.0575,0.0303,0.0,0.0,0.0,0.0,0.0,0.0,0.0,0.0,0.0,0.0,0.0,0.0,0.0,0.3239,0.3172,0.3184,0.3011,0.2281,0.2557,0.2785,0.1676,0.1488,0.0,0.3999,0.3241,0.0,0.4284,0.0,0.0,0.0,0.3658,0.4,0.641,0.6702,0.7574,1.0285,0.0,1.048,1.0514,1.043,1.0362,1.0366,1.0351,0.9838,0.8641,0.8628,0.8046,0.6805,0.6964,0.7206,0.7368,0.8345,0.9304,1.0131,1.0188,1.0645,1.1575,1.1313,1.1558,1.2291,1.2161,1.2182,1.2285,1.2155,1.2267,1.2599,1.2599,1.282,1.32,1.3193,1.376,1.4601,1.4744,1.5675,1.6978,0.0,0.0,0.0,0.0,0.0,0.0,0.0,0.0,0.0,0.0,0.0,0.0,0.0,0.0,0.0,0.0,0.0,0.0,0.0,-0.181,-0.2653,-0.3825,-0.4428,-0.4806,-0.4923,-0.5473,-0.6118,-0.6804,-0.7375,-0.7339,-0.6832,-0.6433,-0.569,-0.4622,-0.4105,-0.3373,-0.2592,-0.3162,-0.3012,-0.2265,-0.1556,-0.0562,0.0,0.0,0.0,0.0,0.0,0.0,0.0,0.0,0.384,0.3664,0.3943,0.3711,0.3375,0.3348,0.3258,0.3096,0.2511,0.3097,0.3564,0.2011,0.1623,0.0,0.0,0.375,0.3776,0.3838,0.5158,0.0,0.0,0.0,0.5087,0.6277,0.7754,0.9486,1.1319,1.1688,1.1635,1.1486,1.0877,1.0364,1.0055,1.0035,0.9834,0.9344,0.8761,0.8106,0.7523,0.7123,0.6925,0.6904,0.799,0.8732,0.911,0.9724,1.0416,1.1256,1.116,1.1484,1.2291,1.2141,1.224,1.2432,1.2206,1.2391,1.2826,1.2826,1.2973,1.32,1.3346,1.3756,1.4296,1.4715,1.5732,1.6925,0.0,0.0,0.0,0.0,0.0,0.0,0.0,0.0,0.0,0.0,0.0,0.0,0.0,0.0,0.0,0.0,0.0,0.0,-0.2008,-0.282,-0.3586,-0.4322,-0.5009,-0.5575,-0.6044,-0.6085,-0.6446,-0.7195,-0.7437,-0.7281,-0.6702,-0.6326,-0.5626,-0.4728,-0.4303,-0.3888,-0.3553,-0.357,-0.3791,-0.398,-0.2639,-0.1544,0.0,0.0,0.0,0.0,0.0,0.0,0.0,0.0,0.3932,0.3799,0.4088,0.3807,0.3405,0.3098,0.3265,0.3358,0.2678,0.318,0.3718,0.2737,0.0,0.0,0.3926,0.4377,0.4584,0.5097,0.665,0.7768,0.7159,0.0,0.0,0.0,0.96,1.098,1.23,1.249,1.2533,1.2349,1.1588,1.0996,1.0748,1.0798,1.0589,0.9964,0.9379,0.8672,0.7799,0.7541,0.7261,0.6866,0.8248,0.9001,0.8931,0.975,1.053,1.1359,1.1138,1.147,1.2365,1.2182,1.2239,1.2508,1.2179,1.2305,1.2825,1.2753,1.2954,1.32,1.3346,1.3557,1.391,1.4523,1.5442,1.6438,0.0,0.0,0.0,0.0,0.0,0.0,0.0,0.0,0.0,0.0,0.0,0.0,0.0,0.0,0.0,0.0,0.0,0.0,-0.3147,-0.3268,-0.3923,-0.5317,-0.5441,-0.5482,-0.5475,-0.5696,-0.6191,-0.6985,-0.7072,-0.6761,-0.6178,-0.5786,-0.534,-0.4889,-0.4623,-0.4239,-0.3819,-0.4141,-0.425,-0.398,-0.2693,-0.1653,-0.0597,0.0,0.0,0.0,0.0,0.0,0.0,0.0,0.3817,0.3893,0.3828,0.3717,0.3425,0.2487,0.3153,0.3915,0.2693,0.2639,0.3111,0.3819,0.0,0.0,0.5796,0.4956,0.4718,0.8496,0.8882,0.8344,0.7865,0.7946,0.0,1.2324,1.1948,1.1678,1.3002,1.3206,1.32,1.32,1.32,1.3073,1.2842,1.3013,1.2428,1.0532,1.0636,0.9742,0.7237,0.8178,0.8336,0.7433,0.9333,1.0355,1.0182,1.0515,1.1078,1.1864,1.1078,1.1361,1.2572,1.2103,1.2068,1.2396,1.1981,1.214,1.2713,1.2501,1.2692,1.32,1.32,1.3346,1.3543,1.3865,1.4494,1.5216,0.0,0.0,0.0,0.0,0.0,0.0,0.0,0.0,0.0,0.0,0.0,0.0,0.0,0.0,0.0,0.0,0.0,0.0,-0.4124,-0.4215,-0.4466,-0.5026,-0.4751,-0.4815,-0.527,-0.5292,-0.5604,-0.624,-0.6411,-0.6337,-0.5887,-0.5543,-0.5284,-0.5007,-0.468,-0.4403,-0.428,-0.429,-0.4307,-0.4287,-0.2959,-0.1713,-0.0464,0.0,0.0,0.0,0.0,0.0,0.0,0.0,0.0,0.0,0.3806,0.3244,0.2534,0.2168,0.2323,0.2524,0.1814,0.3222,0.4647,0.3621,0.0,0.0,0.0,0.654,0.0,0.0,0.9085,0.8155,1.0124,0.9433,0.0,1.0827,1.1037,1.1241,1.1744,1.2408,1.2806,1.2599,1.2392,1.2144,1.185,1.1897,1.1695,1.1146,1.049,0.982,0.9114,0.8745,0.8397,0.8127,0.9384,1.0026,1.0025,1.0811,1.1279,1.1557,1.1279,1.157,1.2257,1.1791,1.1815,1.2225,1.1954,1.2078,1.2542,1.2774,1.3056,1.3419,1.3419,1.3557,1.3879,1.4209,1.4987,1.602,0.0,0.0,0.0,0.0,0.0,0.0,0.0,0.0,0.0,0.0,0.0,0.0,0.0,0.0,0.0,0.0,0.0,0.0,0.0,-0.4634,-0.4693,-0.4876,-0.4498,-0.4521,-0.5015,-0.4701,-0.4767,-0.5322,-0.5592,-0.5604,-0.5383,-0.513,-0.5008,-0.4959,-0.4746,-0.4591,-0.4512,-0.4426,-0.444,-0.4349,-0.289,-0.1631,-0.0526,0.0,0.0,0.0,0.0,0.0,0.0,0.0,0.0,0.0,0.3399,0.268,0.1965,0.2289,0.2233,0.2164,0.2569,0.391,0.0,0.506,0.5786,0.6846,0.7979,0.0,0.0,0.0,1.0438,0.9763,1.1629,1.0805,0.0,1.0657,1.1006,1.1209,1.1304,1.1851,1.2158,1.1977,1.1797,1.1577,1.1283,1.1356,1.1329,1.1096,1.0632,1.0165,0.9659,0.9536,0.9201,0.8769,0.9814,1.0301,1.0196,1.0847,1.1249,1.1249,1.1323,1.1479,1.1847,1.1616,1.1744,1.2114,1.1927,1.2021,1.2231,1.268,1.2984,1.3165,1.3295,1.3542,1.3843,1.4304,1.4967,1.5685,0.0,0.0,0.0,0.0,0.0,0.0,0.0,0.0,0.0,0.0,0.0,0.0,0.0,0.0,0.0,0.0,0.0,0.0,0.0,-0.4663,-0.4615,-0.4786,-0.4499,-0.4427,-0.4687,-0.3953,-0.384,-0.4314,-0.4577,-0.4714,-0.473,-0.4606,-0.4588,-0.467,-0.4787,-0.468,-0.4463,-0.4463,-0.4463,-0.4294,-0.2668,-0.1473,-0.0583,0.1111,0.0,0.0,0.0,0.0,0.0,0.0,0.0,0.0,0.2695,0.2116,0.1532,0.2475,0.2523,0.2583,0.4168,0.4597,0.5111,0.7267,0.7641,0.0,0.9687,1.0922,1.179,1.2084,0.0,1.2225,1.2225,1.1784,1.1416,1.139,1.141,1.1416,1.139,1.1363,1.1356,1.1383,1.1316,1.1169,1.0935,1.1129,1.1049,1.0521,1.0722,1.0438,0.9442,1.0374,1.0477,0.9472,1.0419,1.0828,1.0624,1.0822,1.0955,1.0955,1.108,1.1276,1.1472,1.1472,1.1667,1.1992,1.1992,1.1884,1.1891,1.2427,1.2692,1.2749,1.3071,1.3346,1.3572,1.4194,1.4421,1.4699,0.0,0.0,0.0,0.0,0.0,0.0,0.0,0.0,0.0,0.0,0.0,0.0,0.0,0.0,0.0,0.0,0.0,0.0,0.0,-0.4414,-0.4185,-0.3957,-0.3851,-0.3763,-0.3769,-0.3654,-0.3614,-0.3676,-0.3979,-0.4172,-0.4325,-0.4311,-0.4274,-0.43,-0.4361,-0.4301,-0.4249,-0.4249,-0.419,-0.3962,-0.2558,-0.1328,-0.022,0.1017,0.1963,0.0,0.0,0.0,0.0,0.0,0.0,0.0,0.2311,0.1713,0.1113,0.1589,0.2004,0.2459,0.2982,0.4607,0.0,0.689,0.7919,0.8991,0.9648,1.0147,1.0575,1.0875,1.1296,1.1617,1.1617,1.151,1.1349,1.1122,1.1276,1.1349,1.1122,1.0889,1.0828,1.1056,1.0481,1.012,1.0287,1.0154,1.0007,0.988,0.9933,0.9973,0.9956,1.0144,1.0319,1.0295,1.0558,1.0692,1.0624,1.0685,1.0719,0.0,1.0839,1.0967,1.1157,1.1284,1.1473,1.1663,1.1663,1.1802,1.2,1.2393,1.2706,1.2968,1.3295,1.3492,1.3543,1.3945,1.4084,1.4357,0.0,0.0,0.0,0.0,0.0,0.0,0.0,0.0,0.0,0.0,0.0,0.0,0.0,0.0,0.0,0.0,0.0,0.0,0.0,0.0,-0.3831,-0.3421,-0.339,-0.3388,-0.3294,-0.3183,-0.3155,-0.3232,-0.3238,-0.3432,-0.3805,-0.3906,-0.3901,-0.3937,-0.3966,-0.3968,-0.3916,-0.3916,-0.3913,-0.3735,-0.1801,-0.1041,-0.0832,0.1502,0.2099,0.1798,0.2179,0.0,0.0,0.0,0.0,0.0,0.0,0.0,0.0672,0.1806,0.1847,0.187,0.358,0.0,0.0,0.7441,0.0,0.9263,0.9619,0.98,0.9953,1.0107,1.0601,1.0969,1.0828,1.0802,1.0701,1.0414,1.0494,1.0541,1.0388,1.0241,1.02,1.0347,0.9967,0.974,0.9893,0.9773,0.9686,0.9686,0.9686,0.9746,0.99,0.9913,1.004,1.0341,1.0347,1.0414,1.0624,1.0624,1.0624,1.0624,1.0807,1.1059,1.131,1.1435,1.1435,1.1435,1.156,1.1781,1.215,1.2218,1.2617,1.3225,1.3613,1.3705,1.3601,1.429,1.4561,1.4757,0.0,0.0,0.0,0.0,0.0,0.0,0.0,0.0,0.0,0.0,0.0,0.0,0.0,0.0,0.0,0.0,0.0,0.0,0.0,0.0,0.0,-0.3037,-0.3083,-0.3041,-0.2939,-0.2648,-0.2603,-0.273,-0.254,-0.2688,-0.3186,-0.3363,-0.3431,-0.3484,-0.3569,-0.3633,-0.3585,-0.3585,-0.3624,-0.3531,-0.1283,-0.086,-0.1322,0.1873,0.2229,0.1162,0.1988,0.2115,0.18,0.1499,0.0,0.0,0.0,0.0,0.0499,0.2301,0.1883,0.145,0.4149,0.0,0.5636,0.8055,0.8838,0.0,0.9392,0.9419,0.9412,0.9512,1.0,1.0334,1.0087,1.004,0.9947,0.9653,0.9653,0.9666,0.9613,0.9606,0.9626,0.9679,0.9593,0.9552,0.9599,0.9566,0.9532,0.9532,0.9532,0.9552,0.9606,0.9606,0.974,1.0033,1.0094,1.0207,1.047,1.0571,1.0598,1.0544,1.0912,1.1185,1.1498,1.156,1.1498,1.1365,1.156,1.1864,1.2321,1.2217,1.2649,1.3486,1.4062,1.4057,1.3875,1.4699,1.5112,1.5373,0.0,0.0,0.0,0.0,0.0,0.0,0.0,0.0,0.0,0.0,0.0,0.0,0.0,0.0,0.0,0.0,0.0,0.0,0.0,0.0,0.0,-0.2788,-0.27,-0.2555,-0.2224,-0.2182,-0.2164,-0.2114,-0.2156,-0.2145,-0.2186,-0.2574,-0.278,-0.2905,-0.2988,-0.3244,-0.3585,-0.3585,-0.3523,-0.3366,-0.2174,-0.1168,-0.0213,0.1169,0.1858,0.217,0.2141,0.1966,0.1706,0.1408,0.1254,0.0,0.0,0.0,0.1014,0.1748,0.2123,0.2338,0.2419,0.0,0.5348,0.0,0.8028,0.8183,0.0,0.0,0.831,0.0,0.9392,0.9786,0.9746,0.974,0.9646,0.9345,0.9519,0.9593,0.9339,0.9243,0.9392,0.9653,0.9232,0.9018,0.9216,0.9072,0.8925,0.8925,0.8925,0.9031,0.923,0.9243,0.9432,0.9733,0.9987,1.0013,0.9806,1.0369,1.0428,1.018,1.0622,1.0933,1.1185,1.131,1.1435,1.156,1.156,1.1919,1.2482,1.2767,1.3268,1.3966,1.4723,1.495,1.4905,1.4688,1.5103,1.561,0.0,0.0,0.0,0.0,0.0,0.0,0.0,0.0,0.0,0.0,0.0,0.0,0.0,0.0,0.0,0.0,0.0,0.0,0.0,0.0,0.0,-0.2688,-0.2436,-0.2168,-0.2004,-0.1837,-0.1737,-0.1644,-0.1685,-0.1724,-0.1715,-0.1932,-0.2245,-0.2657,-0.2739,-0.2936,-0.3162,-0.3277,-0.3291,-0.3074,-0.1604,-0.0871,-0.0461,0.1643,0.221,0.1895,0.2073,0.1945,0.1659,0.1282,0.112,0.1077,0.1165,0.0,0.0,0.0,0.1533,0.1946,0.2716,0.4149,0.5743,0.0,0.7636,0.7915,0.8096,0.8023,0.7955,0.8263,0.8524,0.8804,0.9132,0.9192,0.9152,0.9018,0.9105,0.9145,0.9018,0.8998,0.9045,0.9178,0.8965,0.8858,0.8985,0.8884,0.8804,0.8804,0.8804,0.8864,0.8991,0.8998,0.9132,0.9426,0.9559,0.9646,0.9686,1.0569,1.1282,1.1806,1.1221,1.1301,1.1849,1.1428,1.131,1.1428,1.156,1.2104,1.2964,1.2803,1.3364,1.4416,1.4941,1.5085,1.5146,1.5429,1.5904,1.6376,0.0,0.0,0.0,0.0,0.0,0.0,0.0,0.0,0.0,0.0,0.0,0.0,0.0,0.0,0.0,0.0,0.0,0.0,0.0,0.0,0.0,-0.2639,-0.2238,-0.1942,-0.1786,-0.1577,-0.1416,-0.1333,-0.141,-0.1437,-0.1451,-0.1594,-0.1913,-0.2322,-0.2437,-0.2597,-0.281,-0.2989,-0.3014,-0.2851,-0.0903,-0.0245,-0.0195,0.2501,0.3072,0.2459,0.2405,0.0,0.0,0.0,0.0,0.0945,0.1043,0.0948,0.0,0.0,0.0,0.1146,0.0,0.0,0.4726,0.6252,0.6802,0.7101,0.0,0.0,0.7696,0.0,0.7869,0.7969,0.849,0.8644,0.8697,0.8697,0.8758,0.8804,0.8804,0.8804,0.8804,0.8804,0.8804,0.8804,0.8804,0.8804,0.8804,0.8804,0.8804,0.8804,0.8804,0.8804,0.8911,0.907,0.9143,0.9312,0.9459,1.0538,1.1549,1.2549,1.1711,1.1765,1.2506,1.179,1.1428,1.1428,1.1516,1.2243,1.3194,1.2907,1.3587,1.4909,1.5204,1.5433,1.553,1.6021,1.6649,1.7148,0.0,0.0,0.0,0.0,0.0,0.0,0.0,0.0,0.0,0.0,0.0,0.0,-0.5414,-0.5023,-0.4581,-0.4026,0.0,0.0,0.0,0.0,0.0,-0.2442,-0.219,0.0,-0.1526,-0.1384,-0.1243,-0.1101,-0.145,-0.146,-0.1207,-0.1614,-0.1783,-0.1849,-0.1959,-0.2293,-0.274,-0.285,-0.2959,-0.2794,-0.0681,0.0562,0.1336,0.3637,0.4721,0.4851,0.0,0.0,0.0,0.0,0.0,0.0,0.0891,0.0857,0.0823,0.0,0.0,0.0,0.0,0.1384,0.0,0.4684,0.5002,0.4947,0.0,0.0,0.7191,0.7762,0.7695,0.7589,0.7916,0.821,0.8397,0.8397,0.8624,0.8804,0.8804,0.8804,0.8804,0.8804,0.8804,0.8804,0.8804,0.8804,0.8804,0.8804,0.8804,0.8804,0.8804,0.8804,0.8811,0.8831,0.9044,0.9057,0.8858,0.9832,1.0524,1.0845,1.167,1.2246,1.2564,1.2388,1.2145,1.1799,1.166,1.2171,1.3055,1.3357,1.4231,1.542,1.5838,1.6286,1.6552,1.6318,1.6938,1.7862,0.0,0.0,0.0,0.0,0.0,0.0,0.0,0.0,0.0,0.0,0.0,0.0,0.0,-0.5144,-0.4737,-0.4406,-0.3941,0.0,0.0,0.0,0.0,-0.3034,-0.247,-0.2123,-0.2006,-0.1533,-0.1243,-0.118,-0.1336,-0.136,-0.1265,-0.1606,-0.1774,-0.185,-0.2054,-0.2268,-0.2443,-0.2664,-0.28,-0.2639,-0.0096,0.114,0.1682,0.0,0.0,0.0,0.0,0.0,0.0,0.0,0.0,0.0,0.0438,0.0148,-0.0594,-0.0356,-0.0205,0.0152,0.0,0.0,0.0,0.2944,0.394,0.4525,0.5324,0.6302,0.7038,0.7258,0.7261,0.7214,0.7284,0.7756,0.809,0.809,0.8176,0.8243,0.8243,0.8243,0.8317,0.851,0.853,0.8604,0.8791,0.8804,0.8804,0.8804,0.8804,0.8804,0.8804,0.8804,0.8804,0.8804,0.8911,0.9468,1.0492,1.0136,1.0953,1.2813,1.2259,1.2279,1.2876,1.2604,1.2159,1.1574,1.1529,1.2025,1.2888,1.3083,1.4046,1.5459,1.5889,1.6162,1.6387,1.6831,1.7263,1.758,0.0,0.0,0.0,0.0,0.0,0.0,0.0,0.0,0.0,-0.6199,0.0,0.0,0.0,0.0,-0.5136,-0.475,-0.4183,-0.3742,-0.3461,-0.3336,-0.3328,-0.3327,-0.2815,-0.241,-0.2254,-0.1719,-0.1408,-0.1256,-0.106,-0.1095,-0.1381,-0.1332,-0.1538,-0.1922,-0.2128,-0.2242,-0.2277,-0.2552,-0.2601,-0.2359,0.038,0.0,0.1348,0.0,0.0,0.0,0.0,0.0,0.0,0.0,0.0,0.0,0.0828,0.0051,-0.1196,-0.0462,-0.0103,0.0,0.0709,0.0,0.0,0.0,0.2345,0.2897,0.4014,0.0,0.6168,0.6846,0.6947,0.6907,0.7001,0.7311,0.7609,0.7756,0.7862,0.7882,0.7882,0.7882,0.8003,0.8203,0.8223,0.8303,0.849,0.8604,0.8664,0.8664,0.8751,0.0,0.8804,0.8804,0.891,0.9113,0.9361,1.0075,1.1229,1.0732,1.143,1.3223,1.2592,1.2555,1.3075,1.2837,1.235,1.1674,1.1475,1.1952,1.2928,1.2943,1.3977,1.5439,1.5732,1.5928,1.6213,1.6894,1.7256,1.7451,0.0,0.0,0.0,0.0,0.0,0.0,0.0,0.0,-0.599,-0.6277,0.0,0.0,0.0,0.0,0.0,-0.4959,-0.45,-0.4173,-0.414,-0.4016,-0.368,-0.3191,0.0,0.0,-0.2013,-0.1861,-0.1605,-0.1293,-0.0548,-0.0588,-0.1378,-0.0852,-0.1037,-0.1861,-0.2177,-0.2273,-0.2181,-0.2408,-0.2352,-0.1932,0.0,0.1228,0.048,0.0,0.0,0.0,0.3376,0.3506,0.0,0.4868,0.0,0.0,0.0,0.0626,-0.0944,0.0699,0.0639,0.0,0.0,0.0,0.0,0.0,0.0,0.0,0.3117,0.0,0.4491,0.6482,0.6753,0.668,0.6947,0.7001,0.7101,0.7439,0.7702,0.7855,0.7855,0.7855,0.7862,0.7868,0.7868,0.7875,0.7882,0.819,0.8357,0.8357,0.8631,0.8791,0.8791,0.8804,0.9159,0.9814,1.0466,1.0813,1.0813,1.1466,1.1765,1.1823,1.2665,1.3128,1.3272,1.3025,1.2611,1.207,1.1559,1.2029,1.3104,1.3002,1.392,1.541,1.543,1.5684,1.6103,1.6562,1.6992,1.7402,0.0,0.0,0.0,0.0,0.0,-0.5415,-0.5731,-0.5798,-0.6037,0.0,0.0,0.0,-0.6257,-0.5952,-0.5522,-0.502,-0.4833,-0.4737,-0.4626,-0.4491,-0.384,-0.2605,-0.3133,-0.234,0.008,-0.0581,-0.0351,0.0857,0.0818,0.0806,0.0724,-0.0136,-0.0606,-0.0785,-0.1767,-0.2141,-0.2003,-0.2218,0.0,-0.1937,0.1248,0.2164,0.0,0.0,0.0,0.0,0.0,0.3569,0.282,0.0,0.2278,-0.1934,0.0,0.0,-0.0277,-0.0965,-0.0212,0.0,0.021,0.0,0.0,0.0,0.0,0.0,0.0,0.0,0.4224,0.4539,0.5828,0.68,0.6498,0.6567,0.6734,0.682,0.7081,0.7231,0.7231,0.7231,0.7355,0.7569,0.7595,0.7682,0.7862,0.8003,0.8049,0.0,0.833,0.849,0.849,0.9137,0.9814,1.0517,1.0712,1.1015,1.1516,1.1216,1.1534,1.2461,1.2521,1.2619,1.2859,1.3004,1.2823,1.236,1.2121,1.236,1.2936,1.2898,1.3861,1.5439,1.5762,1.5762,1.5684,1.6455,1.6602,1.6494,0.0,0.0,0.0,0.0,0.0,-0.5723,-0.593,-0.6084,-0.6348,0.0,0.0,0.0,-0.661,-0.607,-0.563,-0.5423,-0.5285,-0.5183,-0.5101,-0.4291,-0.3443,-0.2556,-0.2242,-0.1223,0.0663,0.0323,0.0526,0.1331,0.1625,0.1621,0.1289,0.08,0.0413,0.0194,-0.1044,-0.1502,-0.1361,0.0,0.0,0.0,0.1078,0.0,0.0,0.4457,0.5287,0.0,0.0,0.0,0.3974,0.6229,0.357,0.0,0.0,0.0,0.0,0.0,0.0,0.0,0.0,0.0,0.0,0.0,0.0,0.0,-0.1995,0.0191,0.2763,0.0,0.5728,0.6339,0.6493,0.6431,0.6324,0.6324,0.66,0.6887,0.7001,0.6979,0.7088,0.7261,0.7281,0.7355,0.749,0.7662,0.7736,0.7736,0.8016,0.8384,0.8799,0.9693,1.0517,1.1216,1.1534,1.1841,1.2246,1.1891,1.2049,1.2783,1.2566,1.2557,1.2686,1.2826,1.2698,1.241,1.2402,1.2608,1.3006,1.3199,1.4032,1.5128,1.5615,1.5635,1.5498,1.6191,1.6289,1.6213,0.0,0.0,-0.5137,-0.4903,-0.5471,-0.6033,-0.6129,-0.6257,-0.6403,0.0,-0.6754,-0.6848,-0.6839,-0.627,-0.5927,-0.6062,-0.5755,-0.5583,-0.5583,-0.3959,-0.2857,-0.2687,-0.1013,0.013,0.0672,0.1085,0.1252,0.1134,0.2184,0.2193,0.1256,0.1782,0.1713,0.1143,-0.02,0.0,0.0,0.0,0.0,-0.1502,0.05,0.0822,0.0,0.0,0.4856,0.2653,0.4624,0.5486,0.5901,0.7264,0.5669,0.0,0.0,0.0,0.0,0.0,-0.0162,0.0,0.0,0.0,0.0,0.0,0.0,0.0,-0.3194,-0.189,0.0617,0.0,0.5375,0.5104,0.6085,0.5767,0.5335,0.5377,0.5895,0.642,0.6892,0.7001,0.6979,0.6979,0.6979,0.6979,0.6979,0.7261,0.7459,0.7459,0.7702,0.8345,0.946,1.0252,1.1081,1.1913,1.2511,1.2832,1.2881,1.2881,1.2881,1.2881,1.2783,1.2735,1.2725,1.2529,1.2431,1.232,1.2432,1.2717,1.3119,1.375,1.4255,1.4656,1.5186,1.541,1.5459,1.585,1.5986,1.6103,0.0,-0.2994,-0.3971,-0.3483,-0.4749,-0.5868,-0.596,-0.4935,-0.4366,-0.501,-0.4939,-0.5224,-0.6465,-0.6404,-0.6319,-0.6398,-0.6276,-0.6239,-0.6239,-0.4803,-0.329,-0.1877,-0.1233,0.0352,0.2988,0.2236,0.2323,0.3299,0.3353,0.3379,0.337,0.244,0.2147,0.2253,0.0148,-0.0709,0.0,0.0,0.0,-0.1839,-0.0211,0.0,0.1606,0.3945,0.5127,0.5707,0.6434,0.5991,0.4897,0.3833,0.3926,0.4112,0.0,0.0,0.0,0.0884,0.0,0.0,0.0,0.0,0.0,0.0,0.0,0.0,-0.2756,-0.1919,-0.0907,0.0,0.091,0.1844,0.1568,0.1659,0.1895,0.2167,0.3256,0.4713,0.6447,0.6874,0.6979,0.6979,0.6979,0.6979,0.6979,0.7074,0.7108,0.7108,0.7388,0.8332,1.0108,1.0023,1.075,1.2647,1.2434,1.2529,1.2881,1.2881,1.2881,1.2881,1.2783,1.2783,1.2832,1.248,1.2382,1.2459,1.2623,1.2788,1.2969,1.353,1.4145,1.4824,1.5244,1.541,1.542,1.5508,1.5537,1.5566,-0.0924,-0.2576,-0.3579,-0.2421,-0.3727,-0.4673,-0.3828,-0.3284,-0.3016,-0.3204,-0.3031,-0.3569,-0.5257,-0.5315,-0.5669,-0.6641,-0.6702,-0.6349,-0.5679,-0.4168,-0.258,-0.0963,0.0177,0.16,0.3262,0.2898,0.2943,0.3398,0.335,0.3114,0.271,0.2024,0.1872,0.21,0.0145,-0.0645,0.0,0.0,-0.2128,-0.2064,-0.0308,0.0,0.1308,0.4134,0.5598,0.6244,0.6661,0.6317,0.5665,0.5505,0.4457,0.0,0.0,0.2777,0.1028,0.0,0.1549,0.1559,0.0,0.0,0.0,-0.0429,0.0,0.0,0.0,-0.2313,-0.2506,-0.28,-0.1662,-0.0878,-0.1787,-0.0403,0.0865,0.0734,0.2201,0.3593,0.4252,0.5653,0.6647,0.6787,0.6807,0.686,0.7007,0.6979,0.6979,0.6979,0.7301,0.817,0.9769,0.974,1.06,1.2482,1.2344,1.2441,1.2881,1.2881,1.2881,1.2881,1.2832,1.2832,1.2881,1.2627,1.248,1.2499,1.2702,1.2707,1.2628,1.3349,1.3889,1.4457,1.4932,1.5225,1.5439,1.5654,1.5596,1.5478,-0.0199,-0.2161,-0.3296,-0.1436,-0.2537,-0.3211,-0.1716,-0.1664,-0.171,-0.1422,-0.1131,-0.1736,-0.3659,-0.3567,-0.4017,-0.5679,-0.6026,-0.5591,-0.4397,-0.3218,-0.1928,-0.044,0.1511,0.2598,0.269,0.3087,0.3087,0.2732,0.286,0.2509,0.1626,0.1657,0.1786,0.1918,0.0381,-0.0294,0.0,0.0,0.0,-0.2294,0.0,0.0383,0.0518,0.3952,0.5333,0.5501,0.6199,0.6488,0.6715,0.7484,0.543,0.2955,0.5307,0.3479,0.0,0.0,0.0,0.0,0.0,0.0,0.0,0.0,0.0,-0.1919,0.0,0.0,0.0,-0.3687,-0.3147,0.0,0.0,0.0,0.0,0.0,0.0,0.0,0.0,0.3762,0.0,0.5832,0.635,0.6658,0.663,0.6704,0.677,0.6985,0.715,0.7879,0.9247,0.9609,1.0533,1.2171,1.218,1.2441,1.2881,1.2881,1.2881,1.2881,1.2881,1.2881,1.2881,1.2725,1.2627,1.2548,1.272,1.2669,1.2491,1.3081,1.3578,1.4038,1.4564,1.5039,1.5459,1.5811,1.5713,1.5518,0.0537,-0.135,-0.2421,-0.0429,-0.128,-0.2034,-0.1479,-0.0453,0.0131,-0.0132,0.0655,0.0427,-0.1762,-0.1251,-0.0947,-0.1546,-0.2671,-0.3024,-0.2192,-0.2748,-0.2519,-0.1142,0.0889,0.2018,0.2018,0.2506,0.2593,0.2188,0.2549,0.2645,0.2454,0.2504,0.2698,0.29,0.1437,0.044,0.0,0.0,-0.2784,0.0,-0.0548,0.0048,0.0,0.1529,0.2829,0.3908,0.5561,0.6457,0.6646,0.0,0.5438,0.5577,0.0,0.285,0.4994,-0.0099,0.0,0.0,0.0,0.0,0.0,0.0,-0.1206,0.0,0.0,0.0,-0.3501,-0.3718,0.0,0.0,0.0,0.0,0.0,0.0,0.0,0.0,-0.044,0.1178,0.2609,0.3186,0.5444,0.6502,0.543,0.555,0.6019,0.695,0.6662,0.728,0.9203,0.9803,1.0698,1.2151,1.218,1.2441,1.2881,1.2881,1.2881,1.2881,1.2881,1.2881,1.2881,1.2627,1.2578,1.2686,1.2478,1.2617,1.3001,1.2726,1.316,1.4028,1.4443,1.4925,1.542,1.5469,1.5459,1.543,0.0269,-0.0994,-0.1582,0.0434,-0.0309,-0.0644,0.0954,0.1297,0.1244,0.0845,0.1287,0.1578,0.1324,0.157,0.0,0.0,0.0,-0.1917,0.0,0.0,-0.0814,0.0266,0.1295,0.1928,0.2064,0.2152,0.215,0.2061,0.2061,0.1806,0.1376,0.1575,0.162,0.1555,0.0551,0.0,-0.0281,0.0,-0.1532,0.0,0.0,0.0,0.0,0.0643,0.2095,0.3043,0.3805,0.4892,0.5943,0.0,0.4229,0.0,0.0,0.0,0.0,0.0,0.0,0.0,0.0,0.0,0.0,0.0,0.0,0.0,-0.156,0.0,-0.3209,0.0,0.0,0.0,0.0,0.0,0.0,0.0,-0.2424,0.0,0.0,0.0,0.0298,0.0,0.0,0.0,0.6139,0.632,0.6526,0.6985,0.7143,0.7716,0.8898,0.9679,1.0628,1.1816,1.21,1.2441,1.2881,1.2881,1.2881,1.2881,1.2881,1.2881,1.2783,1.2686,1.2578,1.2578,1.2382,1.2426,1.2617,1.2348,1.277,1.3494,1.3968,1.4511,1.5107,1.5605,1.5625,1.5449,-0.0436,0.0,0.0,0.067,0.0202,0.0176,0.196,0.1811,0.1366,0.0938,0.1385,0.2087,0.293,0.3364,0.0,0.0,-0.0153,0.0344,0.0,0.0,0.0838,0.1475,0.1703,0.1928,0.2201,0.1928,0.1839,0.1884,0.1748,0.1389,0.0851,0.1072,0.1116,0.0937,0.009,-0.0273,-0.0228,0.0,-0.0895,-0.2753,-0.065,-0.0399,-0.1228,-0.0192,0.151,0.3208,0.223,0.2729,0.4001,0.5076,0.3479,0.0,0.3569,0.0,0.0,0.0,0.0,0.0,-0.0279,0.0,0.0,0.0,0.0,0.0,0.0,0.0,0.0,0.0,0.0,0.0,0.0,0.0,0.0,0.0,0.0,-0.2715,0.0,-0.2119,0.0,0.0,0.0,0.0,0.0,0.6711,0.697,0.6797,0.0,0.8006,0.8788,0.9906,1.0837,1.1596,1.2119,1.2559,1.2881,1.2881,1.2881,1.2881,1.2881,1.2832,1.2725,1.2725,1.2686,1.2578,1.2431,1.2323,1.2332,1.2234,1.2501,1.2963,1.3485,1.4067,1.4707,1.5566,1.5684,1.5459,-0.1509,-0.1174,0.0,-0.0067,0.007,0.0075,0.0082,0.0293,0.0256,-0.0267,0.0,0.0,0.0,0.0,0.0,0.0,0.0,0.4969,0.4739,0.0,0.1755,0.1789,0.1839,0.1975,0.2201,0.1928,0.1748,0.1614,0.1748,0.1794,0.1748,0.1884,0.202,0.2068,0.0754,0.0192,0.0144,-0.0144,-0.1525,-0.3519,-0.2845,-0.0692,0.1784,0.0,0.068,0.4778,0.1316,0.0,0.0,0.2151,0.3801,0.0,0.0,0.0,0.0,0.0,0.0,0.0,0.0,0.0,0.0,-0.2822,0.0,0.0,0.0,0.0,-0.335,0.0,0.0,0.0,0.0,0.0,0.0,0.0,0.0,0.0,0.0,0.0,0.0,0.0,0.0,0.0,0.0,0.5922,0.6802,0.0,0.6829,0.7717,0.9116,1.0709,1.1587,1.1606,1.2449,1.2871,1.2881,1.2881,1.2881,1.2881,1.2881,1.2881,1.2881,1.2783,1.2783,1.2881,1.2627,1.248,1.248,1.248,1.249,1.2586,1.3106,1.3623,1.4204,1.5117,1.542,1.541,0.0,0.0,0.0,0.0,0.0,-0.0712,-0.0788,-0.0617,0.0,0.0,0.2069,0.0,0.0,0.4802,0.5214,0.0,0.0,0.5385,0.5295,0.4237,0.0,0.364,0.2799,0.2554,0.3061,0.153,0.0756,0.0801,-0.0133,-0.0133,0.0759,0.1009,0.1516,0.216,0.0802,-0.0,0.0,0.0,0.0,0.0,0.0,-0.1193,0.0967,0.0,0.0217,0.164,0.043,0.1512,0.0,0.2805,0.2917,0.335,0.3498,0.3133,0.2686,0.278,0.2628,0.0,0.0,0.0,0.2082,-0.061,0.0,0.0,0.0,0.0,0.0,0.0,0.0,0.0,0.0,0.0,0.0,0.0,0.0,0.0,0.0,0.0,0.0,0.0,0.0,0.0,0.0,0.0,0.0,0.0,0.7717,0.0,0.9381,1.078,1.1606,1.1606,1.2469,1.2881,1.2881,1.2881,1.2881,1.2881,1.2881,1.2832,1.2783,1.2832,1.2783,1.2627,1.2529,1.2431,1.2382,1.2382,1.2431,1.2567,1.3087,1.3491,1.3818,1.4678,1.5,1.5103,-0.1546,0.0,0.0,0.0,0.0,0.0,0.0,0.0,0.0,0.0,0.2086,0.0,0.4877,0.0,0.5522,0.0,0.5709,0.5807,0.5712,0.5204,0.0,0.4807,0.3691,0.3225,0.0,0.1363,-0.0175,-0.0908,-0.1542,-0.136,-0.0499,-0.0093,0.0701,0.1652,-0.0,-0.08,-0.0801,0.0098,0.2354,0.0,0.0,-0.1436,0.0,0.0,-0.0892,0.0,0.0,0.1472,0.342,0.3526,0.3478,0.3626,0.511,0.4252,0.2995,0.4306,0.3935,0.2992,0.2713,0.3294,0.0,0.1019,0.1065,0.0,-0.1834,0.0,0.0,0.0,0.0,0.0,0.0,0.0,0.0,0.0,0.0,0.0,0.0,-0.2034,0.0,0.0,0.0,0.0,0.0,0.0,0.0,0.5466,0.7471,0.9105,0.0,1.1045,1.1738,1.2034,1.2624,1.2881,1.2881,1.2881,1.2881,1.2881,1.2881,1.2832,1.2774,1.2832,1.2725,1.2578,1.248,1.2382,1.2274,1.2323,1.2431,1.2558,1.2974,1.3328,1.3613,1.4473,1.5041,1.5477,-0.144,-0.1873,0.0,0.0,-0.1642,0.0,0.0,0.0,-0.0706,0.0,0.1365,0.2449,0.4366,0.5152,0.5531,0.5605,0.6199,0.6434,0.6194,0.5893,0.0,0.0,0.4587,0.4044,0.3718,0.1405,-0.0947,-0.3304,-0.2459,-0.2023,-0.1886,-0.1184,-0.0237,0.081,-0.1335,0.0,-0.1196,-0.1047,0.1369,0.4609,-0.0516,-0.1365,0.0144,-0.3094,-0.2599,-0.0193,-0.0052,0.0,0.0517,0.3911,0.5107,0.5164,0.5282,0.5309,0.5447,0.6241,0.6102,0.5441,0.43,0.381,0.3303,0.1933,0.1608,0.0,0.0,0.0,-0.0962,0.0,0.0,0.0,0.0,0.0,0.0,0.0,0.0,0.0,0.0,0.0,0.0,0.0,0.0,0.0,0.0,0.2713,0.4039,0.3822,0.629,0.8725,0.0,1.1371,1.194,1.2817,1.2887,1.2881,1.2881,1.2881,1.2881,1.2881,1.2881,1.2881,1.2881,1.2783,1.2735,1.2686,1.2431,1.2332,1.2332,1.2431,1.248,1.2529,1.2783,1.3135,1.3603,1.4424,1.5385,1.6321,-0.0436,-0.0805,-0.141,0.0,-0.2086,-0.1957,0.0,0.0,0.0,0.0,0.4754,0.6394,0.7213,0.7172,0.7124,0.7124,0.731,0.0,0.0,0.0,0.0,0.7029,0.5967,0.5408,0.547,0.1993,-0.1065,-0.3677,-0.419,-0.4059,-0.3237,-0.157,-0.0246,0.0643,0.0,-0.1167,-0.1231,-0.1662,-0.0629,0.1236,-0.0139,-0.0369,-0.0199,0.0,-0.3841,-0.2917,-0.0769,0.0,0.0141,0.1055,0.2218,0.3532,0.487,0.5309,0.5376,0.578,0.5793,0.5613,0.5335,0.5185,0.4771,0.3347,0.2995,0.2291,0.0,0.0,0.0,0.0,0.0,0.0,0.0,0.0,0.0,0.0,0.0,0.0,0.0,0.0,0.0,-0.1031,0.0,0.0,0.0,0.1348,0.2913,0.5295,0.6698,0.8325,1.04,0.0,1.091,1.1901,1.2537,1.2881,1.2881,1.2881,1.2881,1.2881,1.2881,1.2881,1.2881,1.2881,1.2774,1.2676,1.2529,1.2372,1.2274,1.2323,1.2421,1.2529,1.2686,1.3085,1.3535,1.376,1.4663,1.5907,0.0168,-0.037,0.0,-0.1823,0.0,0.0,-0.007,0.0218,0.0,0.3629,0.58,0.0,0.7488,0.7773,0.7889,0.7725,0.7695,0.0,0.7271,0.0,0.0,0.7218,0.6814,0.6634,0.6713,0.3158,0.0,-0.5401,-0.5865,-0.5287,-0.3768,-0.2832,-0.1493,0.01,0.0,-0.1555,-0.0457,-0.0993,-0.0764,0.0,0.0,0.0,0.0,-0.1802,-0.3202,-0.3922,-0.1036,0.0,0.0,0.0,0.1161,0.2924,0.474,0.5292,0.5369,0.5699,0.5665,0.5578,0.5838,0.5718,0.5373,0.4812,0.4684,0.4085,0.1743,0.1708,0.1667,0.0,0.0,0.0,0.0,0.0,0.0,0.0,0.0,0.0,0.0,0.0,0.0,0.0,-0.0468,0.0,0.0,0.1034,0.2698,0.5547,0.6299,0.7384,0.9129,0.0,1.0363,1.1194,1.2311,1.2881,1.2881,1.2881,1.2881,1.2881,1.2881,1.2881,1.2881,1.2832,1.2774,1.2676,1.2578,1.2431,1.2274,1.2382,1.2421,1.2529,1.2725,1.2978,1.3302,1.3731,1.4821,1.6117,0.0538,-0.0168,0.0,0.0,0.0,0.0,0.0,0.1365,0.0,0.4437,0.0,0.6791,0.6873,0.7783,0.8223,0.786,0.0,0.7604,0.7013,0.7521,0.755,0.6931,0.7504,0.7787,0.7679,0.4526,-0.035,0.0,0.0,-0.6029,-0.3827,-0.4034,-0.2837,-0.05,0.0,0.0,0.0,-0.0294,-0.0364,0.0,0.0,0.0,0.0,0.0,-0.1555,-0.3409,-0.09,0.0,0.0,0.0,0.101,0.2613,0.4651,0.5313,0.5363,0.5732,0.559,0.5423,0.5941,0.5699,0.5443,0.6001,0.6135,0.5819,0.4547,0.3971,0.391,0.4602,0.418,0.4291,0.0,0.0,0.0,0.0,0.0,0.0,0.0,0.0,0.0,0.0,0.0,0.0,0.0,0.1208,0.2822,0.4913,0.5229,0.6095,0.7767,0.0,1.001,1.0813,1.2091,1.2822,1.2881,1.2881,1.2881,1.2881,1.2881,1.2881,1.2881,1.2783,1.2735,1.2725,1.2578,1.2431,1.2382,1.2431,1.248,1.2529,1.2783,1.2881,1.3027,1.4029,1.5241,1.6431,0.0949,0.0,0.0,0.0,0.0,0.3877,0.6275,0.6245,0.6268,0.7083,0.8129,0.8817,0.8872,0.8784,0.8679,0.8595,0.8595,0.0,0.0,0.0,0.0,0.8413,0.8862,0.8927,0.8585,0.5589,0.132,0.0,0.0,0.0,-0.3926,-0.2455,-0.1337,0.0,0.0,0.0,-0.0385,-0.2721,0.0,0.0,0.0,0.0,0.0,0.0,-0.0313,-0.0688,-0.0182,0.0,0.0,0.0,0.0203,0.1023,0.427,0.5299,0.5322,0.5376,0.5356,0.5336,0.5437,0.539,0.5364,0.5705,0.5792,0.5834,0.5996,0.6015,0.6116,0.6475,0.6241,0.5562,0.4337,0.0,0.0,0.0,0.0,0.0,0.0,0.0,0.0,0.0,0.0,-0.0437,0.0,0.0,0.1996,0.3685,0.3303,0.4517,0.0,0.0,0.9165,0.0,1.2008,0.0,0.0,0.0,1.2881,1.2881,1.2881,1.2881,1.2881,1.2881,1.2881,1.2832,1.2627,1.2529,1.2627,1.2431,1.248,1.2676,1.2832,1.2881,1.3027,1.388,1.4726,1.556,0.1688,0.0,0.0,0.0,0.0,0.0,0.0,1.0085,0.9416,0.8119,0.9125,0.9505,0.835,0.8745,0.9008,0.8773,0.8789,0.8789,0.8745,0.8789,0.8899,0.9101,0.9289,0.9396,0.9357,0.6284,0.1973,-0.3499,0.0,0.0,-0.3852,0.0,0.0,-0.029,0.0,-0.0213,0.0,0.0,0.0,-0.2204,-0.0632,0.0,0.0,0.0,0.0,0.0,0.0,0.0,0.0,0.0,0.0,0.0302,0.2016,0.3173,0.3951,0.4282,0.4369,0.4502,0.5117,0.5309,0.5351,0.5638,0.5825,0.6082,0.6471,0.6673,0.6854,0.6994,0.6874,0.609,0.3918,0.2407,0.0,0.0,0.0,0.0,0.0,0.0,0.0,0.0,0.0,0.0,0.0,0.0,0.0,0.0,0.0,0.0,0.0,0.0,0.8674,0.0,0.0,0.0,1.2881,0.0,1.2881,1.2881,1.2881,1.2881,1.2881,1.2881,1.2881,1.2881,1.2783,1.2676,1.2686,1.2578,1.2578,1.2666,1.2832,1.2881,1.3027,1.4216,1.4904,1.5359,0.3302,0.2732,0.0,0.0,0.6332,0.8423,1.1754,1.2393,1.1622,0.919,0.9953,1.0011,0.8128,0.8923,0.9463,0.9089,0.9035,0.9008,0.8937,0.8981,0.917,0.9502,0.9502,0.9646,0.9893,0.7363,0.3157,0.0,0.0,0.0,0.0,0.0,0.0,0.0,0.0,0.0,0.0,0.0,0.0615,-0.3351,-0.0961,0.0,0.0,0.0,0.0,0.0,0.0,0.0,0.0,0.0,0.0,0.0,0.0,0.0945,0.2138,0.2607,0.3293,0.4102,0.503,0.5309,0.5351,0.5638,0.5892,0.6189,0.6506,0.6767,0.6947,0.7007,0.6974,0.6323,0.4435,0.3683,0.0,0.0,0.0,0.0,0.0,0.0,0.0,0.0,0.0,0.0,0.0122,0.0,0.0,0.0,0.0,0.0,0.5762,0.0,0.0,0.0,0.0,1.1949,1.2416,0.0,1.2881,1.2881,1.2881,1.2881,1.2881,1.2881,1.2881,1.2881,1.2881,1.2774,1.2676,1.2725,1.2725,1.2666,1.2822,1.2978,1.3202,1.4441,1.5156,1.557,0.0,0.0,0.0,0.0,0.0,1.0208,1.0184,1.2054,1.2952,1.1564,1.1279,1.1071,1.0583,1.0409,1.0247,1.0147,0.9932,0.9764,0.9698,0.9764,0.9816,0.9854,0.9854,0.988,0.9905,0.9604,0.6234,0.0,0.0,-0.5233,0.0,0.0,0.0,0.0,0.0,0.0,0.0,0.0666,0.1054,-0.0398,-0.0113,0.0,0.0,0.0,0.0,0.0,0.0,0.0,0.0,0.0,0.0,0.0,0.0,0.0112,0.0256,0.031,0.2605,0.5144,0.5282,0.5309,0.5351,0.5638,0.5731,0.5898,0.646,0.6613,0.6707,0.6967,0.6814,0.6507,0.6034,0.6276,0.5624,0.0,0.0,0.0,0.0,0.0,0.595,0.4191,0.0,0.0,0.0,0.2961,0.0,0.0,0.0505,0.0,0.0,0.0,0.0,0.9401,1.0003,1.0475,1.0906,1.2253,1.2881,1.2881,1.2881,1.2881,1.2881,1.2881,1.2881,1.2881,1.2774,1.2666,1.2608,1.2822,1.2881,1.2881,1.2881,1.3152,1.3621,1.4172,1.5068,1.6115,0.0,0.0,0.0,0.0,0.0,0.0,0.0,1.2759,1.3048,1.2549,1.1927,1.1357,1.0897,1.0777,1.0667,1.0545,1.0285,1.0135,1.0084,0.9944,0.9854,0.9905,0.8018,0.7892,0.9855,0.9905,0.6103,0.0,0.0,0.0,0.0,0.0,0.0,0.0,0.0,0.611,0.4035,0.1703,0.0444,0.0,0.0,0.0,0.0,0.0,0.0,0.0,0.0,0.0,0.0,0.0,0.0,0.0,0.0,0.0,0.0,0.0,0.1008,0.2587,0.4731,0.5309,0.5351,0.5638,0.5845,0.6086,0.6493,0.672,0.688,0.6994,0.6927,0.6673,0.6129,0.6398,0.6356,0.5339,0.0,0.0,0.0,0.0,0.0,0.5993,0.0,0.5692,0.0,0.0,0.0,0.0,0.0,0.0,0.0,0.0,0.0,0.9531,0.0,1.1575,1.2033,1.2628,1.2881,1.2881,1.2881,1.2881,1.2881,1.2881,1.2881,1.2881,1.2832,1.2774,1.2774,1.2881,1.2881,1.2929,1.3344,1.3525,1.3716,1.4501,1.536,1.6209,1.0635,0.0,1.0619,0.0,1.1877,1.2224,1.3496,1.3443,1.321,1.3087,1.2489,1.1834,1.1242,1.1015,1.0825,1.0667,1.0348,1.016,1.026,0.997,0.9404,0.8499,0.7162,0.0,0.698,0.6993,0.4061,-0.1912,-0.1458,0.0,0.0,0.0,0.0,0.0,0.8649,0.9235,0.8919,0.4019,0.119,0.0,0.0,0.0,0.0,0.0,0.0,0.0,0.0,0.0,0.0,0.0,0.0,0.0,0.0,0.0719,0.1559,0.1559,0.1559,0.211,0.463,0.5309,0.5408,0.5833,0.6104,0.6411,0.6958,0.7223,0.7327,0.7259,0.7079,0.6754,0.6293,0.6283,0.6478,0.6941,0.0,0.0,0.0,0.6979,0.0,0.0,0.543,0.5789,0.8071,0.6036,0.0,0.0,0.0,0.0,0.0,0.0,0.0,0.0,0.0,0.0,1.2262,1.2706,1.2881,1.2881,1.2881,1.2881,1.2881,1.2881,1.2881,1.2832,1.2881,1.2881,1.2881,1.2881,1.2968,1.3162,1.3621,1.3894,1.4082,1.4777,1.5602,1.6455,1.304,1.3085,1.326,1.4192,1.4371,1.4253,1.3938,1.3899,1.3754,1.3362,1.3056,1.2678,1.2133,1.131,1.0753,1.0616,1.0046,0.9854,1.0185,0.9944,0.8383,0.0,0.0,0.6792,0.0264,0.0126,0.0067,-0.0033,0.0,0.0,0.228,0.0,0.7813,0.9185,0.9466,0.9849,1.0138,0.7595,0.3994,0.0,0.0,0.0,0.0,0.0,0.0,0.0,0.0,0.0,0.0,0.0,0.0,0.0,0.0,0.2413,0.5248,0.5248,0.5248,0.5255,0.5302,0.5309,0.5504,0.6286,0.6494,0.678,0.792,0.8168,0.8122,0.7926,0.7206,0.668,0.6954,0.6386,0.6162,0.6894,0.0,0.0,0.0,0.0,0.0,0.4448,0.3399,0.4012,0.7041,0.6748,0.0,0.0,0.0,0.0,0.0,0.0,0.0,1.0105,1.0504,0.0,1.0712,1.2186,1.2881,1.2881,1.2783,1.2774,1.2881,1.2881,1.2832,1.2735,1.2832,1.2881,1.2881,1.2881,1.3152,1.3573,1.3621,1.4118,1.4903,1.4903,1.5786,1.6953,1.4538,1.4545,1.4535,1.4832,1.469,1.4513,1.4393,1.418,1.4002,1.3867,1.3438,1.3021,1.2622,1.1879,1.1392,0.0,1.0808,1.0605,0.0,1.0059,0.923,0.8374,0.5009,0.2159,0.005,0.0,0.0,0.0,0.0,0.0,0.0,0.4686,0.7155,0.969,0.9758,0.988,0.9954,0.8639,0.4963,0.0,0.0,0.0,0.0,0.0,0.0,0.0,0.0,0.0,0.0,0.0,0.1613,0.3199,0.0766,0.078,0.2171,0.4603,0.5309,0.5309,0.5309,0.5504,0.5848,0.6361,0.6803,0.7309,0.8035,0.8359,0.8535,0.8456,0.8221,0.7855,0.7368,0.7284,0.727,0.7259,0.7462,0.0,0.8103,0.0,0.5951,0.5377,0.6838,0.8293,0.9256,0.8859,0.0,0.0,0.0,0.0,0.0,0.0,0.0,0.0,1.1561,0.0,1.2195,1.2657,1.2881,1.2881,1.2881,1.2881,1.2881,1.2881,1.2881,1.2832,1.2881,1.2881,1.2881,1.2881,1.2978,1.32,1.4061,1.4433,1.4582,1.5355,1.6206,1.709,1.4995,1.5137,1.5153,1.5115,1.4935,1.4768,1.4715,1.4532,1.4373,1.4297,1.3854,1.3451,1.3093,1.2498,0.0,1.1505,1.1043,1.0855,1.1048,0.8985,0.86,1.0538,0.3795,0.0,0.0,0.0,0.0,0.0,0.0,0.0494,0.1527,0.5176,0.797,0.9905,0.9905,0.979,0.9548,0.8016,0.5644,0.2724,0.0778,0.0,0.0,0.0,0.0,0.0,0.0,0.0,0.0,0.0,0.2365,0.5,0.3193,0.2623,0.2852,0.3968,0.4836,0.5444,0.5444,0.5739,0.62,0.6911,0.7418,0.7918,0.8797,0.8946,0.8958,0.8999,0.8837,0.852,0.7968,0.8037,0.8123,0.7929,0.8085,0.8357,0.8829,0.0,0.6907,0.0,0.0,0.0,0.0,0.9437,0.9103,0.0,0.0,0.0,0.0,0.0,0.0,1.1667,1.2445,1.3017,1.3238,1.3017,1.2881,1.2881,1.2881,1.2832,1.2725,1.2832,1.2881,1.2832,1.2881,1.2881,1.2881,1.2881,1.3065,1.3478,1.4329,1.4744,1.4949,1.5724,1.6352,1.6871,1.4524,1.495,1.5194,0.0,1.5083,0.0,1.492,1.4903,1.4856,1.4661,1.429,1.3897,1.3561,1.3126,1.246,1.1431,0.0,0.0,0.0,0.6914,0.6414,1.0798,0.3935,0.0,0.0,0.0,0.0,0.0,0.0,0.0,0.0138,0.6327,0.934,0.9566,0.9805,0.9647,0.9077,0.6448,0.6053,0.6742,0.1936,0.0,0.0,0.0,0.0,0.0,0.0,0.0,0.0058,0.0418,0.256,0.5252,0.6296,0.6719,0.6296,0.3656,0.4243,0.5724,0.571,0.5994,0.6551,0.7791,0.8193,0.8677,0.9992,0.9804,0.9399,0.9518,0.9159,0.8797,0.8756,0.8756,0.8756,0.8756,0.8756,0.8878,0.9222,0.9262,0.885,0.0,0.0,0.0,0.8802,0.892,0.9454,0.0,0.0,0.0,0.0,0.0,1.3286,1.3711,1.3238,1.319,1.3732,1.32,1.2881,1.2881,1.2881,1.2783,1.2529,1.2783,1.2832,1.2725,1.2832,1.2881,1.2881,1.2881,1.3392,1.4129,1.4422,1.4983,1.5748,1.5957,1.6175,1.6392,0.0,0.0,1.4662,1.4837,1.5008,1.5077,1.4991,1.5057,1.5081,1.4979,1.4687,1.4311,1.391,1.3645,1.3287,1.278,1.2167,1.1702,1.1407,0.4945,0.1631,0.2748,0.1002,0.0,0.0,0.0,0.0,0.0,0.0,0.0,0.0038,0.1607,0.3713,0.6268,0.8776,0.9841,0.9688,0.9017,0.6072,0.1712,0.0496,0.0,0.0,0.0,0.0,0.0,0.0,0.0,0.0603,0.4543,0.4532,0.2887,0.3045,0.4041,0.5221,0.5511,0.5821,0.6052,0.5952,0.6303,0.6926,0.7763,0.8763,0.9653,0.9991,1.001,0.9961,1.0147,1.0108,0.9864,0.946,0.9381,0.939,0.9319,0.9319,0.9478,0.9952,1.004,0.9942,0.0,0.9582,0.97,0.9904,0.9943,0.9734,0.0,0.0,0.0,1.1054,1.337,1.4216,1.3142,1.342,1.3409,1.3104,1.2968,1.2881,1.2881,1.2881,1.2881,1.2832,1.2881,1.2881,1.2832,1.2881,1.2881,1.2881,1.2881,1.3075,1.345,1.419,1.4698,1.5073,1.5988,1.6349,1.6479,1.2253,1.2785,1.3315,1.3968,1.4239,1.4449,1.4686,1.497,1.5131,1.5052,1.4917,1.4703,1.441,1.4206,1.4004,1.3729,1.3025,1.2514,1.2282,0.7066,0.2783,0.0117,0.0,0.0,0.0,0.0,0.1765,0.5386,0.1765,0.0,0.0,0.0,0.0972,0.2789,0.457,0.7056,0.9905,0.9905,0.6064,0.0,0.0,0.0,0.0,0.0,0.0,0.0311,0.2675,0.3522,0.3765,0.542,0.504,0.3917,0.4167,0.4525,0.5079,0.6076,0.6032,0.5714,0.5782,0.6328,0.7087,0.8141,0.9065,0.9782,0.9942,1.0127,1.0235,1.0264,1.0312,1.0273,0.9991,0.9903,0.9913,0.9883,0.9677,0.9716,1.0235,1.0341,1.0341,1.0312,1.0505,1.0725,1.0954,1.0992,1.0733,1.0126,1.1668,0.0,1.1624,1.3531,1.4338,1.3742,1.3779,1.3637,1.3334,1.3065,1.2881,1.2881,1.2881,1.2881,1.2881,1.2881,1.2881,1.2881,1.2978,1.2978,1.2978,1.3113,1.343,1.3894,1.4525,1.5073,1.5567,1.6207,1.6552,1.6752,1.0614,1.1178,1.1778,1.2721,1.3172,1.3581,1.4134,1.4676,1.5002,1.5009,1.4945,1.4848,1.4679,1.443,1.4222,1.4025,1.3391,1.3093,1.3368,1.0946,0.7329,0.2403,0.2182,0.2182,0.2182,0.0752,0.3292,1.0024,0.4489,0.1167,0.0,0.0,0.0,0.0045,0.1242,0.4911,1.012,0.8917,0.5147,0.0,0.0,0.0,0.0,0.0,0.0486,0.1732,0.6129,0.7695,0.7345,0.5098,0.5051,0.6031,0.6551,0.6005,0.5266,0.584,0.5596,0.5236,0.5584,0.6281,0.7231,0.8633,0.9159,0.9456,0.9897,1.0176,1.0339,1.0215,1.0283,1.0361,1.0322,1.0322,1.0283,1.0196,0.9913,0.9825,1.0118,0.0,1.0437,1.0322,1.0802,1.1282,1.1627,1.1737,1.1811,1.1884,1.258,1.296,1.2857,1.3561,1.4207,1.4835,1.4143,1.3779,1.3684,1.3152,1.2881,1.2881,1.2881,1.2978,1.3017,1.2929,1.2978,1.3065,1.3075,1.3085,1.3133,1.3286,1.3873,1.4663,1.496,1.5591,1.6349,1.6479,1.6723,1.6964,0.9366,1.028,1.1038,1.1381,1.229,1.3082,1.3359,1.4063,1.4705,1.5031,1.4448,1.4004,1.404,1.3316,1.2791,1.2704,1.2586,1.2984,1.4148,1.3622,1.2963,1.2277,1.225,1.225,1.225,0.42,0.0598,0.1825,0.7301,0.6553,0.0,0.0,0.0,0.0299,0.6987,1.054,1.1067,0.4379,0.0942,0.0,0.0,0.0,0.0,0.0,0.2705,0.6606,0.7413,0.7695,0.7559,0.6664,0.6001,0.5559,0.5508,0.5208,0.4896,0.4983,0.5164,0.5477,0.5985,0.6775,0.7696,0.8618,0.8998,0.9308,0.9862,1.0118,1.0303,1.0464,1.0544,1.0505,1.0428,1.038,1.0225,0.9716,0.9961,1.0079,0.9677,0.0,1.0753,1.0351,1.1105,1.1542,1.1169,1.1542,1.1957,1.2354,1.2867,1.3547,1.4502,1.4583,1.49,1.5443,1.4365,1.3552,1.3065,1.2978,1.2881,1.2881,1.2881,1.3152,1.3637,1.3152,1.32,1.3647,1.3258,1.3085,1.3133,1.318,1.3647,1.4305,1.4892,1.5433,1.5976,1.6491,1.6718,1.6833,0.7639,0.8204,0.8809,0.965,1.0387,1.1077,1.1737,1.2702,1.3327,1.3418,1.3468,1.3416,1.3223,1.2817,1.2574,1.2603,1.262,1.3077,1.4173,1.3982,1.409,1.4639,1.238,1.217,1.4462,0.497,0.0,0.0,0.3651,0.59,0.6698,0.2131,0.1282,0.3845,0.935,1.1805,1.1565,0.79,0.389,0.0,0.0,0.0,0.0464,0.4728,0.7408,0.8887,0.8838,0.8436,0.785,0.7348,0.6499,0.5644,0.5516,0.506,0.4672,0.5061,0.5413,0.579,0.6373,0.68,0.7356,0.8651,0.8955,0.9123,0.989,1.0471,1.0871,1.0902,1.1224,1.1409,1.1308,1.1019,1.0715,1.036,1.0099,0.0,1.0293,1.0723,1.096,1.0715,1.133,1.1579,1.1057,1.1282,1.1664,1.2102,1.2878,1.3639,1.4438,1.4646,1.4882,1.5152,1.4609,1.4014,1.3372,1.3372,1.3238,1.2881,1.2881,1.3238,1.3779,1.3505,1.3695,1.4236,1.3847,1.3678,1.3726,1.3836,1.4212,1.4731,1.5457,1.5944,1.6349,1.6663,1.7086,1.7434,0.6106,0.6463,0.6946,0.8001,0.8635,0.9329,1.0342,1.1412,1.2156,1.2269,1.2562,1.2693,1.2459,1.2126,1.1983,1.2109,1.2148,1.2537,1.3415,1.3222,1.3495,1.4479,1.1089,1.0527,1.343,0.6843,0.2256,0.0,0.238,0.6429,1.181,0.5959,0.4527,0.7002,1.0556,1.2143,1.2123,1.1882,0.8289,0.2738,0.2738,0.2738,0.3307,0.8468,1.0263,1.0008,0.9654,0.8973,0.8083,0.7443,0.666,0.5886,0.562,0.5121,0.4751,0.526,0.5673,0.6109,0.6666,0.6852,0.7194,0.8597,0.8922,0.9122,0.997,1.081,1.1392,1.1306,1.1803,1.2199,1.2031,1.1568,1.1169,1.0998,0.0,1.005,0.0,1.1127,1.1212,1.1008,1.1579,1.1726,1.1094,1.1255,1.159,1.1957,1.2737,1.3466,1.4087,1.4236,1.4462,1.4809,1.4637,1.4303,1.3843,1.395,1.3789,1.3344,1.3344,1.3647,1.4226,1.405,1.4329,1.488,1.4536,1.4351,1.4362,1.4593,1.4915,1.5379,1.6001,1.6448,1.6761,1.6973,1.7406,1.7948,0.5313,0.6075,0.6614,0.6652,0.7766,0.8919,0.9742,1.084,1.1946,1.2971,1.2187,1.1636,1.1929,1.0733,0.9963,1.0097,1.018,1.0596,1.1548,1.1513,1.2128,1.3614,1.2661,1.1592,1.0548,1.2439,0.9023,0.0,0.9519,1.2744,1.0039,1.1978,1.0866,0.7421,1.1339,1.3109,1.3041,1.2169,1.1461,1.0937,1.0937,1.0937,1.0593,0.7512,0.805,1.0299,0.9179,0.8631,0.8263,0.6925,0.6393,0.6118,0.5302,0.5221,0.5388,0.5183,0.5668,0.637,0.6773,0.731,0.7842,0.8335,0.8812,0.9356,1.0099,1.0845,1.1443,1.156,1.1942,1.2224,1.2031,1.1605,1.1223,1.0956,0.0,0.0,1.0843,1.1398,1.1542,1.1057,1.1898,1.2162,1.1282,1.17,1.2174,1.2532,1.2597,1.3062,1.4062,1.3552,1.3715,1.4876,1.4278,1.3938,1.3894,1.4383,1.4606,1.4571,1.4571,1.4869,1.5454,1.488,1.496,1.5499,1.5028,1.4858,1.4858,1.513,1.549,1.5988,1.6355,1.6625,1.6918,1.7225,1.7502,1.7787,0.4387,0.4555,0.4778,0.5517,0.6067,0.6728,0.7636,0.8863,0.9933,1.0634,1.1085,1.0936,0.986,0.9488,0.9374,0.9519,0.9886,1.0506,1.1395,1.1308,1.1607,1.2456,1.2183,1.1425,1.0175,1.1244,0.9523,0.4775,0.8669,1.0997,1.1769,1.1577,1.0963,1.0078,1.1304,1.0852,0.915,0.892,0.9351,1.0107,0.9183,1.0023,1.1542,0.9111,0.9001,1.004,0.9364,0.8745,0.8106,0.7211,0.6642,0.617,0.5416,0.5293,0.5431,0.5358,0.6247,0.7187,0.6971,0.732,0.7888,0.849,0.8887,0.9351,1.0236,1.0893,1.1487,1.2041,1.2532,1.292,1.3119,1.2649,1.2175,1.1972,0.0,1.1046,1.1802,1.1825,1.1847,1.1909,1.2282,1.2282,1.1627,1.1811,1.2138,1.2496,1.2922,1.3444,1.4085,1.3853,1.3939,1.4387,1.4487,1.4648,1.494,1.5182,1.505,1.4698,1.4698,1.5017,1.5588,1.5365,1.5599,1.6151,1.5656,1.5433,1.5478,1.5668,1.5844,1.6083,1.6625,1.6947,1.7267,1.7529,1.7922,1.8305,0.3449,0.3392,0.346,0.4252,0.4471,0.4844,0.5736,0.6901,0.7802,0.8144,0.9252,0.9535,0.8282,0.8249,0.8375,0.8504,0.8985,0.9498,0.9967,1.0075,1.0411,1.1018,1.036,0.9406,0.8184,0.9454,0.9838,0.9208,0.9388,1.0547,1.2539,1.1592,1.1299,1.1534,1.1401,0.9801,0.7199,0.7597,0.8362,0.9241,0.8365,0.9347,1.1215,1.0188,0.9866,0.9913,0.935,0.8763,0.8138,0.7444,0.6926,0.6473,0.5807,0.5515,0.5439,0.5625,0.6459,0.7246,0.6947,0.7373,0.8032,0.8711,0.912,0.9595,1.0411,1.1213,1.1939,1.247,1.3208,1.3771,1.4044,1.3454,1.2963,1.3067,1.2092,1.1641,1.2638,1.2354,1.2138,1.2496,1.2532,1.2354,1.1884,1.1909,1.2126,1.2496,1.2999,1.3472,1.3856,1.3892,1.3981,1.4109,1.4487,1.5049,1.5856,1.5867,1.5688,1.5242,1.5242,1.5466,1.5864,1.5864,1.6095,1.6466,1.6151,1.602,1.602,1.6207,1.6324,1.6429,1.6934,1.7323,1.7625,1.7882,1.8305,1.8784,0.2596,0.2854,0.2975,0.2908,0.3119,0.3547,0.4344,0.5156,0.5742,0.5933,0.6662,0.7276,0.7548,0.6988,0.6635,0.6772,0.7097,0.7125,0.6728,0.7387,0.8277,0.9327,0.722,0.5363,0.3965,0.7898,1.0804,1.2484,1.3094,1.2773,1.1638,1.3027,1.2788,1.1221,1.182,1.0624,0.8235,0.9066,0.9473,0.9644,1.0041,1.0237,1.0288,1.0207,1.02,1.0053,0.8983,0.8593,0.8455,0.7527,0.7207,0.7093,0.6502,0.5902,0.5497,0.5972,0.6149,0.6296,0.6699,0.7538,0.8403,0.8874,0.9492,1.0148,1.0681,1.1887,1.2884,1.2802,1.3866,1.4752,1.4533,1.3809,1.3408,1.4011,1.2914,1.233,1.3276,1.2896,1.2532,1.2603,1.2603,1.2413,1.1945,1.209,1.2318,1.2603,1.272,1.2978,1.3391,1.3391,1.3645,1.4205,1.4217,1.4901,1.6363,1.6443,1.6509,1.6522,1.6522,1.6522,1.6522,1.6522,1.6522,1.6522,1.6522,1.6522,1.6522,1.6791,1.696,1.7044,1.7393,1.772,1.8028,1.8226,1.863,1.9101,0.1705,0.1724,0.175,0.1835,0.2115,0.2298,0.2266,0.293,0.3428,0.3338,0.3875,0.4584,0.5473,0.5601,0.5641,0.5673,0.6451,0.7076,0.7369,0.7613,0.7635,0.7441,0.7276,0.7043,0.671,0.7852,0.9534,1.1737,1.1667,1.1699,1.1819,1.1998,1.1465,1.0362,1.0633,0.9391,0.7186,0.8941,0.9671,0.9669,0.9744,0.9986,1.0223,0.9604,0.957,0.974,0.8855,0.844,0.8255,0.7826,0.7591,0.7422,0.7048,0.6905,0.682,0.6578,0.6765,0.708,0.7253,0.7669,0.8189,0.8618,0.9579,1.0508,1.0873,1.1812,1.2632,1.2657,1.3738,1.4614,1.4458,1.449,1.4491,1.4328,1.3424,1.2926,1.3399,1.2953,1.2743,1.3173,1.3207,1.3138,1.3022,1.2965,1.3,1.3195,1.3207,1.3378,1.3735,1.3735,1.3947,1.4405,1.4789,1.5402,1.6318,1.6086,1.6494,1.7544,1.7186,1.7214,1.7626,1.7571,1.7571,1.7626,1.7626,1.7626,1.7626,1.7814,1.7948,1.8068,1.8147,1.8344,1.8592,1.8784,1.9011,1.9221,0.0771,0.0705,0.0638,0.0726,0.0908,0.0945,0.0668,0.116,0.1585,0.1715,0.2244,0.2885,0.3675,0.3947,0.4067,0.402,0.4576,0.5171,0.5717,0.5937,0.5796,0.5238,0.5963,0.6609,0.7063,0.7371,0.858,1.0766,1.0948,1.1315,1.186,1.1648,1.1018,1.0057,1.0188,0.9408,0.8107,0.9325,0.9844,0.9842,0.9694,0.9822,1.0031,0.9366,0.9275,0.9424,0.8834,0.8525,0.8383,0.8217,0.7964,0.768,0.7531,0.7441,0.7319,0.7,0.7119,0.7367,0.7415,0.7761,0.8186,0.8414,0.9475,1.0667,1.156,1.2247,1.2775,1.3092,1.3825,1.4442,1.4633,1.4743,1.4789,1.485,1.4127,1.3583,1.3735,1.3297,1.3091,1.3446,1.3459,1.3425,1.3391,1.3357,1.3425,1.3514,1.3615,1.3769,1.4032,1.4411,1.4607,1.4582,1.5383,1.6041,1.6558,1.6431,1.6903,1.8054,1.7666,1.7707,1.804,1.8028,1.8028,1.804,1.804,1.808,1.8106,1.8252,1.8383,1.85,1.8539,1.8693,1.8959,1.9087,1.9273,1.9442,-0.0067,-0.0224,-0.0338,-0.0369,-0.0389,-0.0388,-0.0439,-0.0172,0.0228,0.0802,0.1399,0.1858,0.2109,0.2203,0.2192,0.2054,0.1959,0.2136,0.2638,0.3062,0.32,0.2959,0.3755,0.4614,0.5486,0.6499,0.7895,0.974,1.0543,1.1183,1.1585,1.1586,1.1034,1.0047,1.0203,1.0234,1.0179,0.9993,0.9986,1.0075,0.9823,0.9769,0.9799,0.9463,0.9311,0.9233,0.8962,0.8825,0.8745,0.8653,0.8335,0.7977,0.7962,0.7636,0.7273,0.7289,0.7304,0.7304,0.7351,0.7804,0.8302,0.8442,0.9342,1.0655,1.2336,1.294,1.3291,1.3789,1.4091,1.4433,1.499,1.4799,1.4755,1.549,1.4892,1.4296,1.4214,1.3868,1.3648,1.3648,1.3581,1.348,1.3335,1.3493,1.3674,1.3747,1.3993,1.4176,1.4346,1.5226,1.5495,1.4902,1.6061,1.6844,1.715,1.7311,1.7702,1.8224,1.8133,1.8108,1.8147,1.8147,1.8147,1.8147,1.8147,1.8173,1.8263,1.8369,1.85,1.8616,1.8655,1.8921,1.9244,1.9244,1.9479,1.9782,-0.0504,-0.064,-0.0736,-0.0893,-0.098,-0.094,-0.0751,-0.065,-0.0505,-0.0206,-0.0045,0.0242,0.0763,0.105,0.1078,0.0748,0.0648,0.0888,0.1501,0.1653,0.1715,0.176,0.2397,0.2903,0.3198,0.5193,0.7211,0.9161,0.9107,0.9405,1.0002,0.9995,0.9835,0.9567,0.9964,1.0112,1.0057,1.0109,1.0112,1.0096,1.0041,1.001,1.0013,0.977,0.9713,0.9725,0.9502,0.9312,0.9134,0.8849,0.8665,0.8518,0.8465,0.8124,0.7794,0.8003,0.7708,0.7395,0.7811,0.7959,0.8289,0.9553,1.0077,1.047,1.1241,1.2898,1.4054,1.3371,1.4481,1.5461,1.5072,1.5743,1.6213,1.5821,1.555,1.5256,1.4925,1.4707,1.4627,1.4658,1.431,1.4032,1.4059,1.3874,1.4113,1.4998,1.4504,1.4612,1.5649,1.5938,1.6143,1.6259,1.7057,1.7703,1.8249,1.8197,1.8556,1.9288,1.8822,1.8884,1.9347,1.9176,1.9161,1.9347,1.9288,1.9273,1.9369,1.9369,1.942,1.9457,1.9457,1.9493,1.9603,1.9603,1.9823,2.028,-0.1007,-0.103,-0.1154,-0.1477,-0.1518,-0.154,-0.1512,-0.1343,-0.1169,-0.105,-0.0868,-0.0621,-0.0307,0.0137,0.0266,-0.013,-0.0127,0.0077,0.0497,0.0675,0.0808,0.0871,0.1504,0.2167,0.2774,0.419,0.5913,0.7962,0.8565,0.908,0.9463,0.9719,0.9678,0.9419,0.9725,0.9933,1.0049,1.0083,1.0116,1.0134,1.0114,1.0118,1.0148,1.0022,1.0001,0.9968,0.9803,0.9636,0.9463,0.9296,0.9109,0.8932,0.8894,0.8625,0.8351,0.8493,0.8232,0.7964,0.8227,0.8216,0.8412,0.9593,1.038,1.1102,1.1987,1.3025,1.3743,1.3594,1.4214,1.4745,1.4708,1.5436,1.5967,1.5738,1.5765,1.5709,1.5389,1.5106,1.4937,1.4937,1.4721,1.461,1.4624,1.4433,1.4699,1.5656,1.5467,1.5745,1.6767,1.7202,1.7409,1.733,1.8197,1.8653,1.8648,1.8912,1.9203,1.9611,1.9265,1.9288,1.9632,1.9523,1.9538,1.9596,1.9574,1.9596,1.969,1.969,1.969,1.969,1.969,1.969,1.9711,1.9889,2.0277,2.0797,-0.1424,-0.1423,-0.1557,-0.192,-0.1963,-0.2056,-0.2245,-0.1977,-0.1741,-0.167,-0.138,-0.1201,-0.1194,-0.0708,-0.052,-0.0797,-0.0674,-0.0488,-0.0302,-0.0026,0.0192,0.0293,0.0971,0.1831,0.2829,0.3402,0.4698,0.6785,0.8169,0.8971,0.9214,0.9669,0.9664,0.9322,0.9481,0.9719,0.9995,0.9967,1.0045,1.0139,1.0096,1.0117,1.0172,1.018,1.0155,1.0092,0.9998,0.9867,0.9755,0.974,0.955,0.9296,0.9287,0.9104,0.8863,0.8863,0.8749,0.8624,0.8534,0.8479,0.8639,0.9426,1.0527,1.1779,1.3183,1.3297,1.3293,1.3924,1.3836,1.3803,1.438,1.4866,1.5277,1.5623,1.5791,1.5869,1.5766,1.5433,1.521,1.5166,1.512,1.509,1.512,1.5098,1.5458,1.6282,1.6564,1.7003,1.7772,1.847,1.8631,1.8135,1.9166,1.9435,1.8847,1.942,1.9669,1.9611,1.9501,1.9501,1.9574,1.9574,1.9538,1.9501,1.9501,1.956,1.969,1.969,1.969,1.9726,1.9747,1.9782,1.9854,2.0243,2.0747,2.1276,-0.1501,-0.1767,-0.1962,-0.1835,-0.2108,-0.2296,-0.2139,-0.2082,-0.2029,-0.196,-0.1957,-0.1971,-0.2037,-0.175,-0.1529,-0.1391,-0.1258,-0.1046,-0.0737,-0.0617,-0.0316,0.027,0.0837,0.1389,0.1885,0.3023,0.4633,0.6702,0.6877,0.7476,0.8453,0.8526,0.8697,0.8982,0.9239,0.9437,0.9599,0.9755,0.9863,0.9938,0.9922,0.9996,1.011,1.0116,1.0116,1.0111,1.0158,1.0073,0.9953,0.9897,0.9794,0.9705,0.9651,0.9401,0.9138,0.9149,0.8967,0.8733,0.855,0.8579,0.8961,1.0207,1.0803,1.1485,1.3125,1.3764,1.3942,1.3583,1.4109,1.4638,1.4725,1.5172,1.5634,1.5893,1.5879,1.5962,1.6396,1.6258,1.616,1.627,1.5838,1.5536,1.5594,1.5734,1.6407,1.7711,1.7582,1.7802,1.8688,1.8928,1.8928,1.8602,1.9371,1.9696,1.9477,1.9566,1.9611,1.9611,1.9574,1.9538,1.9413,1.9413,1.9465,1.9501,1.9501,1.956,1.969,1.969,1.969,1.9726,2.0015,2.0139,2.0208,2.0942,2.1339,2.1507,-0.1552,-0.1665,-0.1818,-0.1937,-0.2088,-0.223,-0.2371,-0.2418,-0.243,-0.2386,-0.2355,-0.2373,-0.2526,-0.2302,-0.1989,-0.1577,-0.1327,-0.1093,-0.0878,-0.0679,-0.0336,0.0225,0.0579,0.0977,0.1473,0.2463,0.3768,0.5348,0.6305,0.705,0.7599,0.8339,0.86,0.8418,0.8954,0.9183,0.918,0.9455,0.9606,0.9676,0.9757,0.9872,0.9994,0.9992,1.0038,1.0108,1.0133,1.0129,1.0105,1.0079,0.9992,0.9899,0.9867,0.9706,0.954,0.9539,0.9349,0.9119,0.9027,0.8929,0.9095,1.008,1.0734,1.1473,1.2628,1.3548,1.4059,1.3791,1.412,1.4456,1.4456,1.4953,1.5488,1.5829,1.5962,1.6231,1.6804,1.6607,1.6421,1.6501,1.6297,1.616,1.616,1.6603,1.7136,1.7712,1.7884,1.8141,1.8668,1.8572,1.8459,1.8427,1.9012,1.9306,1.9151,1.9525,1.9669,1.9611,1.9777,1.9762,1.956,1.956,1.9581,1.9632,1.9904,2.0045,2.01,2.0379,2.0429,2.0308,2.0224,2.0361,2.0613,2.1198,2.1554,2.1823]},{"header":{"parameterUnit":"m.s-1","parameterCategory":1,"la1":30.6,"la2":28.766,"lo1":-90.7593,"lo2":-88.6598,"dy":0.0162,"dx":0.0183,"nx":116,"ny":114,"refTime":"2023-05-14T12:00:00:Z","depth":0,"parameterNumber":3,"parameterNumberName":"V-component_of_WINDS"},"data":[0.0,0.0,0.0,0.0,0.0,0.0,0.0,0.0,0.0,0.0,0.0,0.0,0.0,0.0,0.0,0.0,0.0,0.0,0.0,0.0,0.0,0.0,0.0,0.0,0.0,0.0,0.0,0.0,0.0,0.0,0.0,0.0,0.0,0.0,0.0,0.0,0.0,0.0,0.0,0.0,0.0,0.0,0.0,0.0,0.0,0.0,0.0,0.0,0.0,0.0,0.0,0.0,0.0,0.0,0.0,0.0,0.0,0.0,0.0,0.0,0.0,0.0,0.0,0.0,0.0,0.0,0.0,0.0,0.0,0.0,0.0,0.0,0.0,0.0,0.0,0.0,0.0,0.0,0.0,0.0,0.0,0.0,0.0,0.0,0.0,0.0,0.0,0.0,0.0,0.0,0.0,0.0,0.0,0.0,0.0,0.0,0.0,0.0,0.0,0.0,0.0,0.0,0.0,0.0,0.0,0.0,0.0,0.0,0.0,0.0,0.0,0.0,0.0,0.0,0.0,0.0,0.0,0.0,0.0,0.0,0.0,0.0,0.0,0.0,0.0,0.0,0.0,0.0,0.0,0.0,0.0,0.0,0.0,0.0,0.0,0.0,0.0,0.0,0.0,0.0,0.0,0.0,0.0,0.0,0.0,0.0,0.0,0.0,0.0,0.0,0.0,0.0,0.0,0.0,0.0,0.0,0.0,0.0,0.0,0.0,0.0,0.0,0.0,0.0,0.0,0.0,0.0,0.0,0.0,0.0,0.0,0.0,0.0,0.0,0.0,0.0,0.0,0.0,0.0,0.0,0.0,0.0,0.0,0.0,0.0,0.0,0.0,0.0,0.0,0.0,0.0,0.0,0.0,0.0,0.0,0.0,0.0,0.0,0.0,0.0,0.0,0.0,0.0,0.0,0.0,0.0,0.0,0.0,0.0,0.0,0.0,0.0,0.0,0.0,0.0,0.0,0.0,0.0,0.0,0.0,0.0,0.0,0.0,0.0,0.0,0.0,0.0,0.0,0.0,0.0,0.0,0.0,0.0,0.0,0.0,0.0,0.0,0.0,0.0,0.0,0.0,0.0,0.0,0.0,0.0,0.0,0.0,0.0,0.0,0.0,0.0,0.0,0.0,0.0,0.0,0.0,0.0,0.0,0.0,0.0,0.0,0.0,0.0,0.0,0.0,0.0,0.0,0.0,0.0,0.0,0.0,0.0,0.0,0.0,0.0,0.0,0.0,0.0,0.0,0.0,0.0,0.0,0.0,0.0,0.0,0.0,0.0,0.0,0.0,0.0,0.0,0.0,0.0,0.0,0.0,0.0,0.0,0.0,0.0,0.0,0.0,0.0,0.0,0.0,0.0,0.0,0.0,0.0,0.0,0.0,0.0,0.0,0.0,0.0,0.0,0.0,0.0,0.0,0.0,0.0,0.0,0.0,0.0,0.0,0.0,0.0,0.0,0.0,0.0,0.0,0.0,0.0,0.0,0.0,0.0,0.0,0.0,0.0,0.0,0.0,0.0,0.0,0.0,0.0,0.0,0.0,0.0,0.0,0.0,0.0,0.0,0.0,0.0,0.0,0.0,0.0,0.0,0.0,0.0,0.0,0.0,0.0,0.0,0.0,0.0,0.0,0.0,0.0,0.0,0.0,0.0,0.0,0.0,0.0,0.0,0.0,0.0,0.0,0.0,0.0,0.0,0.0,0.0,0.0,0.0,0.0,0.0,0.0,0.0,0.0,0.0,0.0,0.0,0.0,0.0,0.0,0.0,0.0,0.0,0.0,0.0,0.0,0.0,0.0,0.0,0.0,0.0,0.0,0.0,0.0,0.0,0.0,0.0,0.0,0.0,0.0,0.0,0.0,0.0,0.0,0.0,0.0,0.0,0.0,0.0,0.0,0.0,0.0,0.0,0.0,0.0,0.0,0.0,0.0,0.0,0.0,0.0,0.0,0.0,0.0,0.0,0.0,0.0,0.0,0.0,0.0,0.0,0.0,0.0,0.0,0.0,0.0,0.0,0.0,0.0,0.0,0.0,0.0,0.0,0.0,0.0,0.0,0.0,0.0,0.0,0.0,0.0,0.0,0.0,0.0,0.0,0.0,0.0,0.0,0.0,0.0,0.0,0.0,0.0,0.0,0.0,0.0,0.0,0.0,0.0,0.0,0.0,0.0,0.0,0.0,0.0,0.0,0.0,0.0,0.0,0.0,0.0,0.0,0.0,0.0,0.0,0.0,0.0,0.0,0.0,0.0,0.0,0.0,0.0,0.0,0.0,0.0,0.0,0.0,0.0,0.0,0.0,0.0,0.0,0.0,0.0,0.0,0.0,0.0,0.0,0.0,0.0,0.0,0.0,0.0,0.0,0.0,0.0,0.0,0.0,0.0,0.0,0.0,0.0,0.0,0.0,0.0,0.0,0.0,0.0,0.0,0.0,0.0,0.0,0.0,0.0,0.0,0.0,0.0,0.0,0.0,0.0,0.0,0.0,0.0,0.0,0.0,0.0,0.0,0.0,0.0,0.0,0.0,0.0,0.0,0.0,0.0,0.0,0.0,0.0,0.0,0.0,0.0,0.0,0.0,0.0,0.0,0.0,0.0,0.0,0.0,0.0,0.0,0.0,0.0,0.0,0.0,0.0,0.0,0.0,0.0,0.0,0.0,0.0,0.0,0.0,0.0,0.0,0.0,0.0,0.0,0.0,0.0,0.0,0.0,0.0,0.0,0.0,0.0,0.0,0.0,0.0,0.0,0.0,0.0,0.0,0.0,0.0,0.0,0.0,0.0,0.0,0.0,0.0,0.0,0.0,0.0,0.0,0.0,0.0,0.0,0.0,0.0,0.0,0.0,0.0,0.0,0.0,0.0,0.0,0.0,0.0,0.0,0.0,0.0,0.0,0.0,0.0,0.0,0.0,0.0,0.0,0.0,0.0,0.0,0.0,0.0,0.0,0.0,0.0,0.0,0.0,0.0,0.0,0.0,0.0,0.0,0.0,0.0,0.0,0.0,0.0,0.0,0.0,0.0,0.0,0.0,0.0,0.0,0.0,0.0,0.0,0.0,0.0,0.0,0.0,0.0,0.0,0.0,0.0,0.0,0.0,0.0,0.0,0.0,0.0,0.0,0.0,0.0,0.0,0.0,0.0,0.0,0.0,0.0,0.0,0.0,0.0,0.0,0.0,0.0,0.0,0.0,0.0,0.0,0.0,0.0,0.0,0.0,0.0,0.0,0.0,0.0,0.0,0.0,0.0,0.0,0.0,0.0,0.0,0.0,0.0,0.0,0.0,0.0,0.0,0.0,0.0,0.0,0.0,0.0,0.0,0.0,0.0,0.0,0.0,0.0,0.0,0.0,0.0,0.0,0.0,0.0,0.0,0.0,0.0,0.0,0.0,0.0,0.0,0.0,0.0,0.0,0.0,0.0,0.0,0.0,0.0,0.0,0.0,0.0,0.0,0.0,0.0,0.0,0.0,0.0,0.0,0.0,0.0,0.0,0.0,0.0,0.0,0.0,0.0,0.0,0.0,0.0,0.0,0.0,0.0,0.0,0.0,0.0,0.0,0.0,0.0,0.0,0.0,0.0,0.0,0.0,0.0,0.0,0.0,0.0,0.0,0.0,0.0,0.0,0.0,0.0,0.0,0.0,0.0,0.0,0.0,0.0,0.0,0.0,0.0,0.0,0.0,0.0,0.0,0.0,0.0,0.0,0.0,0.0,0.0,0.0,0.0,0.0,0.0,0.0,0.0,0.0,0.0,0.0,0.0,0.0,0.0,0.0,0.0,0.0,0.0,0.0,0.0,0.0,0.0,0.0,0.0,0.0,0.0,0.0,0.0,0.0,0.0,0.0,0.0,0.0,0.0,0.0,0.0,0.0,0.0,0.0,0.0,0.0,0.0,0.0,0.0,0.0,0.0,0.0,0.0,0.0,0.0,0.0,0.0,0.0,0.0,0.0,0.0,0.0,0.0,0.0,0.0,0.0,0.0,0.0,0.0,0.0,0.0,0.0,0.0,0.0,0.0,0.0,0.0,0.0,0.0,0.0,0.0,0.0,0.0,0.0,0.0,0.0,0.0,0.0,0.0,0.0,0.0,0.0,0.0,0.0,0.0,0.0,0.0,0.0,0.0,0.0,0.0,0.0,0.0,0.0,0.0,0.0,0.0,0.0,0.0,0.0,0.0,0.0,0.0,0.0,0.0,0.0,0.0,0.0,0.0,0.0,0.0,0.0,0.0,0.0,0.0,0.0,0.0,0.0,0.0,0.0,0.0,0.0,0.0,0.0,0.0,0.0,0.0,0.0,0.0,0.0,0.0,0.0,0.0,0.0,0.0,0.0,0.0,0.0,0.0,0.0,0.0,0.0,0.0,0.0,0.0,0.0,0.0,0.0,0.0,0.0,0.0,0.0,0.0,0.0,0.0,0.0,0.0,0.0,0.0,0.0,0.0,0.0,0.0,0.0,0.0,0.0,0.0,0.0,0.0,0.0,0.0,0.0,0.0,0.0,0.0,0.0,0.0,0.0,0.0,0.0,0.0,0.0,0.0,0.0,0.0,0.0,0.0,0.0,0.0,0.0,0.0,0.0,0.0,0.0,0.0,0.0,0.0,0.0,0.0,0.0,0.0,0.0,0.0,0.0,0.0,0.0,0.0,0.0,0.0,0.0,0.0,0.0,0.0,0.0,0.0,0.0,0.0,0.0,0.0,0.0,0.0,0.0,0.0,0.0,0.0,0.0,0.0,0.0,0.0,0.0,0.0,0.0,0.0,0.0,0.0,0.0,0.0,0.0,0.0,0.0,0.0,0.0,0.0,0.0,0.0,0.0,0.0,0.0,0.0,0.0,0.0,0.0,0.0,0.0,0.0,0.0,0.0,0.0,0.0,0.0,0.0,0.0,0.0,0.0,0.0,0.0,0.0,0.0,0.0,0.0,0.0,0.0,0.0,0.0,0.0,0.0,0.0,0.0,0.0,0.0,0.0,0.0,0.0,0.0,0.0,0.0,0.0,0.0,0.0,0.0,0.0,0.0,0.0,0.0,0.0,0.0,0.0,0.0,0.0,0.0,0.0,0.0,0.0,0.0,0.0,0.0,0.0,0.0,0.0,0.0,0.0,0.0,0.0,0.0,0.0,0.0,0.0,0.0,0.0,0.0,0.0,0.0,0.0,0.0,0.0,0.0,0.0,0.0,0.0,0.0,0.0,0.0,0.0,0.0,0.0,0.0,0.0,0.0,0.0,0.0,0.0,0.0,0.0,0.0,0.0,0.0,0.0,0.0,0.0,0.0,0.0,0.0,0.0,0.0,0.0,0.0,0.0,0.0,0.0,0.0,0.0,0.0,0.0,0.0,0.0,0.0,0.0,0.0,0.0,0.0,0.0,0.0,0.0,0.0,0.0,0.0,0.0,0.0,0.0,0.0,0.0,0.0,0.0,0.0,0.0,0.0,0.0,0.0,0.0,0.0,0.0,0.0,0.0,0.0,0.0,0.0,0.0,0.0,0.0,0.0,0.0,0.0,0.0,0.0,0.0,0.0,0.0,0.0,0.0,0.0,0.0,0.0,0.0,0.0,0.0,0.0,0.0,0.0,0.0,0.0,0.0,0.0,0.0,0.0,0.0,0.0,0.0,0.0,0.0,0.0,0.0,0.0,0.0,0.0,0.0,0.0,0.0,0.0,0.0,0.0,0.0,0.0,0.0,0.0,0.0,0.0,0.0,0.0,0.0,0.0,0.0,0.0,0.0,0.0,0.0,0.0,0.0,0.0,0.0,0.0,0.0,0.0,0.0,0.0,0.0,0.0,0.0,0.0,0.0,0.0,0.0,0.0,0.0,0.0,0.0,0.0,0.0,0.0,0.0,0.0,0.0,0.0,0.0,0.0,0.0,0.0,0.0,0.0,0.0,0.0,0.0,0.0,0.0,0.0,0.0,0.0,0.0,0.0,0.0,0.0,0.0,0.0,0.0,0.0,0.0,0.0,0.0,0.0,0.0,0.0,0.0,0.0,0.0,0.0,0.0,0.0,0.0,0.0,0.0,0.0,0.0,0.0,0.0,0.0,0.0,0.0,0.0,0.0,0.0,0.0,0.0,0.0,0.0,0.0,0.0,0.0,0.0,0.0,0.0,0.0,-1.3192,0.0,0.0,0.0,0.0,0.0,0.0,0.0,0.0,0.0,0.0,0.0,0.0,0.0,0.0,0.0,0.0,0.0,0.0,0.0,0.0,0.0,0.0,0.0,0.0,0.0,0.0,0.0,0.0,0.0,0.0,0.0,0.0,0.0,0.0,0.0,0.0,0.0,0.0,0.0,-1.6007,-1.586,-1.5996,-1.6596,-1.6521,-1.5893,0.0,0.0,0.0,0.0,0.0,0.0,0.0,0.0,0.0,0.0,0.0,0.0,0.0,0.0,0.0,0.0,0.0,0.0,0.0,0.0,0.0,0.0,0.0,0.0,0.0,0.0,0.0,0.0,0.0,0.0,0.0,0.0,0.0,0.0,0.0,0.0,0.0,0.0,0.0,0.0,0.0,0.0,0.0,0.0,0.0,0.0,0.0,0.0,0.0,0.0,0.0,0.0,0.0,0.0,0.0,0.0,0.0,0.0,0.0,0.0,0.0,0.0,0.0,0.0,0.0,0.0,0.0,0.0,0.0,0.0,0.0,-1.3583,0.0,0.0,0.0,0.0,0.0,0.0,0.0,0.0,0.0,0.0,0.0,0.0,0.0,0.0,0.0,0.0,0.0,0.0,0.0,0.0,0.0,0.0,0.0,-1.5329,-1.5489,-1.5472,-1.5584,-1.5573,0.0,0.0,0.0,0.0,0.0,0.0,0.0,-1.6214,-1.6574,-1.6667,-1.6276,-1.6416,-1.702,-1.7769,-1.7569,-1.6526,-1.5894,0.0,0.0,0.0,0.0,0.0,0.0,0.0,0.0,0.0,0.0,0.0,0.0,0.0,0.0,0.0,0.0,0.0,0.0,0.0,0.0,0.0,0.0,0.0,0.0,0.0,0.0,0.0,0.0,0.0,0.0,0.0,0.0,0.0,0.0,0.0,0.0,0.0,0.0,0.0,0.0,0.0,0.0,0.0,0.0,0.0,0.0,0.0,0.0,0.0,0.0,0.0,0.0,0.0,0.0,0.0,0.0,0.0,0.0,0.0,0.0,0.0,0.0,0.0,-1.6335,-1.7115,-1.6742,-1.8403,-1.9003,-1.8614,-1.6231,-1.5525,-1.6157,-1.7897,0.0,0.0,0.0,0.0,0.0,0.0,0.0,0.0,0.0,0.0,0.0,0.0,0.0,0.0,0.0,0.0,0.0,0.0,0.0,0.0,0.0,-1.6029,-1.6399,-1.6959,-1.7221,-1.729,-1.7093,0.0,0.0,0.0,0.0,0.0,-1.7368,-1.7405,-1.7382,-1.7283,-1.7567,-1.8279,-1.9432,-1.9667,-1.9528,-1.9052,-1.7311,-1.6765,-1.7067,0.0,0.0,0.0,0.0,0.0,0.0,0.0,0.0,0.0,0.0,0.0,0.0,0.0,0.0,0.0,0.0,0.0,0.0,0.0,0.0,0.0,0.0,0.0,0.0,0.0,0.0,0.0,0.0,0.0,0.0,0.0,0.0,0.0,0.0,0.0,0.0,0.0,0.0,0.0,0.0,0.0,-1.3362,-1.2998,0.0,0.0,0.0,0.0,0.0,0.0,0.0,0.0,0.0,0.0,0.0,0.0,0.0,-1.4471,-1.5008,-1.6163,-1.6972,-1.742,-1.875,-1.9808,-2.0575,-2.0829,-2.1076,-2.126,-2.037,0.0,-1.7645,-1.7248,0.0,0.0,0.0,0.0,0.0,0.0,0.0,0.0,0.0,0.0,0.0,0.0,0.0,0.0,0.0,0.0,0.0,0.0,0.0,0.0,0.0,-1.7465,-1.7952,-1.8188,-1.8746,-1.8839,-1.8236,-1.8275,0.0,0.0,0.0,-1.772,-1.7754,-1.7617,-1.7606,-1.7742,-1.9235,-1.9841,-1.9633,-2.0094,-2.0253,-2.0026,-1.8601,-1.7803,-1.7473,-1.5879,0.0,0.0,0.0,0.0,0.0,0.0,0.0,0.0,0.0,0.0,0.0,0.0,0.0,0.0,0.0,0.0,0.0,0.0,0.0,0.0,0.0,0.0,0.0,0.0,0.0,0.0,0.0,0.0,0.0,0.0,0.0,0.0,0.0,0.0,0.0,0.0,0.0,0.0,0.0,-1.4952,-1.4709,-1.4161,-1.4275,-1.4207,0.0,0.0,0.0,0.0,0.0,0.0,0.0,0.0,0.0,-1.512,-1.5698,-1.6114,-1.6393,-1.721,-1.7775,-1.8137,-1.9536,-2.0526,-2.1173,-2.2182,-2.2725,-2.2824,-2.2096,-2.1238,-2.0228,-1.9436,-1.9563,-2.0176,0.0,0.0,0.0,0.0,-1.8512,-1.8665,0.0,0.0,0.0,0.0,0.0,0.0,0.0,0.0,0.0,0.0,0.0,0.0,-1.7925,-1.868,-1.9277,-1.9746,-2.0259,-2.0308,-1.9788,-1.9611,-1.955,0.0,-1.8995,-1.8664,-1.8679,-1.8448,-1.8643,-1.9323,-2.0753,-2.1181,-2.0678,-2.1231,-2.1464,-2.1326,-2.0556,-1.96,-1.8486,-1.6499,-1.5494,-1.513,0.0,0.0,0.0,0.0,0.0,0.0,0.0,0.0,0.0,0.0,0.0,0.0,0.0,0.0,0.0,0.0,0.0,0.0,0.0,0.0,0.0,0.0,0.0,0.0,0.0,0.0,0.0,0.0,0.0,0.0,0.0,0.0,0.0,0.0,0.0,0.0,0.0,-1.5829,-1.5853,-1.5324,-1.5702,-1.5772,0.0,0.0,0.0,0.0,0.0,0.0,-1.5891,-1.6206,-1.648,-1.673,-1.7489,-1.8011,-1.8285,-1.8579,-1.8815,-1.9027,-2.0458,-2.1201,-2.1339,-2.2999,-2.3697,-2.353,-2.2847,-2.2447,-2.2166,-2.1267,-2.108,-2.131,-2.0255,-2.0281,-2.0744,-1.96,-1.9348,-1.9602,0.0,0.0,0.0,0.0,0.0,0.0,0.0,0.0,0.0,0.0,0.0,-1.6178,-1.9348,-1.9288,-1.9872,-2.2032,-2.1735,-2.1686,-2.2277,-2.1655,-2.1306,-2.1366,-2.1333,-2.1228,-2.1021,-2.0714,-2.132,-2.2935,-2.1834,-2.2246,-2.407,-2.4155,-2.404,-2.3725,-2.3727,-2.2729,-2.0875,-1.8481,-1.7565,-1.7609,-1.6413,0.0,0.0,0.0,0.0,0.0,0.0,0.0,0.0,0.0,0.0,0.0,0.0,0.0,0.0,0.0,0.0,0.0,0.0,0.0,0.0,0.0,0.0,0.0,0.0,0.0,0.0,0.0,0.0,0.0,0.0,0.0,0.0,0.0,0.0,0.0,0.0,0.0,0.0,-1.5941,-1.6648,0.0,0.0,0.0,0.0,-1.8748,-1.7745,-1.768,-1.9167,-1.8573,-1.8683,-1.9827,-1.9934,-2.045,-2.1446,-2.15,-2.1371,-2.1146,-2.2382,-2.2622,-2.209,-2.334,-2.3649,-2.3212,-2.2863,-2.2677,-2.2573,-2.1318,-2.0969,-2.1145,-2.0531,-2.1054,-2.2033,-2.0501,-2.0433,-2.0991,0.0,0.0,0.0,0.0,0.0,0.0,0.0,0.0,-1.5994,-1.6255,-1.7359,-1.8836,-2.0692,-2.161,-2.2473,-2.3411,-2.3308,-2.3051,-2.2715,-2.1928,-2.1473,-2.1501,-2.15,-2.14,-2.1138,-2.1397,-2.1796,-2.2297,-2.3136,-2.3812,-2.43,-2.4629,-2.4729,-2.4607,-2.4396,-2.4059,-2.344,-2.0416,-1.8932,-1.8488,-1.702,-1.6198,0.0,0.0,0.0,0.0,0.0,0.0,0.0,0.0,0.0,0.0,0.0,0.0,0.0,0.0,0.0,0.0,0.0,0.0,0.0,0.0,0.0,0.0,0.0,0.0,0.0,0.0,0.0,0.0,0.0,0.0,0.0,0.0,0.0,0.0,0.0,0.0,0.0,-1.8962,-1.9925,0.0,-1.975,-1.9211,-1.9709,-2.1585,-2.0447,-2.0264,-2.1695,-2.1452,-2.1254,-2.1278,-2.1568,-2.1754,-2.1695,-2.1695,-2.1639,-2.1576,-2.2245,-2.2639,-2.2769,-2.3194,-2.3595,-2.3937,-2.3067,-2.2755,-2.2773,-2.2065,-2.1928,-2.2082,-2.1233,-2.1268,-2.1764,-2.1028,-2.095,-2.1228,0.0,0.0,0.0,0.0,0.0,0.0,0.0,0.0,-1.6394,-1.6399,-1.8219,-1.9954,-2.1206,-2.249,-2.3557,-2.4266,-2.3818,-2.339,-2.3153,-2.2313,-2.1877,-2.1932,-2.2084,-2.1949,-2.1487,-2.2565,-2.3047,-2.2811,-2.4311,-2.5006,-2.4909,-2.5258,-2.549,-2.5558,-2.5227,-2.5257,-2.539,-2.2668,-2.0848,-1.9653,-1.8612,-1.8034,-1.7717,0.0,0.0,0.0,0.0,0.0,0.0,0.0,0.0,0.0,0.0,0.0,0.0,0.0,0.0,0.0,0.0,0.0,0.0,0.0,0.0,0.0,0.0,0.0,0.0,0.0,0.0,0.0,0.0,0.0,0.0,0.0,0.0,0.0,0.0,0.0,-2.1469,-2.1775,-2.2716,-2.3257,-2.302,-2.2432,-2.2817,-2.4611,-2.3463,-2.3229,-2.4447,-2.4075,-2.3718,-2.3465,-2.3372,-2.3173,-2.2739,-2.254,-2.2395,-2.2352,-2.2902,-2.3201,-2.3381,-2.3457,-2.3816,-2.4391,-2.3437,-2.3192,-2.3416,-2.2881,-2.2773,-2.2846,-2.1929,-2.1693,-2.1799,-2.1657,-2.1566,-2.1634,0.0,0.0,0.0,0.0,0.0,0.0,0.0,-1.5888,-1.6395,-1.6265,-1.7738,-1.9387,-2.0891,-2.1781,-2.2943,-2.4639,-2.3243,-2.2704,-2.3717,-2.2933,-2.2537,-2.2827,-2.3226,-2.3093,-2.2288,-2.4325,-2.5202,-2.4792,-2.5298,-2.5752,-2.6139,-2.6217,-2.6423,-2.6725,-2.6394,-2.6423,-2.6609,-2.5202,-2.3354,-2.1373,-2.1343,-2.0489,-1.9206,0.0,0.0,0.0,0.0,0.0,0.0,0.0,0.0,0.0,0.0,0.0,0.0,0.0,0.0,0.0,0.0,0.0,0.0,0.0,0.0,0.0,0.0,0.0,0.0,0.0,0.0,0.0,0.0,0.0,0.0,0.0,0.0,0.0,-2.2171,-2.241,-2.3113,-2.4224,-2.4813,-2.5429,-2.6159,-2.5925,-2.6287,-2.7709,-2.6846,-2.6604,-2.7469,-2.6375,-2.5986,-2.651,-2.5348,-2.4732,-2.4807,-2.4189,-2.3804,-2.3701,-2.4453,-2.4521,-2.4001,-2.4142,-2.4341,-2.4495,-2.395,-2.4015,-2.4441,-2.3731,-2.3427,-2.3359,-2.2598,-2.231,-2.231,-2.231,-2.2327,-2.2344,0.0,0.0,0.0,0.0,0.0,0.0,0.0,-1.6353,-1.7229,-1.7094,-1.9454,-2.1373,-2.1896,-2.3086,-2.4117,-2.4752,-2.2741,-2.2079,-2.3625,-2.1818,-2.1519,-2.3362,-2.2785,-2.2867,-2.3859,-2.4875,-2.5202,-2.4792,-2.5841,-2.6549,-2.6916,-2.7228,-2.7418,-2.7485,-2.7402,-2.7111,-2.6713,-2.6859,-2.6234,-2.4983,-2.288,-2.1513,-2.0717,0.0,0.0,0.0,0.0,0.0,0.0,0.0,0.0,0.0,0.0,0.0,0.0,0.0,0.0,0.0,0.0,0.0,0.0,0.0,0.0,0.0,0.0,0.0,0.0,0.0,0.0,0.0,0.0,0.0,0.0,0.0,0.0,-2.5729,-2.4597,-2.5976,-2.7332,-2.8038,-2.8022,-2.8269,-2.9062,-2.8523,-2.875,-3.0282,-2.9713,-2.9488,-2.9888,-2.9221,-2.8343,-2.7391,-2.7024,-2.6428,-2.5515,-2.5425,-2.5481,-2.5683,-2.5207,-2.5227,-2.5735,-2.4675,-2.4645,-2.533,-2.4607,-2.434,-2.4411,-2.4262,-2.4048,-2.3664,-2.2668,-2.231,-2.231,-2.231,-2.2649,-2.3173,0.0,0.0,0.0,0.0,0.0,0.0,0.0,-1.6804,-1.7472,-1.6997,-1.9974,-2.1877,-2.1207,-2.2784,-2.3778,-2.3553,-2.2585,-2.2144,-2.2501,-2.1882,-2.2288,-2.3998,-2.3733,-2.3998,-2.4945,-2.5731,-2.5968,-2.5586,-2.6513,-2.7118,-2.745,-2.7674,-2.8047,-2.8493,-2.8369,-2.815,-2.7896,-2.8166,-2.8061,-2.7503,-2.5795,-2.4689,-2.396,-2.2708,-2.2522,-2.265,-2.0928,-2.0621,-2.0771,-1.9052,0.0,0.0,0.0,0.0,0.0,0.0,0.0,0.0,0.0,0.0,0.0,0.0,0.0,0.0,0.0,0.0,0.0,0.0,0.0,0.0,0.0,0.0,0.0,0.0,-2.8137,-2.9829,-2.9981,-3.015,-3.0509,-3.1158,-3.0638,-3.0566,-3.1338,-3.0912,-3.1013,-3.2054,-3.1852,-3.16,-3.1578,-3.0808,-2.998,-2.9134,-2.8215,-2.7514,-2.7121,-2.6396,-2.6525,-2.7345,-2.6365,-2.6188,-2.6765,-2.55,-2.5276,-2.5844,-2.5161,-2.4962,-2.5112,-2.4991,-2.4628,0.0,0.0,0.0,0.0,0.0,-2.2862,-2.3403,0.0,0.0,0.0,0.0,0.0,0.0,0.0,-1.7189,-1.7397,-1.6548,-1.9652,-2.1305,-1.9555,-2.1297,-2.2443,-2.199,-2.2473,-2.2297,-2.111,-2.262,-2.39,-2.4683,-2.54,-2.5778,-2.5709,-2.6777,-2.7143,-2.671,-2.7103,-2.753,-2.796,-2.796,-2.8544,-2.9558,-2.9257,-2.9276,-2.9541,-2.9343,-2.9316,-2.9364,-2.9448,-2.8805,-2.7604,-2.5751,-2.5436,-2.5733,-2.3808,-2.2912,-2.2486,-2.1505,0.0,0.0,0.0,0.0,0.0,0.0,0.0,0.0,0.0,0.0,0.0,0.0,0.0,0.0,0.0,0.0,0.0,0.0,0.0,0.0,0.0,0.0,0.0,0.0,-3.2468,-3.4906,-3.6757,-3.4901,-3.3523,-3.3923,-3.2878,-3.2443,-3.3262,-3.2902,-3.2828,-3.3288,-3.3284,-3.3075,-3.2616,0.0,0.0,0.0,0.0,-2.8375,-2.9,-2.7438,-2.7338,-2.8753,-2.7802,-2.7365,-2.7354,-2.6551,-2.6205,-2.6191,-2.5875,-2.5863,-2.6063,-2.5899,-2.5309,-2.445,-2.3697,-2.3392,-2.3362,-2.3089,-2.3177,-2.3458,0.0,0.0,0.0,0.0,0.0,0.0,0.0,-1.7234,-1.7664,-1.7311,-1.9116,-1.9939,-1.8664,-1.9518,-2.0894,-2.269,-2.1283,-2.0766,-2.1874,-2.2779,-2.3917,-2.5342,-2.6061,-2.6426,-2.6418,-2.7562,-2.7699,-2.671,-2.7103,-2.7805,-2.8755,-2.8755,-2.918,-2.9983,-2.9926,-2.9909,-3.0017,-3.0552,-3.1106,-3.1698,-3.2307,-3.0649,-2.7739,-2.7368,-2.6945,-2.6402,-2.5416,-2.5205,-2.5234,-2.391,-2.3774,-2.3915,-2.2539,-2.1814,0.0,0.0,0.0,0.0,0.0,0.0,0.0,0.0,0.0,0.0,0.0,0.0,0.0,0.0,0.0,0.0,0.0,0.0,0.0,-3.368,-3.6799,-3.9353,-4.0581,-4.0293,-3.9191,-3.7069,-3.523,-3.4446,-3.5275,-3.3867,-3.3226,-3.3932,-3.3805,-3.3494,-3.3075,-3.2616,-3.2022,-3.1278,-3.0587,-3.0062,-2.9691,-2.9491,-2.9623,-3.0199,0.0,0.0,-2.8584,-2.8168,-2.7564,-2.686,-2.7483,-2.7046,-2.5998,-2.6863,-2.6416,-2.5067,-2.3807,-2.3323,-2.3388,-2.3905,-2.4142,-2.4265,0.0,0.0,0.0,0.0,0.0,0.0,0.0,-1.7534,-1.7924,-1.8262,-1.9999,-2.0804,-1.9754,-2.0603,-2.1576,-2.2387,-2.144,-2.1883,-2.4447,-2.4448,-2.5042,-2.6628,-2.7408,-2.7989,-2.8393,-2.8989,-2.9027,-2.8452,-2.8241,-2.8612,-2.955,-2.955,-3.0142,-3.119,-3.119,-3.141,-3.1816,-3.2544,-3.3051,-3.3457,-3.4201,-3.3169,-3.1038,-2.9922,-2.9279,-2.8805,-2.7689,-2.7074,-2.6653,-2.5946,-2.589,-2.5964,-2.485,-2.423,-2.3879,0.0,0.0,0.0,0.0,0.0,0.0,0.0,0.0,0.0,0.0,0.0,0.0,0.0,0.0,-2.7491,0.0,0.0,-3.476,-3.7603,-3.9605,-4.1187,-4.2283,-4.2085,-4.113,-3.9265,-3.7716,-3.6787,-3.6749,-3.5352,-3.4617,-3.503,-3.4394,-3.3899,-3.3723,-3.3207,-3.2681,-3.2074,-3.1405,-3.0977,-3.0851,-3.0327,-3.0427,-3.1089,-3.0323,-2.9755,-2.9334,-2.9143,-2.8464,-2.7426,-2.781,-2.7397,-2.6472,-2.6851,-2.6693,-2.607,-2.4808,-2.4008,-2.3585,-2.3973,-2.4227,-2.4382,0.0,0.0,0.0,0.0,0.0,0.0,0.0,-1.7594,-1.7888,-1.8761,-2.0425,-2.1223,-2.0435,-2.1323,-2.1835,-2.152,-2.1958,-2.3454,-2.6359,-2.5871,-2.6236,-2.7952,-2.8815,-2.9622,-3.0411,-3.0263,-3.0198,-3.0198,-2.9386,-2.9448,-3.0311,-3.0311,-3.1106,-3.251,-3.2645,-3.3136,-3.3897,-3.4624,-3.503,-3.5199,-3.5825,-3.5707,-3.4928,-3.2848,-3.1782,-3.1224,-2.9888,-2.8493,-2.7255,-2.7272,-2.7187,-2.6935,-2.6343,-2.607,-2.5901,-2.5508,-2.4316,0.0,0.0,0.0,0.0,0.0,0.0,0.0,0.0,0.0,-2.6811,-2.8546,-3.0018,-3.1915,-3.4964,-3.6362,-3.8052,-4.1067,-4.193,-4.2545,-4.3453,-4.2874,-4.2008,-4.1104,-3.9802,-3.8703,-3.7997,-3.6843,-3.6151,-3.6231,-3.5071,-3.4389,-3.4442,-3.368,-3.3124,-3.289,-3.1969,-3.1625,-3.1893,-3.0931,-3.0851,-3.1617,-3.1201,-3.0645,-3.0017,-2.9995,-2.933,-2.8192,-2.7906,-2.7578,-2.7212,-2.6622,-2.6665,-2.6961,-2.5926,-2.5025,-2.4312,-2.4116,-2.4269,-2.4506,0.0,0.0,0.0,0.0,0.0,0.0,0.0,0.0,-1.7058,-1.7913,-1.8247,-1.8321,-1.8086,-1.82,-1.8866,-2.0264,-2.2021,-2.3595,-2.4874,-2.5252,-2.645,-2.8778,-2.9641,-3.0448,-3.1237,-3.0578,-3.0198,-3.0198,-2.9386,-2.9702,-3.1072,-3.1072,-3.185,-3.3322,-3.3964,-3.4658,-3.5419,-3.6197,-3.6907,-3.7533,-3.7618,-3.7601,-3.7347,-3.574,-3.3897,-3.2053,-3.1241,-2.931,-2.7115,-2.7178,-2.675,-2.6141,-2.6051,-2.6443,-2.6971,-2.7087,-2.6146,-2.5122,-2.5356,-2.4098,-2.3378,-2.6098,-2.6244,-2.6753,0.0,0.0,-3.2579,-3.4308,-3.5917,-3.7544,-3.9242,-4.0845,-4.2354,-4.3692,-4.4591,-4.5164,-4.5297,-4.4664,-4.3857,-4.2912,-4.0704,-3.9208,-3.9112,-3.7814,-3.7084,-3.7375,-3.5861,-3.5024,-3.5323,-3.4046,-3.3291,-3.3262,-3.2553,-3.2197,-3.2249,-3.1839,-3.1671,-3.18,-3.1709,-3.1359,-3.078,-3.1181,-3.0763,-2.9583,-2.8526,-2.8135,-2.8136,-2.6933,-2.6779,-2.7303,-2.6579,-2.6224,-2.6053,-2.5361,-2.5176,-2.5302,0.0,0.0,0.0,0.0,0.0,0.0,0.0,0.0,0.0,-1.7832,-1.8294,-1.8685,-1.9054,-1.9834,-2.0598,-2.1259,-2.1998,-2.3042,-2.4422,-2.5058,-2.6264,-2.8227,-2.9531,-3.0478,-3.1056,-3.0916,-3.0923,-3.1148,-3.0546,-3.0801,-3.1833,-3.1833,-3.2848,-3.4709,-3.5013,-3.5825,-3.6992,-3.7753,-3.8244,-3.8582,-3.9005,-3.8667,-3.7787,-3.6705,-3.5026,-3.3106,-3.2701,-3.0672,0.0,-2.8522,-2.8236,-2.7669,-2.7194,-2.7296,-2.7677,-2.8222,-2.7161,-2.5762,-2.5581,-2.6301,-2.7412,0.0,-2.9585,-3.0997,-3.3646,-3.4835,-3.5873,-3.7627,-3.9274,-4.0769,-4.2042,-4.3288,-4.4244,0.0,-4.5246,-4.5413,-4.4913,-4.4182,-4.3162,-4.1739,-4.0219,-3.9296,-3.9296,-3.7814,-3.6927,-3.7079,-3.5679,-3.4899,-3.5033,-3.4127,-3.3494,-3.3321,-3.3032,-3.2781,-3.2586,-3.2249,-3.2091,-3.2091,-3.1893,-3.1671,-3.1432,-3.1542,-3.1162,-3.0369,-2.9251,-2.8821,-2.881,-2.8,-2.7813,-2.7919,-2.7242,-2.698,-2.6888,-2.6195,-2.5949,-2.6026,0.0,0.0,0.0,0.0,0.0,0.0,0.0,0.0,0.0,0.0,-1.8521,-1.9208,-2.0003,-2.1029,-2.1625,-2.1537,-2.1638,-2.2273,-2.3664,-2.4642,-2.5852,-2.7402,-2.9017,-3.0124,-3.0604,-3.1208,-3.155,-3.1673,-3.1479,-3.1703,-3.2313,-3.2493,-3.3558,-3.5334,-3.5757,-3.6671,-3.7956,-3.8684,-3.8988,-3.9039,-3.9563,-3.8903,-3.7516,-3.6847,-3.5215,-3.3171,-3.2842,-3.1018,-2.8785,-2.8912,-2.8718,-2.8342,-2.7981,-2.8138,-2.8576,-2.9166,-2.8238,-2.6968,-2.6851,-2.8686,0.0,-3.1311,-3.2976,-3.485,-3.6257,-3.7575,-3.8933,-4.052,-4.1977,-4.3145,-4.3824,-4.4648,-4.5166,-4.4916,-4.5285,-4.5297,-4.4412,-4.3429,-4.2236,-4.0681,-3.9407,-3.8618,-3.8584,-3.7498,-3.6837,-3.6938,-3.5589,-3.482,-3.4929,-3.4216,-3.3707,-3.3465,-3.335,-3.3214,-3.3014,-3.2651,-3.2453,-3.2486,-3.2266,-3.2073,-3.1948,-3.1728,-3.1334,-3.0788,-3.0054,-2.9528,-2.9196,-2.8904,-2.8621,-2.835,-2.7873,-2.7673,-2.7611,-2.7119,-2.6826,-2.6749,0.0,0.0,0.0,0.0,0.0,0.0,0.0,0.0,0.0,0.0,0.0,0.0,0.0,-2.0196,-2.0226,-2.0166,-2.0745,-2.1418,-2.212,-2.3651,-2.5167,-2.6557,-2.8191,-2.9397,-3.0186,-3.1356,-3.1757,-3.132,-3.162,-3.1943,-3.2347,-3.3034,-3.3778,-3.459,-3.6079,-3.7178,-3.7956,-3.8684,-3.8988,-3.8988,-3.9005,-3.8142,-3.6768,-3.63,-3.4312,-3.1677,-3.0957,-2.9569,-2.8049,-2.7554,-2.7141,-2.7001,-2.7823,-2.8902,-2.9865,-2.9942,-2.9612,-2.9377,-3.0218,-3.0942,-3.2042,-3.4436,-3.6129,-3.7618,-3.9202,-4.0802,-4.229,-4.3512,-4.4431,-4.4855,-4.4379,-4.5009,-4.5316,-4.447,-4.5047,-4.5297,-4.4412,-4.3002,-4.1636,-4.062,-3.8421,-3.692,0.0,-3.6957,-3.7218,-3.7544,-3.5955,-3.5135,-3.5459,-3.4404,-3.3834,-3.3868,-3.3494,-3.3361,-3.3486,-3.3087,-3.2916,-3.296,-3.2978,-3.2759,-3.2351,-3.1858,-3.1355,-3.0897,-3.0788,-3.0149,-2.9196,-2.9196,-2.8858,-2.8411,-2.8381,-2.8381,-2.8365,-2.835,-2.7934,-2.7457,0.0,0.0,0.0,0.0,0.0,0.0,0.0,0.0,0.0,0.0,0.0,0.0,0.0,0.0,0.0,0.0,-1.9923,-2.0506,-2.1759,-2.1842,-2.2547,-2.4132,-2.5042,-2.5814,-2.6542,-2.7601,-2.8298,-2.8589,-2.8475,-2.9002,-3.0129,-3.0345,-3.1647,-3.3795,-3.4303,-3.5233,-3.64,-3.6654,-3.6755,-3.6671,-3.569,-3.5372,-3.5231,-3.3111,-3.2254,-3.1934,0.0,-2.9112,-2.8232,-2.7819,-2.7672,-2.7613,-2.7324,-2.7959,-2.8879,-2.9144,-3.0447,-3.1753,-3.1418,-3.3558,-3.6273,-3.7984,-3.9562,-4.1138,-4.2621,-4.3531,-4.4034,-4.3855,-4.3387,-4.2737,-4.1982,-4.1649,-4.1572,-4.1824,-4.3013,-4.3643,-4.2758,-4.3159,-4.2371,-3.92,-3.8638,0.0,0.0,0.0,0.0,-3.5925,-3.5574,-3.5379,-3.5485,-3.5475,-3.5459,-3.5487,-3.5355,-3.5326,-3.5355,-3.5036,-3.4606,-3.4045,-3.3064,-3.2512,-3.2385,-3.1825,-3.1548,-3.1487,-3.1083,-3.069,-3.0327,-3.0064,-2.9556,-2.8951,-2.8951,-2.8685,-2.8411,-2.8411,-2.8306,-2.8231,0.0,0.0,0.0,0.0,0.0,0.0,0.0,0.0,0.0,0.0,0.0,0.0,0.0,0.0,0.0,0.0,0.0,-1.9971,-2.0914,-2.1106,-2.1601,-2.2524,-2.3705,-2.4538,-2.4989,-2.6209,-2.6961,-2.7242,-2.6908,-2.7198,-2.8001,-2.8135,-2.9178,-3.1038,-3.1579,-3.251,-3.366,-3.4041,-3.4202,-3.4109,-3.3502,-3.3317,-3.3162,-3.1407,-3.0922,0.0,-2.9904,-2.908,-2.8469,-2.8019,-2.816,-2.8396,-2.759,-2.8071,-2.9034,-2.9612,-3.1529,-3.3529,-3.3865,-3.6624,-3.9769,-4.1189,-4.2582,-4.3846,-4.4763,-4.487,-4.4498,-4.3311,-4.2213,-4.0985,-3.9503,-3.8811,-3.8662,-3.9231,-4.0192,-4.0973,-4.1306,-4.1771,-4.1412,-3.9565,-3.9315,-3.8661,0.0,0.0,0.0,-3.502,-3.5464,-3.5662,-3.5347,-3.5947,-3.6332,-3.6313,-3.6313,-3.6313,-3.6398,-3.6219,-3.5721,-3.4907,-3.3804,-3.3293,-3.3269,-3.2599,-3.2332,-3.2422,-3.1901,-3.1392,-3.0869,-3.0623,-3.0133,-2.9524,-2.9524,-2.9196,-2.8732,-2.8732,-2.87,-2.8573,0.0,0.0,0.0,0.0,0.0,0.0,0.0,0.0,0.0,0.0,0.0,0.0,0.0,0.0,0.0,0.0,0.0,0.0,-1.975,-2.1292,-2.2031,-2.168,-2.3942,-2.5224,-2.524,-2.6906,-2.7551,-2.7128,-2.6859,-2.6525,-2.6127,-2.6452,-2.6653,-2.6774,-2.8252,-2.9338,-3.0136,-3.1136,-3.1537,-3.162,-3.2466,-3.2002,-3.0802,-3.0997,-3.0269,-2.9212,-2.9593,-2.9323,-2.8669,-2.8022,-2.8476,-2.9204,-2.8577,-2.9207,-3.038,-3.1403,-3.2948,-3.4923,-3.7493,-4.0027,-4.2316,-4.3951,-4.4989,-4.5586,-4.5528,-4.4816,-4.3701,-4.2024,-4.0919,-3.9514,0.0,0.0,-3.6616,-3.6829,-3.6858,-3.7752,-4.0315,-3.9364,-3.9264,0.0,0.0,0.0,0.0,0.0,0.0,-3.5148,0.0,-3.6019,-3.5155,-3.5954,-3.6442,-3.6527,-3.6442,-3.6527,-3.6721,-3.6629,-3.6231,-3.5609,-3.5129,-3.4924,-3.4895,-3.3939,-3.3512,-3.3562,-3.3045,-3.2121,-3.0942,-3.0959,-3.0616,-3.0159,-3.0159,-2.9876,-2.9451,-2.9406,-2.9074,-2.8621,0.0,0.0,0.0,0.0,0.0,0.0,0.0,0.0,0.0,0.0,0.0,0.0,0.0,0.0,0.0,0.0,0.0,0.0,-2.0414,-1.9798,-1.9555,-1.9846,-2.0859,-2.1522,-2.1776,-2.3556,-2.4559,-2.4693,-2.4423,-2.4602,-2.5155,-2.5188,-2.5859,-2.6996,-2.7378,-2.8211,-2.944,-2.9669,-3.0078,-3.0472,-2.9647,-2.9766,-3.0264,-2.8703,-2.8326,-2.8631,-2.8843,-2.8494,-2.7976,-2.7911,-2.8542,-2.9377,-2.94,-3.0919,-3.2897,-3.4002,-3.604,-3.8312,-4.0246,-4.2184,-4.3912,-4.4989,-4.5432,-4.5432,-4.4778,-4.3489,-4.1979,-4.0359,-3.7857,-3.5408,0.0,0.0,0.0,-3.4796,-3.651,0.0,-4.113,-4.2213,0.0,-4.1873,0.0,-4.1623,-4.0315,-4.0497,0.0,0.0,-3.7829,-3.7313,-3.6901,-3.7643,-3.8102,-3.8113,-3.8083,-3.8113,-3.8173,-3.7595,-3.7275,-3.7137,-3.5831,-3.5314,-3.5515,-3.3812,-3.3223,-3.3477,-3.2505,-3.1903,-3.1554,-3.1565,-3.1223,-3.0697,-3.0697,-3.0369,-2.9919,-2.9569,-2.9422,-2.9273,0.0,0.0,0.0,0.0,0.0,0.0,0.0,0.0,0.0,0.0,0.0,0.0,0.0,0.0,0.0,0.0,0.0,0.0,0.0,-1.9624,-1.9523,-1.9884,-2.0523,-2.0985,-2.1197,-2.2298,-2.2906,-2.2979,-2.2422,-2.2617,-2.3484,-2.3358,-2.3931,-2.5079,-2.5415,-2.6002,-2.6813,-2.7184,-2.7761,0.0,0.0,-2.8012,-2.8891,-2.7266,-2.7,-2.7525,-2.7942,-2.8208,-2.8356,0.0,0.0,-2.9593,-3.1236,-3.3008,-3.4747,-3.6329,-3.836,-4.0421,-4.192,-4.3568,-4.4989,-4.547,-4.5297,-4.4716,-4.352,-4.1942,-4.0031,-3.7656,-3.5099,-3.2771,-3.1073,-3.045,-3.0734,0.0,0.0,0.0,-4.0242,-4.157,-4.2487,0.0,-4.3566,0.0,-4.2258,-4.2445,-4.2144,0.0,-3.9708,-3.872,-3.8058,-3.845,-3.8854,-3.9221,-3.8891,-3.8719,-3.875,-3.835,-3.8003,-3.7691,-3.6791,-3.6376,-3.6321,-3.5048,-3.4461,-3.45,0.0,-3.261,-3.228,-3.2283,-3.1909,-3.1334,-3.1657,-3.1297,-3.0468,-3.0091,-2.9821,-2.9544,0.0,0.0,0.0,0.0,0.0,0.0,0.0,0.0,0.0,0.0,-1.6606,-1.7276,0.0,0.0,0.0,0.0,0.0,0.0,0.0,0.0,-2.0447,-2.0513,-2.131,-2.1772,-2.1834,-2.2106,-2.2154,-2.1922,-2.1185,-2.1257,-2.2094,-2.1899,-2.2193,-2.2901,-2.357,-2.3951,-2.4057,-2.4864,-2.5649,-2.6293,-2.6428,-2.6822,-2.73,0.0,-2.6218,-2.6281,-2.7105,-2.8068,0.0,0.0,-3.0097,-3.0387,-3.3483,-3.5224,-3.6534,-3.8561,-4.0285,-4.1815,-4.3022,-4.4472,-4.5586,-4.5586,-4.4855,-4.3728,-4.2098,-4.0109,-3.7744,-3.4614,-3.2592,-3.0894,-2.9284,-2.8455,-2.8632,-3.0543,0.0,-3.374,-3.8862,-3.9681,-4.1164,-4.4987,-4.4893,-4.4489,-4.447,-4.447,-4.4036,-4.3002,-4.1637,-4.0328,-3.916,-3.894,-3.9129,-3.9717,-3.9276,-3.8964,-3.8848,-3.8969,-3.8619,-3.7812,-3.7768,-3.7528,-3.7144,-3.6557,-3.6132,-3.5811,-3.4704,-3.3766,-3.3051,-3.3038,-3.261,-3.2007,-3.2645,-3.2244,-3.1275,-3.0907,-3.0389,-2.9839,0.0,0.0,0.0,0.0,0.0,0.0,0.0,0.0,0.0,0.0,-1.5797,-1.5757,0.0,0.0,0.0,0.0,0.0,0.0,0.0,0.0,0.0,-1.9075,-1.9939,-2.0427,-2.0445,-2.151,-2.2065,-2.2065,-2.203,-2.2586,-2.3695,-2.3435,-2.3855,-2.4822,-2.4846,-2.5163,-2.5697,-2.5733,-2.6153,-2.6784,-2.68,-2.6774,-2.6741,-2.6594,0.0,0.0,-2.6565,0.0,0.0,0.0,-3.214,-3.3432,-3.4835,-3.7217,-3.973,-4.1029,-4.2341,-4.355,-4.4491,-4.517,-4.5586,-4.5586,-4.4432,-4.2861,-4.1191,-3.7851,0.0,-3.2697,-3.0373,-2.8403,-2.7483,-2.7732,-2.8864,-3.1227,-3.2259,-3.4582,-3.9749,-4.1093,-4.2322,0.0,-4.5201,-4.5507,-4.5374,-4.5355,0.0,0.0,-4.3811,-4.2664,-4.1175,-4.021,-3.9441,-3.8927,-4.0065,-4.0178,-3.913,-3.9516,-3.9276,-3.8456,-3.8162,-3.7821,-3.7381,-3.6256,-3.5784,-3.5764,-3.5014,0.0,-3.3886,-3.3886,-3.3421,-3.2714,-3.2852,-3.2779,-3.2522,-3.2133,-3.1707,-3.1287,0.0,0.0,0.0,0.0,0.0,0.0,0.0,-1.6077,-1.6296,-1.6804,-1.6254,-1.6001,-1.6396,-1.5928,-1.5935,0.0,0.0,0.0,0.0,0.0,0.0,0.0,0.0,0.0,-2.0107,-2.0739,-2.1041,-2.0952,0.0,-2.172,-2.2707,-2.3123,-2.3803,-2.4641,-2.5033,-2.5356,-2.5628,-2.5447,-2.5807,-2.6442,-2.5909,-2.5875,-2.6078,0.0,0.0,0.0,0.0,0.0,0.0,0.0,-3.2133,-3.3204,-3.5742,-3.8163,-4.0396,-4.1959,-4.3271,-4.4436,-4.5433,-4.5668,-4.5701,-4.6163,-4.3989,-4.1335,-3.968,0.0,0.0,-3.0876,-2.885,-2.727,-2.6903,-2.7153,0.0,-2.9608,-3.0921,-3.3403,-3.811,-3.9886,-4.1683,-4.4286,-4.5314,-4.5776,-4.5719,-4.5624,-4.5358,-4.4729,-4.415,-4.3365,-4.2267,-4.1551,-4.0611,-3.9393,-4.0519,-4.0624,-3.9634,-3.9199,-3.8731,-3.8348,-3.7954,-3.7595,-3.7152,-3.6566,-3.6191,-3.604,-3.5324,-3.4858,-3.4663,-3.4663,-3.3973,-3.2938,-3.3352,-3.3024,-3.2259,-3.1839,-3.153,-3.1333,0.0,0.0,0.0,0.0,0.0,0.0,-1.648,-1.6464,-1.6706,-1.7661,-1.716,-1.6799,-1.7019,-1.575,-1.5158,0.0,0.0,0.0,0.0,0.0,0.0,0.0,0.0,0.0,0.0,0.0,0.0,0.0,-2.0133,0.0,0.0,0.0,0.0,0.0,-2.4656,-2.4983,-2.4922,-2.4917,-2.5277,0.0,0.0,-2.5138,0.0,0.0,0.0,0.0,0.0,0.0,0.0,0.0,-3.1214,-3.1797,-3.5422,-3.7653,-3.942,-4.1805,-4.3136,-4.4126,-4.5551,-4.5721,-4.5667,-4.6433,-4.3412,-3.987,-3.8443,-3.4509,0.0,-2.9351,-2.7713,-2.6529,-2.6534,-2.6532,-2.6871,0.0,-2.9352,-3.1785,-3.5907,-3.8085,-4.0485,0.0,-4.4994,0.0,-4.5776,-4.568,0.0,-4.4624,-4.4096,-4.336,-4.2323,-4.2186,-4.1438,-3.9798,-4.0643,-4.0722,-3.9877,-3.8864,-3.8269,-3.8114,-3.7703,-3.7243,-3.6799,-3.6886,-3.6725,-3.6266,-3.568,-3.5335,0.0,-3.5197,-3.4283,-3.2955,-3.3593,-3.3093,-3.1987,-3.1533,-3.1354,-3.1369,0.0,0.0,0.0,0.0,0.0,0.0,-1.6483,-1.6588,-1.7167,-1.8811,-1.8088,-1.7598,-1.8098,-1.6146,-1.5072,0.0,0.0,0.0,0.0,0.0,0.0,0.0,0.0,0.0,0.0,0.0,0.0,0.0,0.0,0.0,0.0,0.0,0.0,0.0,0.0,0.0,-2.4066,-2.4715,0.0,0.0,0.0,0.0,0.0,0.0,0.0,0.0,0.0,0.0,0.0,0.0,0.0,-3.0224,-3.2713,-3.4622,-3.6644,-4.0428,0.0,0.0,-4.4115,-4.4953,-4.5241,-4.5609,-4.2527,-3.9193,-3.8298,0.0,-2.9209,-2.8454,-2.688,-2.5629,-2.5701,-2.5701,-2.6236,-2.7848,-2.8882,-3.0747,-3.4322,-3.6956,-3.9496,-4.2203,0.0,0.0,-4.5734,-4.568,-4.5566,-4.549,-4.444,-4.2848,-4.0654,-4.1315,-4.0884,-3.8969,-4.0456,-4.0653,-3.9397,-3.9325,-3.8888,-3.8108,-3.768,-3.711,-3.6385,-3.6849,-3.679,-3.6301,-3.6232,-3.5818,0.0,-3.5197,-3.4283,-3.2904,-3.299,-3.2921,-3.2762,-3.2258,-3.2191,-3.2328,0.0,0.0,0.0,0.0,0.0,0.0,-1.718,-1.7384,-1.801,-1.9744,-1.9417,-1.8958,-1.8861,-1.7439,-1.6354,-1.601,0.0,0.0,0.0,0.0,0.0,0.0,0.0,0.0,0.0,0.0,-2.0134,-2.0346,-2.0437,0.0,0.0,0.0,0.0,0.0,0.0,0.0,0.0,0.0,0.0,0.0,0.0,0.0,0.0,0.0,0.0,0.0,0.0,0.0,-2.6674,0.0,0.0,0.0,-2.998,-3.0614,0.0,0.0,-3.9733,-4.1297,-4.3259,-4.4304,-4.4962,-4.5574,-4.1951,-3.8005,-3.7145,0.0,-2.8076,-2.6826,-2.5615,-2.4802,-2.4865,-2.4879,-2.5262,-2.6465,-2.6953,0.0,-3.1171,-3.333,-3.6159,-4.0351,-4.2272,0.0,0.0,0.0,-4.5259,-4.4182,-4.3173,-4.1876,-4.0257,-4.1158,-4.1139,-3.99,-4.0311,-4.0345,-3.984,-3.9071,-3.8381,-3.7782,-3.7362,-3.6829,-3.6301,-3.6515,-3.6498,-3.6301,-3.6301,-3.6128,0.0,-3.5852,-3.5232,-3.4283,-3.4283,-3.3714,-3.2865,-3.2434,-3.2225,-3.2093,0.0,0.0,0.0,0.0,0.0,-1.5896,-1.7628,-1.789,-1.8531,-2.0269,-2.0277,-1.9934,-1.9462,-1.8209,-1.7278,-1.699,-1.6535,0.0,0.0,0.0,0.0,0.0,0.0,0.0,0.0,0.0,-2.0269,-2.0503,-2.0547,-2.0544,0.0,0.0,0.0,0.0,0.0,0.0,0.0,0.0,0.0,0.0,0.0,0.0,0.0,0.0,0.0,0.0,0.0,0.0,0.0,0.0,0.0,0.0,0.0,0.0,0.0,0.0,-3.7241,-3.9157,-4.1661,-4.2918,-4.3668,-4.4431,-4.0938,-3.7001,0.0,0.0,-2.7544,-2.6185,-2.5057,-2.4321,-2.4397,-2.44,-2.4608,-2.5223,-2.5722,-2.6795,-2.8917,-3.0874,-3.3652,-3.7868,0.0,-4.1826,0.0,-4.5131,-4.472,-4.3201,-4.2297,-4.1347,-4.0271,-4.0889,-4.0947,-4.0282,-4.0021,-3.9898,-3.9859,-3.8779,-3.808,-3.7755,-3.7303,-3.6939,-3.6638,-3.6638,-3.6638,-3.6638,-3.6516,-3.6353,0.0,-3.6015,-3.5542,-3.4869,-3.4869,-3.4059,-3.2865,-3.2417,-3.1858,-3.1314,0.0,0.0,0.0,0.0,0.0,0.0,-1.7626,-1.7905,-1.8526,-2.0273,-2.043,-2.0262,-1.9939,-1.8116,-1.7455,-1.8851,-1.7567,0.0,0.0,0.0,0.0,0.0,0.0,0.0,0.0,0.0,-2.0503,-2.0492,-2.051,-2.0503,-2.0508,-2.0516,-2.0517,-2.0531,0.0,0.0,0.0,0.0,0.0,0.0,0.0,0.0,0.0,0.0,0.0,0.0,0.0,0.0,0.0,0.0,0.0,0.0,0.0,0.0,0.0,0.0,-3.3553,-3.4437,-3.8917,-4.0528,-4.1086,-4.1698,-3.9302,-3.6369,0.0,-3.1036,-2.7801,-2.7039,-2.5516,-2.4312,-2.4394,-2.4397,-2.4397,-2.4401,-2.582,0.0,-2.8176,-3.0507,-3.2768,0.0,0.0,-3.8466,-4.1827,-4.3471,-4.397,-4.3162,-4.2297,0.0,-4.0527,-4.0323,-3.9979,-3.942,-3.9452,-3.9343,-3.9026,-3.8548,-3.8277,-3.818,-3.7703,-3.7505,-3.7505,-3.7505,-3.7505,-3.7469,-3.7055,-3.6478,0.0,-3.5399,-3.4766,-3.4093,-3.4093,-3.3611,-3.2827,-3.2303,-3.1132,-2.9939,0.0,0.0,0.0,0.0,0.0,0.0,-1.6829,-1.7014,-1.7417,-1.8576,-1.8664,-1.8486,-1.8088,-1.7482,-1.7112,-1.7147,-1.6517,0.0,0.0,0.0,0.0,0.0,0.0,0.0,0.0,-1.9302,-1.9713,-2.051,-2.0441,-2.0419,-2.0389,-2.0937,-2.1175,-2.1218,-2.2074,0.0,0.0,0.0,0.0,0.0,0.0,0.0,0.0,0.0,0.0,0.0,0.0,0.0,0.0,0.0,0.0,0.0,0.0,0.0,0.0,-2.7711,-3.0299,0.0,-3.5258,-3.7015,-3.8348,-3.8556,-3.6203,-3.3571,-3.25,-2.9631,-2.6798,-2.5415,-2.4243,-2.3493,-2.3504,-2.3514,-2.3712,-2.4303,-2.5354,-2.6181,0.0,0.0,0.0,-3.5104,-3.9947,-4.3452,0.0,0.0,-4.397,-4.3162,-4.2297,-4.1412,-4.0546,-4.0441,-4.0157,-3.9614,-3.9483,-3.9272,-3.9007,-3.8755,-3.8504,-3.8277,-3.8032,-3.7774,-3.7505,-3.7505,-3.7505,-3.7505,-3.7358,-3.7179,0.0,-3.5987,-3.5758,-3.5859,-3.4495,-3.3802,-3.347,-3.2418,-3.1388,-3.0502,0.0,0.0,0.0,0.0,0.0,0.0,-1.6463,-1.658,-1.6876,-1.7752,-1.7794,-1.7671,-1.7409,-1.7008,-1.6683,-1.6541,-1.5899,0.0,0.0,0.0,0.0,0.0,0.0,0.0,-1.8762,-1.8905,-1.9472,-2.046,-2.0458,-2.0515,-2.0681,-2.1271,-2.1678,-2.195,-2.2559,-2.3279,0.0,0.0,0.0,0.0,0.0,0.0,-2.453,0.0,0.0,0.0,0.0,0.0,0.0,0.0,0.0,0.0,0.0,0.0,0.0,0.0,-2.7041,-2.9806,-3.1638,-3.3513,-3.4959,-3.5081,-3.3422,0.0,-3.0328,-2.8385,-2.6443,-2.5068,-2.3888,-2.3097,-2.3098,-2.3107,-2.3271,-2.3823,-2.4924,-2.5805,0.0,0.0,0.0,-3.5354,0.0,0.0,0.0,-4.3384,-4.3143,-4.2643,-4.1797,-4.1066,-4.0527,-4.0489,-4.0302,-3.9859,-3.9679,-3.9414,-3.9183,-3.8979,-3.8755,-3.8535,-3.8428,-3.8071,-3.7496,-3.7496,-3.7334,-3.7048,-3.7216,-3.7272,0.0,-3.6682,-3.6576,-3.6681,-3.5161,-3.4243,-3.371,-3.2723,-3.156,-3.0465,0.0,0.0,0.0,0.0,0.0,0.0,0.0,-1.6454,-1.6692,-1.7504,-1.7568,-1.7528,-1.7528,-1.6567,-1.6156,-1.6697,-1.5696,0.0,0.0,0.0,0.0,0.0,0.0,0.0,-1.7558,-1.8634,-1.9604,-2.0404,-2.0516,-2.0825,-2.129,-2.1613,-2.2096,-2.2678,-2.2824,-2.3354,-2.4237,-2.4914,-2.5125,-2.4996,-2.4949,-2.4409,0.0,0.0,0.0,0.0,0.0,0.0,0.0,0.0,0.0,0.0,0.0,0.0,0.0,0.0,0.0,0.0,0.0,-2.9989,-3.1141,-3.1478,-3.095,-2.9916,-2.8295,-2.7343,0.0,-2.5761,-2.4315,-2.3198,-2.3196,-2.3185,-2.3193,-2.3196,-2.4608,-2.6002,0.0,-2.9382,0.0,0.0,-3.8794,0.0,-3.9565,-4.0882,-4.1797,-4.1797,-4.0989,-4.0489,-4.0489,-4.0489,-4.0389,-4.0139,-3.9922,-3.9705,-3.9483,-3.9156,-3.8931,-3.8818,-3.873,-3.8265,-3.7434,-3.7434,-3.7,0.0,-3.6685,-3.6848,0.0,-3.7147,-3.7071,-3.6611,-3.5714,-3.4666,-3.3646,-3.3026,-3.1576,-2.9973,0.0,0.0,0.0,0.0,0.0,0.0,0.0,0.0,0.0,0.0,-1.5754,-1.5715,-1.5715,-1.5464,-1.5282,0.0,0.0,0.0,0.0,0.0,0.0,0.0,0.0,0.0,-1.9124,-1.8591,-1.8993,-2.0402,-2.1032,-2.1279,-2.1186,-2.2602,-2.3334,-2.3489,-2.4252,-2.4764,-2.5021,-2.5158,-2.4798,-2.4159,-2.4062,-2.3878,0.0,0.0,0.0,0.0,-2.5056,-2.518,0.0,0.0,0.0,0.0,0.0,0.0,0.0,0.0,-2.2337,-2.2703,-2.4185,0.0,-2.8131,-2.8864,-2.8398,-2.7666,0.0,0.0,0.0,0.0,0.0,-2.4082,-2.4085,-2.4099,-2.4088,-2.4096,-2.5005,-2.6197,-2.7615,0.0,0.0,-3.8276,-4.0877,-4.1936,-4.0455,-4.1229,-4.1797,-4.1797,-4.0989,-4.0489,-4.0489,-4.0489,-4.0473,-4.0406,-3.9964,-3.9637,-3.9427,-3.9045,-3.8596,-3.8072,-3.7871,-3.7408,-3.6665,-3.6607,-3.6468,-3.6303,-3.638,0.0,-3.6358,-3.5561,-3.5828,-3.6505,-3.3899,-3.3338,-3.3869,-3.2224,-3.1082,-3.0392,0.0,0.0,0.0,0.0,0.0,0.0,0.0,0.0,0.0,0.0,-1.5114,-1.5101,-1.5095,-1.5095,-1.5004,0.0,0.0,0.0,0.0,0.0,0.0,0.0,0.0,-1.8124,-1.8774,-1.8601,-1.8885,-1.9671,-2.0873,-2.1494,-2.1588,-2.3035,-2.3897,-2.4268,-2.4942,-2.5262,-2.5303,-2.5259,-2.4726,-2.3896,-2.3826,0.0,0.0,0.0,0.0,0.0,-2.5034,-2.5248,0.0,-2.538,-2.4836,-2.4092,0.0,0.0,0.0,0.0,-2.1187,-2.1523,-2.3041,-2.4583,-2.5955,-2.6792,-2.6675,-2.6335,-2.632,0.0,0.0,0.0,0.0,-2.4362,-2.4394,-2.437,-2.4358,-2.4381,-2.5757,0.0,0.0,0.0,-3.6461,-3.8547,-4.0339,-4.1181,0.0,-4.0954,-4.12,-4.12,-4.0758,-4.0489,-4.0489,-4.0489,-4.0489,-4.0489,-3.9984,-3.966,-3.9537,-3.8711,-3.8106,-3.7691,-3.7227,-3.6562,-3.5772,-3.5716,-3.5495,-3.5165,-3.555,0.0,-3.5669,-3.5433,-3.5647,-3.5939,-3.3857,-3.3283,-3.3481,-3.2363,-3.1348,-3.0626,0.0,0.0,0.0,0.0,0.0,0.0,0.0,0.0,0.0,0.0,0.0,0.0,0.0,0.0,0.0,0.0,0.0,0.0,0.0,0.0,0.0,0.0,-1.7778,-1.8305,-1.8067,-1.8596,-1.8974,-1.9186,-2.0735,-2.1845,-2.2522,-2.3404,-2.4193,-2.4949,-2.5201,-2.532,-2.5312,-2.5304,-2.4767,-2.3883,-2.3769,0.0,0.0,0.0,0.0,0.0,0.0,0.0,0.0,-2.5206,-2.4582,-2.3675,-2.2927,0.0,0.0,0.0,0.0,0.0,-2.3218,-2.407,-2.458,-2.5394,-2.5636,-2.5679,-2.5605,0.0,0.0,0.0,0.0,-2.4516,-2.4553,-2.4642,0.0,0.0,0.0,0.0,-3.3391,-3.4719,-3.6067,-3.8052,-3.9173,0.0,-4.0106,-4.0365,-4.0489,-4.0489,-4.0489,-4.0489,-4.0489,-4.0508,-4.0508,-4.0508,-4.0003,-3.9652,-3.9498,-3.829,-3.7598,-3.7421,-3.6601,-3.5698,-3.4835,-3.4835,-3.4449,-3.3844,0.0,0.0,-3.4862,-3.5605,-3.5672,-3.5249,-3.4425,-3.3683,-3.302,-3.2803,-3.1862,-3.0866,0.0,0.0,0.0,0.0,0.0,0.0,0.0,0.0,0.0,0.0,0.0,0.0,0.0,0.0,0.0,0.0,0.0,0.0,0.0,0.0,0.0,-1.6281,-1.6474,-1.7569,-1.9688,-1.8532,-1.8902,-2.0928,-2.1922,-2.3042,-2.4308,-2.4569,-2.4831,-2.5084,-2.5282,-2.5386,-2.537,-2.5322,-2.4758,-2.3849,-2.3094,0.0,0.0,0.0,0.0,0.0,0.0,0.0,0.0,-2.4298,-2.3261,-2.1977,-2.1843,0.0,0.0,0.0,0.0,0.0,-2.2901,-2.3757,-2.453,-2.5377,-2.5615,-2.5605,-2.5523,0.0,0.0,0.0,0.0,0.0,0.0,-2.5974,-2.6503,0.0,0.0,-3.3494,0.0,0.0,-3.9469,-3.9236,0.0,-4.0656,-3.8651,-3.9692,-4.0489,-4.0489,-4.0489,-4.0489,-4.0489,-4.0495,-4.0499,-4.0499,-4.0101,-3.9435,-3.8516,-3.7912,-3.7321,-3.6667,-3.5662,-3.4807,-3.4071,-3.4017,-3.3917,-3.3807,0.0,-3.399,-3.399,-3.4137,-3.4467,-3.4782,-3.3707,-3.3516,-3.3667,-3.2385,-3.1743,-3.1534,0.0,0.0,0.0,0.0,0.0,0.0,0.0,0.0,0.0,0.0,0.0,0.0,0.0,0.0,0.0,0.0,0.0,0.0,0.0,0.0,-1.5898,-1.6339,-1.6266,-1.7008,-1.8699,-1.9296,-1.9888,-2.0488,-2.2602,-2.4002,-2.4717,-2.5327,-2.5435,-2.5133,-2.4833,-2.4716,-2.4741,-2.4723,-2.4151,-2.3273,0.0,0.0,0.0,0.0,0.0,0.0,0.0,0.0,0.0,0.0,-2.3392,-2.1727,-2.2177,0.0,0.0,0.0,0.0,0.0,-2.3412,-2.401,-2.4499,-2.5341,-2.5554,-2.5543,-2.5518,0.0,0.0,0.0,0.0,0.0,0.0,0.0,-2.8165,-3.0249,0.0,-3.4326,-3.6588,-3.7329,-3.7833,0.0,0.0,-3.9675,-3.9425,-4.0068,-4.0489,-4.0489,-4.0489,-4.0296,-3.9873,-3.9823,-3.958,-3.91,-3.8728,-3.8322,-3.7821,-3.698,-3.6274,-3.5671,-3.4789,-3.4156,-3.3842,-3.3815,-3.3807,-3.3807,0.0,-3.3807,-3.3807,-3.3753,-3.3908,-3.4087,-3.3531,-3.3345,-3.3229,-3.2125,-3.199,-3.229,0.0,0.0,0.0,0.0,0.0,0.0,0.0,0.0,0.0,0.0,0.0,0.0,0.0,0.0,0.0,0.0,0.0,0.0,0.0,-1.5241,-1.5534,-1.637,-1.6458,-1.7011,-1.817,-1.9958,-2.0896,-2.0975,-2.3364,-2.469,-2.5061,-2.6062,-2.6066,-2.5186,-2.4439,-2.4144,-2.4191,-2.4195,-2.3788,-2.3093,0.0,0.0,0.0,0.0,0.0,0.0,0.0,0.0,0.0,0.0,0.0,0.0,0.0,0.0,0.0,-2.174,-2.2262,-2.2835,-2.3985,-2.4447,-2.4735,-2.5379,-2.5676,0.0,0.0,0.0,0.0,0.0,0.0,0.0,0.0,-2.7609,0.0,-3.3452,-3.4293,-3.5097,-3.6823,-3.6759,-3.6983,-3.8228,-3.86,-3.9157,-4.0185,-4.0283,-4.0243,-4.0101,-4.0098,-3.9788,-3.9046,-3.8939,-3.8581,-3.7913,-3.7583,-3.7299,-3.7029,-3.6158,-3.5515,-3.5082,-3.4281,-3.3842,-3.3788,-3.3578,-3.3623,-3.3788,-3.356,-3.3597,-3.378,-3.3726,-3.3643,-3.3577,-3.352,-3.322,-3.2731,-3.2162,-3.2241,-3.2513,0.0,0.0,0.0,0.0,0.0,0.0,0.0,0.0,0.0,0.0,0.0,0.0,0.0,0.0,0.0,0.0,0.0,0.0,0.0,-1.5185,-1.5404,-1.6109,-1.6903,-1.8126,-1.9889,-1.9917,-2.1396,-2.4429,-2.455,-2.5083,-2.6019,-2.7023,-2.6706,-2.5264,-2.4452,-2.4141,-2.4205,-2.4205,-2.4133,-2.3938,-2.3123,0.0,0.0,0.0,0.0,0.0,0.0,0.0,0.0,0.0,0.0,0.0,0.0,0.0,-2.1673,-2.2571,-2.3398,-2.409,-2.4248,-2.4849,-2.5434,-2.557,-2.6208,0.0,-2.7583,-2.8449,0.0,-3.0008,0.0,0.0,0.0,-2.9796,-3.1446,-3.4587,-3.5724,-3.7226,-4.0129,0.0,-4.0522,-4.0655,-4.0696,-4.0431,-3.9724,-3.9668,-3.9456,-3.8975,-3.8918,-3.8684,-3.8108,-3.804,-3.7955,-3.7904,-3.7641,-3.6972,-3.5923,-3.5825,-3.5652,-3.5361,-3.4563,-3.4049,-3.377,-3.2965,-3.302,-3.3752,-3.2947,-3.303,-3.3698,-3.3698,-3.3615,-3.3509,-3.3491,-3.322,-3.2795,-3.2731,-3.2317,-3.1763,0.0,0.0,0.0,0.0,0.0,0.0,0.0,0.0,0.0,0.0,0.0,0.0,0.0,0.0,0.0,0.0,0.0,0.0,0.0,-1.5008,-1.524,-1.5934,-1.6243,-1.7476,-1.9747,-2.025,-2.1875,-2.4746,-2.5721,-2.6462,-2.69,-2.6797,-2.6206,-2.5244,-2.3888,-2.3628,-2.4158,-2.3617,-2.3676,-2.4073,-2.3738,-2.3431,0.0,0.0,0.0,0.0,0.0,0.0,0.0,0.0,-2.3259,-2.2497,-2.2945,-2.2786,-2.2581,-2.3454,-2.3939,-2.4335,-2.4932,-2.5221,-2.5356,-2.5546,-2.6532,0.0,0.0,-2.8485,-2.9171,-2.9655,-2.9632,0.0,0.0,0.0,-3.2119,-3.471,-3.609,-3.7349,-3.8833,-3.9458,-3.9595,-3.9089,-3.9223,-3.9018,-3.8191,-3.8115,-3.8026,-3.7828,-3.7947,-3.7733,-3.6977,-3.7076,-3.6915,-3.6362,-3.6039,-3.5685,-3.5228,-3.5063,-3.4884,-3.4643,-3.4346,-3.4074,-3.377,-3.291,-3.2957,-3.3698,-3.2865,-3.2921,-3.3633,-3.3633,-3.3577,-3.3509,-3.3452,-3.3623,-3.3885,-3.3641,-3.3545,-3.3397,0.0,0.0,0.0,0.0,0.0,0.0,0.0,0.0,0.0,0.0,0.0,0.0,0.0,0.0,0.0,0.0,0.0,0.0,-1.5003,-1.4852,-1.5228,-1.6272,-1.6257,-1.7287,-1.9617,-2.0217,-2.1761,-2.4289,-2.5724,-2.6478,-2.6631,-2.61,-2.564,-2.5205,-2.3794,-2.3548,-2.4134,-2.3539,-2.3604,-2.4107,-2.4094,-2.3563,0.0,0.0,0.0,0.0,0.0,0.0,0.0,0.0,-2.3818,-2.3009,-2.3792,-2.37,-2.3485,-2.4354,-2.4392,-2.4281,-2.4954,-2.4994,-2.488,-2.4987,0.0,0.0,-2.8382,-2.9284,-3.0221,-3.0871,-3.0954,-3.1156,-3.1962,0.0,0.0,0.0,-3.5826,-3.6774,-3.7302,-3.7877,-3.8006,-3.745,-3.7611,-3.7422,-3.6578,-3.6747,-3.6625,-3.5929,-3.6268,-3.6122,-3.5181,-3.5477,-3.5296,-3.4519,-3.4356,-3.4187,-3.3922,-3.4001,-3.3911,-3.3704,-3.3777,-3.379,-3.3743,-3.2582,-3.2519,-3.3232,-3.2145,-3.2265,-3.3194,-3.3222,-3.3312,-3.3509,-3.3452,-3.3767,-3.4214,-3.4213,-3.428,-3.4269,0.0,0.0,0.0,0.0,0.0,0.0,0.0,0.0,0.0,0.0,0.0,0.0,0.0,0.0,0.0,0.0,0.0,0.0,-1.4806,-1.474,-1.5447,-1.7123,-1.7125,-1.7931,-1.9743,-1.9701,-2.0899,-2.3393,-2.4264,-2.4798,-2.501,-2.5063,-2.5122,-2.5154,-2.435,-2.4043,-2.4113,-2.41,-2.4101,-2.4107,-2.4108,-2.3634,-2.2805,0.0,0.0,0.0,0.0,0.0,0.0,0.0,-2.2808,-2.2953,-2.3835,-2.4149,-2.437,-2.5249,-2.4781,-2.4039,-2.4108,-2.4094,-2.4038,-2.3777,0.0,0.0,-2.9475,-3.129,-3.3044,-3.4396,-3.4036,-3.3468,-3.3403,-3.2781,0.0,-3.4091,-3.4947,-3.5676,-3.6213,-3.6285,-3.6266,-3.6266,-3.6266,-3.5917,-3.5045,-3.5752,-3.5339,-3.3152,-3.3734,-3.3698,-3.2645,-3.3106,-3.3127,-3.2521,-3.282,-3.2594,-3.1808,-3.2604,-3.2871,-3.2596,-3.2871,-3.3229,-3.3625,-3.1944,-3.1644,-3.2292,-3.061,-3.082,-3.2274,-3.2356,-3.2848,-3.3509,-3.3509,-3.3452,-3.352,-3.4317,-3.4353,-3.3975,0.0,0.0,0.0,0.0,0.0,0.0,0.0,0.0,0.0,0.0,0.0,0.0,0.0,0.0,0.0,0.0,0.0,0.0,-1.4747,-1.4701,-1.5197,-1.6313,-1.5785,-1.6255,-1.7933,-1.8008,-1.9544,-2.2693,-2.3517,-2.4284,-2.5,-2.4498,-2.4595,-2.5171,-2.4359,-2.4351,-2.4908,-2.4332,-2.4428,-2.4947,-2.5001,-2.4491,-2.3648,0.0,0.0,0.0,0.0,0.0,0.0,0.0,0.0,0.0,-2.4728,-2.5064,-2.5166,-2.5415,-2.5284,-2.5068,-2.5149,-2.4476,-2.3908,-2.4598,0.0,0.0,0.0,-2.9198,0.0,0.0,-3.2484,-3.271,-3.3116,-3.2629,0.0,-3.3571,-3.4221,-3.4853,-3.5614,-3.5532,-3.5183,-3.4614,-3.4045,-3.3366,-3.2559,-3.2687,-3.2573,-3.1918,-3.2284,-3.2371,-3.2049,-3.2355,-3.2467,-3.2294,-3.2195,-3.2042,-3.1797,-3.1848,-3.1851,-3.1751,-3.1851,-3.2224,-3.2783,-3.1122,-3.0779,-3.1437,-3.0348,-3.0467,-3.1438,-3.2018,-3.2726,-3.3422,-3.3422,-3.3767,-3.4353,-3.5168,-3.5522,-3.5562,0.0,0.0,0.0,0.0,0.0,0.0,0.0,0.0,0.0,0.0,0.0,0.0,0.0,0.0,0.0,0.0,0.0,0.0,0.0,-1.4697,-1.5231,-1.6461,-1.6082,-1.6441,-1.7783,-1.7545,-1.8598,-2.0956,-2.1431,-2.2476,-2.4033,-2.3629,-2.4075,-2.522,-2.4704,-2.4773,-2.5264,-2.4784,-2.4861,-2.5313,-2.5363,-2.4888,-2.4096,0.0,0.0,0.0,0.0,0.0,0.0,0.0,0.0,0.0,-2.4571,-2.4974,-2.4962,-2.4915,-2.49,-2.473,-2.3945,-2.3683,0.0,-2.3804,-2.5063,-2.6473,-2.7153,0.0,0.0,0.0,-3.2608,-3.2959,-3.3301,-3.253,0.0,-3.2558,-3.2895,-3.3259,-3.3784,-3.37,-3.3403,-3.2908,-3.2412,-3.1806,-3.0999,-3.1201,-3.1127,-3.0485,-3.0877,-3.1054,-3.0868,-3.1192,-3.1313,-3.1092,-3.1126,-3.101,-3.0695,-3.0844,-3.0907,-3.0907,-3.0901,-3.1114,-3.1477,-3.0458,-3.0199,-3.0557,-3.0085,-3.0132,-3.0658,-3.1783,-3.2545,-3.2998,-3.3325,-3.3731,-3.4262,-3.5403,-3.5912,-3.6073,0.0,0.0,0.0,0.0,0.0,0.0,0.0,0.0,0.0,0.0,0.0,0.0,0.0,0.0,0.0,0.0,0.0,0.0,0.0,-1.479,-1.5581,-1.7259,-1.7396,-1.7757,-1.8457,-1.7829,-1.7873,-1.8688,-1.8706,-2.0019,-2.2496,-2.2642,-2.3601,-2.5196,-2.5214,-2.5253,-2.5313,-2.5313,-2.5313,-2.5322,-2.5387,-2.4976,-2.4309,-2.4232,0.0,0.0,0.0,0.0,0.0,0.0,0.0,0.0,-2.3655,-2.4185,-2.419,-2.4053,-2.4008,-2.3589,-2.1693,-2.2345,-2.3294,-2.22,-2.4418,0.0,-2.7546,-3.0008,-3.2394,-3.3201,0.0,-3.3587,-3.3587,-3.2375,-3.1366,-3.1292,-3.1347,-3.1366,-3.1292,-3.1219,-3.1201,-3.1274,-3.1091,-3.0687,-3.0044,-3.0577,-3.0356,-2.8906,-2.9457,-2.9683,-2.9277,-2.9706,-2.9793,-2.937,-2.9835,-2.9751,-2.8994,-2.9732,-3.0099,-3.0099,-3.0033,-2.996,-2.9885,-2.9885,-2.981,-2.9681,-2.9681,-2.9787,-2.9995,-3.1547,-3.2219,-3.2365,-3.3182,-3.3452,-3.3592,-3.5131,-3.5693,-3.5706,0.0,0.0,0.0,0.0,0.0,0.0,0.0,0.0,0.0,0.0,0.0,0.0,0.0,0.0,0.0,0.0,0.0,0.0,0.0,-1.5781,-1.6328,-1.7488,-1.7551,-1.7331,-1.6829,-1.6655,-1.7003,-1.7868,-1.8523,-1.984,-2.1742,-2.2441,-2.3342,-2.4389,-2.5053,-2.5361,-2.5389,-2.5389,-2.5379,-2.5376,-2.5399,-2.5336,-2.5155,-2.453,-2.3629,0.0,0.0,0.0,0.0,0.0,0.0,0.0,-2.295,-2.3747,-2.4271,-2.4245,-2.4116,-2.3897,-2.3444,-2.29,0.0,-2.2892,-2.4371,-2.5927,-2.6688,-2.7879,-2.9053,-2.9879,-3.1035,-3.1916,-3.1916,-3.1623,-3.1182,-3.0558,-3.098,-3.1182,-3.0558,-2.9916,-2.9751,-3.0375,-2.8796,-2.7805,-2.8264,-2.7897,-2.7493,-2.7145,-2.7291,-2.7589,-2.8113,-2.8254,-2.8544,-2.9071,-2.9205,-2.9177,-2.8994,-2.9159,-2.925,0.0,-2.9185,-2.9137,-2.9065,-2.9016,-2.8941,-2.8866,-2.8866,-2.921,-2.9888,-3.0867,-3.1646,-3.2299,-3.3114,-3.3393,-3.352,-3.4516,-3.486,-3.4875,0.0,0.0,0.0,0.0,0.0,0.0,0.0,0.0,0.0,0.0,0.0,0.0,0.0,0.0,0.0,0.0,0.0,0.0,0.0,0.0,-1.6595,-1.76,-1.7646,-1.7229,-1.6371,-1.6373,-1.6816,-1.7656,-1.8131,-1.9465,-2.1581,-2.2436,-2.3309,-2.4174,-2.5039,-2.5415,-2.5443,-2.5443,-2.5423,-2.5371,-2.4974,-2.5096,-2.5416,-2.4563,-2.399,-2.3505,-2.263,0.0,0.0,0.0,0.0,0.0,0.0,0.0,-2.3701,-2.3603,-2.4148,-2.444,-2.2925,0.0,0.0,-2.3601,0.0,-2.5623,-2.6429,-2.6924,-2.7346,-2.7769,-2.9127,-3.0136,-2.9751,-2.9677,-2.9402,-2.8613,-2.8833,-2.8962,-2.8539,-2.8136,-2.8026,-2.8429,-2.7383,-2.6759,-2.7181,-2.6851,-2.6612,-2.6612,-2.6612,-2.6778,-2.72,-2.7236,-2.7585,-2.8411,-2.8429,-2.8613,-2.8994,-2.8994,-2.8994,-2.8994,-2.8905,-2.881,-2.8712,-2.8662,-2.8662,-2.8662,-2.8612,-2.8797,-2.9151,-3.0052,-3.0839,-3.1538,-3.2265,-3.2883,-3.3454,-3.4078,-3.4303,-3.4347,0.0,0.0,0.0,0.0,0.0,0.0,0.0,0.0,0.0,0.0,0.0,0.0,0.0,0.0,0.0,0.0,0.0,0.0,0.0,0.0,0.0,-1.7908,-1.794,-1.7472,-1.6458,-1.6488,-1.691,-1.774,-1.7788,-1.9128,-2.1642,-2.2504,-2.3303,-2.4026,-2.5,-2.5445,-2.5511,-2.5511,-2.5387,-2.5124,-2.4478,-2.4633,-2.5219,-2.4479,-2.4253,-2.4191,-2.3314,-2.2479,-2.1664,-2.0786,0.0,0.0,0.0,0.0,-2.2866,-2.2853,-2.393,-2.4586,-2.2114,0.0,-2.3474,-2.3729,-2.4281,0.0,-2.5805,-2.5878,-2.586,-2.6135,-2.7475,-2.8393,-2.7714,-2.7585,-2.7328,-2.6521,-2.6521,-2.6557,-2.641,-2.6392,-2.6447,-2.6594,-2.6355,-2.6245,-2.6374,-2.6282,-2.619,-2.619,-2.619,-2.6245,-2.6392,-2.6392,-2.6759,-2.7567,-2.7732,-2.8044,-2.8572,-2.8847,-2.892,-2.8773,-2.8803,-2.8761,-2.8637,-2.8612,-2.8637,-2.8669,-2.8612,-2.8466,-2.8336,-2.9314,-2.998,-3.0469,-3.1217,-3.2138,-3.3087,-3.3605,-3.3743,-3.3732,0.0,0.0,0.0,0.0,0.0,0.0,0.0,0.0,0.0,0.0,0.0,0.0,0.0,0.0,0.0,0.0,0.0,0.0,0.0,0.0,0.0,-1.8936,-1.891,-1.8181,-1.661,-1.6576,-1.7011,-1.7864,-1.7878,-1.9197,-2.1707,-2.2588,-2.3056,-2.3237,-2.4781,-2.5498,-2.5511,-2.5511,-2.5066,-2.4339,-2.4239,-2.4308,-2.4452,-2.4327,-2.4284,-2.42,-2.33,-2.2473,-2.1671,-2.0792,-2.0509,0.0,0.0,0.0,-2.2125,-2.2843,-2.3106,-2.3222,-2.3509,0.0,-2.2277,0.0,-2.2207,-2.2483,0.0,0.0,-2.2832,0.0,-2.5805,-2.6888,-2.6778,-2.6759,-2.6502,-2.5676,-2.6153,-2.6355,-2.5658,-2.5568,-2.5805,-2.6521,-2.5364,-2.4777,-2.5495,-2.4924,-2.452,-2.452,-2.452,-2.4814,-2.5531,-2.5568,-2.5915,-2.6741,-2.7438,-2.7512,-2.6943,-2.8297,-2.865,-2.797,-2.8599,-2.8858,-2.8761,-2.8712,-2.8662,-2.8612,-2.8612,-2.8422,-2.8201,-2.9015,-2.9283,-2.9281,-3.0695,-3.1344,-3.1603,-3.2606,-3.276,-3.2544,0.0,0.0,0.0,0.0,0.0,0.0,0.0,0.0,0.0,0.0,0.0,0.0,0.0,0.0,0.0,0.0,0.0,0.0,0.0,0.0,0.0,-1.9128,-1.8197,-1.7345,-1.6618,-1.6126,-1.653,-1.7893,-1.7909,-1.922,-2.1788,-2.2652,-2.331,-2.3778,-2.5007,-2.5279,-2.4858,-2.5316,-2.4999,-2.4161,-2.3676,-2.346,-2.3452,-2.3497,-2.349,-2.342,-2.311,-2.2808,-2.2321,-2.0957,-2.0516,-2.0558,-2.0514,0.0,0.0,0.0,-2.3387,-2.3415,-2.2119,-2.1597,-2.1249,0.0,-2.1123,-2.1894,-2.2244,-2.2042,-2.2005,-2.2703,-2.3419,-2.419,-2.5089,-2.5254,-2.5144,-2.4777,-2.5016,-2.5126,-2.4777,-2.4722,-2.485,-2.5217,-2.463,-2.4337,-2.4685,-2.441,-2.419,-2.419,-2.419,-2.4355,-2.4704,-2.4722,-2.5089,-2.5897,-2.6264,-2.6502,-2.6612,-2.7533,-2.7924,-2.7813,-2.7949,-2.8148,-2.843,-2.8644,-2.8712,-2.8644,-2.8612,-2.8344,-2.7961,-2.8421,-2.8658,-2.8757,-2.9323,-3.0256,-3.1228,-3.1459,-3.1725,-3.1967,0.0,0.0,0.0,0.0,0.0,0.0,0.0,0.0,0.0,0.0,0.0,0.0,0.0,0.0,0.0,0.0,0.0,0.0,0.0,0.0,0.0,-1.878,-1.7593,-1.6723,-1.6309,-1.5663,-1.6188,-1.7939,-1.7913,-1.9341,-2.214,-2.2796,-2.3653,-2.4676,-2.5313,-2.5238,-2.4665,-2.5253,-2.4995,-2.409,-2.299,-2.2479,-2.2343,-2.1948,-2.1855,-2.2011,-2.241,0.0,0.0,0.0,0.0,-2.0623,-2.0775,-2.1718,0.0,0.0,0.0,-2.3859,0.0,0.0,-2.1098,-1.9982,-2.0626,-2.1535,0.0,0.0,-2.1288,0.0,-2.162,-2.1896,-2.3327,-2.3749,-2.3896,-2.3896,-2.4061,-2.419,-2.419,-2.419,-2.419,-2.419,-2.419,-2.419,-2.419,-2.419,-2.419,-2.419,-2.419,-2.419,-2.419,-2.419,-2.4483,-2.509,-2.5293,-2.5585,-2.5988,-2.6413,-2.6882,-2.7378,-2.7259,-2.7384,-2.7762,-2.8116,-2.8286,-2.8286,-2.8504,-2.8157,-2.7507,-2.7837,-2.8012,-2.804,-2.8148,-2.9178,-3.0645,-3.0612,-3.0986,-3.1582,0.0,0.0,0.0,0.0,0.0,0.0,0.0,0.0,0.0,0.0,0.0,0.0,-1.4386,-1.4589,-1.4754,-1.4895,0.0,0.0,0.0,0.0,0.0,-1.794,-1.7835,0.0,-1.5491,-1.5426,-1.6242,-1.7994,-1.793,-1.9653,-2.3035,-2.3088,-2.3996,-2.5636,-2.5609,-2.5561,-2.5537,-2.5505,-2.5001,-2.4057,-2.2275,-2.1457,-2.109,-1.9388,-1.9113,-1.9825,0.0,0.0,0.0,0.0,0.0,0.0,-2.1485,-2.18,-2.2192,0.0,0.0,0.0,0.0,-2.2633,0.0,-2.1128,-2.0834,-2.0807,0.0,0.0,-1.9892,-2.1472,-2.1143,-2.0849,-2.1749,-2.2556,-2.307,-2.307,-2.3694,-2.419,-2.419,-2.419,-2.419,-2.419,-2.419,-2.419,-2.419,-2.419,-2.419,-2.419,-2.419,-2.419,-2.419,-2.419,-2.4208,-2.4263,-2.5017,-2.5054,-2.4337,-2.4802,-2.5407,-2.6183,-2.668,-2.6872,-2.679,-2.6872,-2.6961,-2.7136,-2.8149,-2.7826,-2.6619,-2.7385,-2.7338,-2.6843,-2.7571,-2.8351,-2.9255,-3.0211,-3.0874,-3.1252,0.0,0.0,0.0,0.0,0.0,0.0,0.0,0.0,0.0,0.0,0.0,0.0,0.0,-1.4526,-1.491,-1.5621,-1.707,0.0,0.0,0.0,0.0,-1.9432,-1.8449,-1.7607,-1.6952,-1.5922,-1.6242,-1.8008,-1.7978,-1.9445,-2.2269,-2.2266,-2.3194,-2.4892,-2.5386,-2.5289,-2.4802,-2.5349,-2.5059,-2.4094,-2.2109,-2.0887,-2.0243,0.0,0.0,0.0,0.0,0.0,0.0,0.0,0.0,0.0,-2.23,-2.2578,-2.2687,-2.3318,-2.3534,-2.3222,0.0,0.0,0.0,-2.1282,-2.1001,-2.0842,-2.0774,-1.9987,-1.947,-2.0076,-1.995,-1.9822,-2.015,-2.1308,-2.2226,-2.2226,-2.2464,-2.2648,-2.2648,-2.2648,-2.285,-2.3382,-2.3437,-2.3639,-2.4153,-2.419,-2.419,-2.419,-2.419,-2.419,-2.419,-2.419,-2.419,-2.419,-2.4483,-2.4504,-2.4275,-2.4172,-2.4456,-2.5147,-2.5702,-2.5888,-2.5684,-2.6425,-2.6224,-2.5397,-2.6358,-2.6694,-2.6571,-2.6823,-2.684,-2.6776,-2.752,-2.7994,-2.8383,-2.9748,-3.0357,-3.0603,0.0,0.0,0.0,0.0,0.0,0.0,0.0,0.0,0.0,-1.4172,0.0,0.0,0.0,0.0,-1.5808,-1.6843,-1.8117,-1.903,-1.9381,-1.9938,-2.0157,-1.988,-1.8834,-1.8003,-1.7413,-1.6355,-1.6503,-1.7964,-1.7977,-1.9285,-2.1792,-2.1776,-2.2702,-2.4417,-2.4948,-2.4997,-2.4778,-2.5341,-2.5277,-2.4496,-2.1794,0.0,-2.0561,0.0,0.0,0.0,0.0,0.0,0.0,0.0,0.0,0.0,-2.2328,-2.3281,-2.3818,-2.355,-2.3496,0.0,-2.1668,0.0,0.0,0.0,-2.1415,-2.1288,-2.0649,0.0,-1.9415,-1.9331,-1.9087,-1.8977,-1.9234,-2.0223,-2.105,-2.1308,-2.1602,-2.1803,-2.1803,-2.1803,-2.1987,-2.2538,-2.2593,-2.2813,-2.3327,-2.3639,-2.3804,-2.3804,-2.4043,0.0,-2.419,-2.419,-2.4151,-2.4054,-2.3917,-2.388,-2.3943,-2.3549,-2.3566,-2.3978,-2.458,-2.4774,-2.4591,-2.5331,-2.5181,-2.4337,-2.5034,-2.5631,-2.6072,-2.6391,-2.6567,-2.6742,-2.7249,-2.7588,-2.7941,-2.9262,-2.9888,-3.0226,0.0,0.0,0.0,0.0,0.0,0.0,0.0,0.0,-1.4198,-1.4181,0.0,0.0,0.0,0.0,0.0,-1.8507,-1.8745,-1.922,-2.0125,-2.019,-1.9857,-1.9071,0.0,0.0,-1.6695,-1.6654,-1.7054,-1.7922,-1.7921,-1.9249,-2.1753,-2.1682,-2.2613,-2.4323,-2.4277,-2.4739,-2.5571,-2.559,-2.5595,-2.5258,0.0,-2.0823,-2.2006,0.0,0.0,0.0,-1.9396,-1.8916,0.0,-1.8995,0.0,0.0,0.0,-2.3898,-2.5432,-2.4638,-2.4406,0.0,0.0,0.0,0.0,0.0,0.0,0.0,-2.025,0.0,-1.9649,-1.9374,-1.868,-1.8353,-1.9087,-1.9234,-1.951,-2.0301,-2.1161,-2.1729,-2.1729,-2.1729,-2.1748,-2.1766,-2.1766,-2.1784,-2.1803,-2.2501,-2.296,-2.296,-2.3712,-2.4153,-2.4153,-2.419,-2.4016,-2.3692,-2.3369,-2.3189,-2.3189,-2.2873,-2.2721,-2.2712,-2.3326,-2.3562,-2.3459,-2.3619,-2.3843,-2.4077,-2.437,-2.4664,-2.504,-2.6079,-2.6597,-2.6691,-2.6725,-2.7165,-2.7892,-2.8687,-2.9431,-3.0142,0.0,0.0,0.0,0.0,0.0,-1.4678,-1.5227,-1.4719,-1.4665,0.0,0.0,0.0,-1.6406,-1.7409,-1.8204,-1.8572,-1.9206,-1.9732,-2.0039,-2.005,-1.9986,-1.979,-1.9239,-1.8721,-1.8262,-1.7744,-1.7868,-1.8691,-1.8732,-1.9436,-2.073,-2.0742,-2.1359,-2.2467,-2.3097,-2.3869,-2.4763,-2.5352,0.0,-2.5317,-2.1976,-2.059,0.0,0.0,0.0,0.0,0.0,-1.8148,-1.8872,0.0,-1.9614,-2.2672,0.0,0.0,-2.537,-2.4551,-2.4335,0.0,-2.4022,0.0,0.0,0.0,0.0,0.0,0.0,0.0,-2.0307,-1.9659,-1.9214,-1.8684,-1.7734,-1.8041,-1.85,-1.8739,-1.9455,-2.0003,-2.0003,-2.0003,-2.0207,-2.0794,-2.0868,-2.1106,-2.1748,-2.1987,-2.2116,0.0,-2.2887,-2.3327,-2.3327,-2.3648,-2.3692,-2.3346,-2.3236,-2.3093,-2.2848,-2.2996,-2.2883,-2.248,-2.3426,-2.3485,-2.2728,-2.334,-2.3374,-2.3003,-2.3789,-2.4128,-2.4201,-2.5869,-2.6628,-2.6742,-2.73,-2.73,-2.7165,-2.8501,-2.8755,-2.8569,0.0,0.0,0.0,0.0,0.0,-1.5105,-1.5548,-1.5446,-1.5614,0.0,0.0,0.0,-1.7797,-1.8544,-1.9008,-1.9068,-1.9552,-1.9862,-1.9904,-1.9974,-2.0038,-2.0092,-1.9677,-1.9297,-1.8992,-1.8513,-1.8528,-1.9036,-1.9052,-1.9503,-2.035,-2.0355,-2.1012,-2.2226,-2.2769,-2.3702,-2.4924,0.0,0.0,0.0,-2.2435,0.0,0.0,-1.7548,-1.6272,0.0,0.0,0.0,-1.8304,-1.6333,-1.8805,0.0,0.0,0.0,0.0,0.0,0.0,0.0,0.0,0.0,0.0,0.0,0.0,0.0,-2.3392,-2.1933,-2.0301,0.0,-1.8304,-1.7417,-1.7839,-1.755,-1.7257,-1.7257,-1.8133,-1.8922,-1.9234,-1.9305,-1.9473,-1.995,-2.0005,-2.0207,-2.0719,-2.1051,-2.1253,-2.1253,-2.2024,-2.2575,-2.2773,-2.3256,-2.3346,-2.2996,-2.2883,-2.2747,-2.2554,-2.2721,-2.266,-2.2366,-2.3024,-2.3007,-2.2422,-2.2903,-2.2907,-2.262,-2.3952,-2.4219,-2.383,-2.6045,-2.6671,-2.6335,-2.7046,-2.708,-2.6843,-2.8044,-2.8213,-2.7941,0.0,0.0,-1.4508,-1.4548,-1.5135,-1.5613,-1.566,-1.6301,-1.6789,0.0,-1.7596,-1.8437,-1.9313,-1.9587,-1.9694,-1.9673,-1.9745,-1.9794,-1.9794,-1.9903,-2.0012,-2.0075,-2.017,-1.9902,-1.9246,-1.911,-1.91,-1.9224,-1.9173,-1.9624,-2.0528,-2.0371,-2.1181,-2.2764,-2.2929,0.0,0.0,0.0,0.0,-2.5464,-2.2905,-2.2153,0.0,0.0,-1.6263,-1.8877,-1.6817,-1.6638,-1.7137,-1.5577,-1.7318,0.0,0.0,0.0,0.0,0.0,-2.4824,0.0,0.0,0.0,0.0,0.0,0.0,0.0,-2.2726,-2.1597,-2.0205,0.0,-1.731,-1.6187,-1.8867,-1.7882,-1.6667,-1.6674,-1.749,-1.8384,-1.9066,-1.9234,-1.9305,-1.9305,-1.9305,-1.9305,-1.9305,-1.995,-2.0356,-2.0356,-2.1161,-2.1881,-2.2422,-2.2758,-2.2845,-2.2643,-2.2341,-2.2226,-2.231,-2.231,-2.231,-2.231,-2.2366,-2.2394,-2.2377,-2.2487,-2.2542,-2.2691,-2.4398,-2.4559,-2.379,-2.6135,-2.653,-2.5773,-2.6437,-2.6691,-2.6776,-2.7452,-2.7689,-2.7892,0.0,-1.4718,-1.4566,-1.4791,-1.5295,-1.5905,-1.6599,-1.6932,-1.7511,-1.8696,-1.9098,-1.9326,-1.9462,-1.9564,-1.9592,-1.9546,-1.9606,-1.9638,-1.9638,-1.9817,-1.9926,-1.9951,-2.0158,-2.0192,-1.9993,-2.0012,-2.0002,-1.9983,-2.0034,-2.0465,-2.1278,-2.0618,-2.0866,-2.1896,-2.2656,-2.3192,0.0,0.0,0.0,-2.55,-2.4159,0.0,-2.0406,-1.817,-1.6385,-1.4964,-1.4367,-1.521,-1.6801,-1.8035,-1.7895,-1.7813,0.0,0.0,0.0,-2.3812,0.0,0.0,0.0,0.0,0.0,0.0,0.0,0.0,-2.2862,-2.2496,-2.1876,0.0,-2.0839,-2.0562,-1.9919,-1.997,-2.0145,-2.0196,-1.9198,-1.839,-1.8333,-1.8886,-1.9305,-1.9305,-1.9305,-1.9305,-1.9305,-1.9436,-1.9528,-1.9528,-2.0299,-2.1152,-2.2052,-2.1617,-2.168,-2.2354,-2.1756,-2.1701,-2.231,-2.231,-2.231,-2.231,-2.2366,-2.2366,-2.2338,-2.2515,-2.2569,-2.2593,-2.3615,-2.3926,-2.3762,-2.479,-2.5388,-2.5676,-2.6404,-2.6691,-2.6708,-2.686,-2.6911,-2.6962,-1.5108,-1.4797,-1.4627,-1.4863,-1.5375,-1.6032,-1.6916,-1.7507,-1.8268,-1.9405,-1.969,-1.9738,-1.962,-1.9665,-1.9607,-1.9423,-1.9464,-1.9541,-1.9645,-1.982,-1.9931,-2.0055,-2.0234,-2.0328,-2.0306,-2.0302,-2.0296,-2.0304,-2.0292,-2.0527,-2.0939,-2.0545,-2.0873,-2.1813,-2.2187,-2.2745,0.0,0.0,-2.4948,-2.4836,-2.3533,0.0,-2.0642,-1.7386,-1.5276,-1.4024,-1.381,-1.4355,-1.5356,-1.6694,-1.7548,0.0,0.0,-1.9451,-2.1401,0.0,-2.2153,-2.1623,0.0,0.0,0.0,-2.1851,0.0,0.0,0.0,-2.1556,-2.1574,-2.201,-2.236,-2.2346,-2.1508,-2.0504,-1.9805,-1.9791,-1.8955,-1.8482,-1.8983,-1.8491,-1.8262,-1.8647,-1.8702,-1.8849,-1.9253,-1.9305,-1.9305,-1.9305,-2.006,-2.0608,-2.0831,-2.0888,-2.1144,-2.1729,-2.138,-2.1549,-2.231,-2.231,-2.231,-2.231,-2.2338,-2.2338,-2.231,-2.2432,-2.2515,-2.2549,-2.3395,-2.3526,-2.3258,-2.4333,-2.4927,-2.5167,-2.5862,-2.637,-2.6742,-2.7114,-2.7012,-2.681,-1.5233,-1.4903,-1.4714,-1.4911,-1.5576,-1.6328,-1.7043,-1.8107,-1.9064,-1.9714,-1.9909,-1.9846,-1.9503,-1.9481,-1.9313,-1.8871,-1.8968,-1.9182,-1.9431,-1.9759,-2.0025,-2.0171,-2.0335,-2.0421,-2.0429,-2.0353,-2.0353,-2.0404,-2.0347,-2.0432,-2.0659,-2.048,-2.094,-2.1928,-2.1813,-2.2478,0.0,0.0,0.0,-2.4384,0.0,-2.1969,-2.1576,-1.6948,-1.506,-1.4812,-1.4172,-1.3913,-1.4,-1.4928,-1.6965,-1.8654,-1.5977,-1.8106,0.0,0.0,0.0,0.0,0.0,0.0,0.0,0.0,0.0,-2.0398,0.0,0.0,0.0,-2.2334,-2.2752,0.0,0.0,0.0,0.0,0.0,0.0,0.0,0.0,-1.8289,0.0,-1.8783,-1.8573,-1.8673,-1.953,-1.9608,-1.9523,-1.9323,-2.0052,-2.026,-1.9717,-2.0259,-2.0784,-2.1187,-2.1204,-2.1549,-2.231,-2.231,-2.231,-2.231,-2.231,-2.231,-2.231,-2.2377,-2.2432,-2.2521,-2.3185,-2.3213,-2.2887,-2.3967,-2.4496,-2.4686,-2.5353,-2.6048,-2.6776,-2.7385,-2.7215,-2.6877,-1.5381,-1.5057,-1.4863,-1.5111,-1.6258,-1.7185,-1.7339,-1.8862,-2.0039,-2.0136,-2.0009,-1.9585,-1.8726,-1.8473,-1.8061,-1.7235,-1.7611,-1.8069,-1.8523,-1.9554,-2.0156,-2.0104,-2.0352,-2.0487,-2.0487,-2.0413,-2.0383,-2.0391,-2.0388,-2.0789,-2.154,-2.0768,-2.0842,-2.1662,-2.1926,-2.2418,0.0,0.0,-2.4432,0.0,-2.2825,-2.2226,0.0,-1.9981,-1.8377,-1.7098,-1.4873,-1.3927,-1.4012,0.0,-1.6736,-1.7553,0.0,-1.9658,-1.8478,-2.2715,0.0,0.0,0.0,0.0,0.0,0.0,-2.0453,0.0,0.0,0.0,-2.1494,-2.1636,0.0,0.0,0.0,0.0,0.0,0.0,0.0,0.0,-2.0151,-1.8595,-1.8567,-2.1642,-2.0318,-1.9573,-2.0625,-2.0715,-2.0319,-1.9357,-2.0055,-2.0276,-1.9737,-1.9555,-2.0015,-2.1153,-2.1204,-2.1549,-2.231,-2.231,-2.231,-2.231,-2.231,-2.231,-2.231,-2.2432,-2.246,-2.2422,-2.2627,-2.2997,-2.3454,-2.2959,-2.3499,-2.4669,-2.5399,-2.6114,-2.6708,-2.6793,-2.6776,-2.6725,-1.5408,-1.5163,-1.5054,-1.5287,-1.572,-1.6394,-1.7474,-1.9155,-2.0333,-2.0373,-2.0311,-2.0055,-1.9545,-1.9409,0.0,0.0,0.0,-1.8239,0.0,0.0,-1.9632,-2.0291,-2.0447,-2.0495,-2.0502,-2.0473,-2.0454,-2.0463,-2.0463,-2.0644,-2.099,-2.0584,-2.0581,-2.0919,-2.1047,0.0,-2.1502,0.0,-2.3368,0.0,0.0,0.0,0.0,-2.1045,-1.6469,-1.1559,-1.0525,-1.1884,-1.426,0.0,-1.7122,0.0,0.0,0.0,0.0,0.0,0.0,0.0,0.0,0.0,0.0,0.0,0.0,0.0,-2.039,0.0,-2.0848,0.0,0.0,0.0,0.0,0.0,0.0,0.0,-2.0482,0.0,0.0,0.0,-1.9509,0.0,0.0,0.0,-2.0079,-2.0043,-1.9792,-1.9323,-1.9494,-1.9464,-1.9082,-1.9202,-1.9676,-2.0467,-2.0957,-2.1549,-2.231,-2.231,-2.231,-2.231,-2.231,-2.231,-2.2366,-2.2422,-2.246,-2.246,-2.2569,-2.2767,-2.2997,-2.2743,-2.3157,-2.4096,-2.4815,-2.5518,-2.6167,-2.7029,-2.7063,-2.6759,-1.5384,0.0,0.0,-1.5356,-1.5448,-1.6112,-1.7901,-1.9251,-2.0169,-2.0467,-2.0441,-2.0283,-1.9903,-1.9576,0.0,0.0,-1.7499,-1.7497,0.0,0.0,-1.92,-2.0455,-2.0496,-2.0495,-2.0507,-2.0495,-2.0504,-2.05,-2.0492,-2.05,-2.051,-2.046,-2.0438,-2.0447,-2.0722,-2.0877,-2.0917,0.0,-2.2775,-2.416,-2.2901,-2.2868,-2.3425,-2.205,-1.6435,-0.8934,-0.6255,-0.7549,-1.0702,-1.1743,-1.5533,0.0,-1.6973,0.0,0.0,0.0,0.0,0.0,-2.1287,0.0,0.0,0.0,0.0,0.0,0.0,0.0,0.0,0.0,0.0,0.0,0.0,0.0,0.0,0.0,0.0,-1.9953,0.0,-1.975,0.0,0.0,0.0,0.0,0.0,-1.9771,-1.9681,-1.9328,0.0,-1.9092,-1.8529,-1.913,-1.9651,-1.9985,-2.0991,-2.1752,-2.231,-2.231,-2.231,-2.231,-2.231,-2.2338,-2.2377,-2.2377,-2.2422,-2.246,-2.2542,-2.2579,-2.2596,-2.2649,-2.2904,-2.3386,-2.4079,-2.4737,-2.5473,-2.6962,-2.7165,-2.6776,-1.5316,-1.5346,0.0,-1.5312,-1.5996,-1.7129,-1.8808,-1.9158,-1.9549,-2.0389,0.0,0.0,0.0,0.0,0.0,0.0,0.0,-1.4958,-1.5748,0.0,-1.9099,-2.0449,-2.0504,-2.0511,-2.0507,-2.0495,-2.0492,-2.0503,-2.0492,-2.0508,-2.0492,-2.05,-2.0506,-2.0541,-2.1588,-2.205,-2.2031,-2.1933,-2.327,-2.5441,-2.5466,-2.2646,-1.8959,0.0,-2.077,-1.3039,-0.3616,0.0,0.0,-0.591,-1.0734,0.0,0.0,0.0,0.0,0.0,0.0,0.0,0.0,0.0,0.0,-2.2578,0.0,0.0,0.0,0.0,-2.0292,0.0,0.0,0.0,0.0,0.0,0.0,0.0,0.0,0.0,0.0,0.0,0.0,0.0,0.0,0.0,0.0,-2.0652,-2.0626,0.0,-1.9834,-1.959,-1.8283,-1.932,-1.9968,-2.0002,-2.1454,-2.2293,-2.231,-2.231,-2.231,-2.231,-2.231,-2.231,-2.231,-2.2366,-2.2366,-2.231,-2.2432,-2.2515,-2.2515,-2.2515,-2.2532,-2.259,-2.3283,-2.3956,-2.4726,-2.6184,-2.6708,-2.6691,0.0,0.0,0.0,0.0,0.0,-1.6313,-1.8049,-1.8857,0.0,0.0,-1.9284,0.0,0.0,-1.7315,-1.6664,0.0,0.0,-1.5207,-1.5487,-1.6838,0.0,-1.8094,-1.9606,-2.0073,-1.9329,-2.0,-2.0377,-2.0375,-2.0371,-2.039,-2.0455,-2.1011,-2.102,-2.0551,-2.1626,-2.2324,0.0,0.0,0.0,0.0,0.0,-2.3759,-2.0133,0.0,-0.7087,-0.4475,-0.1174,-0.4126,0.0,-0.7812,-1.1592,-1.7037,-1.7585,-1.8724,-1.974,-1.9174,-1.8999,0.0,0.0,0.0,-1.9813,-2.1495,0.0,0.0,0.0,0.0,0.0,0.0,0.0,0.0,0.0,0.0,0.0,0.0,0.0,0.0,0.0,0.0,0.0,0.0,0.0,0.0,0.0,0.0,0.0,0.0,-1.8747,0.0,-1.8214,-1.9348,-2.0002,-2.0002,-2.1488,-2.231,-2.231,-2.231,-2.231,-2.231,-2.231,-2.2338,-2.2366,-2.2338,-2.2366,-2.2432,-2.2487,-2.2542,-2.2569,-2.2569,-2.2542,-2.2556,-2.3249,-2.3604,-2.3934,-2.5423,-2.5981,-2.5898,-1.5352,0.0,0.0,0.0,0.0,0.0,0.0,0.0,0.0,0.0,-1.8673,0.0,-1.701,0.0,-1.6152,0.0,-1.5068,-1.503,-1.538,-1.6135,0.0,-1.5972,-1.7745,-1.8292,0.0,-1.8896,-2.0077,-2.08,-2.0744,-2.0756,-2.0795,-2.1406,-2.1414,-2.099,-2.2266,-2.2896,-2.2935,-2.2363,-1.9172,0.0,0.0,-2.4352,0.0,0.0,-0.6344,0.0,0.0,-0.4016,-0.9397,-0.9753,-1.298,-1.6701,-1.5611,-1.6895,-1.8648,-1.7767,-1.7933,-1.8628,-1.9618,-1.9172,0.0,-2.1206,-2.1204,0.0,-2.2072,0.0,0.0,0.0,0.0,0.0,0.0,0.0,0.0,0.0,0.0,0.0,0.0,-1.687,0.0,0.0,0.0,0.0,0.0,0.0,0.0,-1.6336,-1.7601,-1.8463,0.0,-1.9423,-2.0128,-2.043,-2.1646,-2.231,-2.231,-2.231,-2.231,-2.231,-2.231,-2.2338,-2.2349,-2.2338,-2.2377,-2.246,-2.2515,-2.2569,-2.2605,-2.2579,-2.2542,-2.2538,-2.2932,-2.3202,-2.3579,-2.5067,-2.5663,-2.5631,-1.5303,-1.5256,0.0,0.0,-1.5303,0.0,0.0,0.0,-1.7974,0.0,-1.8367,-1.7998,-1.6583,-1.5741,-1.53,-1.5294,-1.4428,-1.4282,-1.5234,-1.5353,0.0,0.0,-1.5243,-1.5497,-1.4774,-1.7365,-1.9723,-2.1782,-2.1579,-2.1507,-2.1558,-2.1686,-2.1756,-2.1821,-2.3517,0.0,-2.282,-2.1791,-1.8426,-1.4398,-2.1498,-2.3143,-2.205,-2.8249,-1.849,-0.1373,-0.0367,0.0,-0.1412,-1.0673,-1.3937,-1.4187,-1.4414,-1.4488,-1.4666,-1.5447,-1.5691,-1.6262,-1.8812,-1.8937,-1.8972,-2.1554,-2.1013,0.0,0.0,0.0,-2.0035,0.0,0.0,0.0,0.0,0.0,0.0,0.0,0.0,0.0,0.0,0.0,0.0,0.0,0.0,0.0,0.0,-1.9933,-1.7849,-1.333,-1.6602,-1.8818,0.0,-1.9596,-2.0372,-2.1122,-2.1877,-2.231,-2.231,-2.231,-2.231,-2.231,-2.231,-2.231,-2.231,-2.2366,-2.2394,-2.2422,-2.2542,-2.2596,-2.2596,-2.2542,-2.2515,-2.2487,-2.2366,-2.275,-2.3562,-2.4983,-2.5732,-2.5867,-1.5365,-1.5369,-1.5345,0.0,-1.5327,-1.5659,0.0,0.0,0.0,0.0,-1.6049,-1.5532,-1.408,-1.3926,-1.3906,-1.3906,-1.3677,0.0,0.0,0.0,0.0,-1.3648,-1.5345,-1.6047,-1.5447,-1.7838,-2.0324,-2.289,-2.1808,-2.1634,-2.2325,-2.2445,-2.2538,-2.2667,0.0,-2.4288,-2.2544,-1.7264,-1.0665,-0.389,-0.5799,-0.6259,-0.7595,0.0,-2.7329,-2.0753,-0.5474,0.0,-0.0385,-0.2879,-0.6135,-0.9772,-1.338,-1.4488,-1.4671,-1.5459,-1.5704,-1.5852,-1.6544,-1.6571,-1.6918,-1.8984,-1.9182,-1.9357,0.0,0.0,0.0,0.0,0.0,0.0,0.0,0.0,0.0,0.0,0.0,0.0,0.0,0.0,0.0,-1.7489,0.0,0.0,0.0,-1.4665,-1.3558,-1.5487,-1.768,-1.8699,-1.8104,0.0,-2.0412,-2.0305,-2.1606,-2.231,-2.231,-2.231,-2.231,-2.231,-2.231,-2.231,-2.231,-2.231,-2.2349,-2.2405,-2.2487,-2.2552,-2.2605,-2.2579,-2.2525,-2.2487,-2.2422,-2.2779,-2.3444,-2.3833,-2.4525,-2.5089,-1.539,-1.5406,0.0,-1.54,0.0,0.0,-1.6054,-1.6659,0.0,-1.5719,-1.5722,0.0,-1.3936,-1.3464,-1.326,-1.3379,-1.3396,0.0,-1.4117,0.0,0.0,-1.3504,-1.4126,-1.4147,-1.3392,-1.606,0.0,-2.3869,-2.3095,-2.2673,-2.2519,-2.2656,-2.2783,-2.2968,0.0,-2.4541,-2.3296,-1.1951,-0.4387,0.0,0.0,0.0,0.0,-1.2823,-2.2784,-2.7909,-0.7369,0.0,0.0,0.0,-0.3256,-0.7769,-1.0461,-1.2775,-1.4653,-1.5447,-1.546,-1.5325,-1.6041,-1.571,-1.5605,-1.7353,-1.7792,-1.8239,-1.9924,-2.0025,-2.0068,0.0,0.0,0.0,0.0,0.0,0.0,0.0,0.0,0.0,0.0,0.0,0.0,0.0,-1.7884,0.0,0.0,-1.4788,-1.4557,-1.6947,-1.8426,-1.9111,-1.8821,0.0,-2.0673,-2.0725,-2.1759,-2.231,-2.231,-2.231,-2.231,-2.231,-2.231,-2.231,-2.231,-2.2338,-2.2349,-2.2405,-2.246,-2.2542,-2.2605,-2.2569,-2.2525,-2.2487,-2.2377,-2.2592,-2.2924,-2.308,-2.3834,-2.4582,-1.5401,-1.5409,0.0,0.0,0.0,0.0,0.0,-1.6428,0.0,-1.5734,0.0,-1.5619,-1.4574,-1.3549,-1.3033,-1.3278,0.0,-1.3717,-1.4702,-1.3852,-1.3344,-1.3457,-1.2489,-1.1545,-1.0716,-1.3726,-1.7848,0.0,0.0,-2.396,-2.2568,-2.2592,-2.2694,-2.2924,0.0,0.0,0.0,-0.9624,-0.2038,0.0,0.0,0.0,0.0,0.0,-1.1063,-2.4254,-0.6402,0.0,0.0,0.0,-0.2833,-0.6549,-0.7778,-1.1077,-1.4634,-1.5331,-1.505,-1.4799,-1.6211,-1.5551,-1.4854,-1.6376,-1.6743,-1.7021,-1.8069,-1.8884,-1.9435,-1.9544,-1.9458,-1.9354,0.0,0.0,0.0,0.0,0.0,0.0,0.0,0.0,0.0,0.0,0.0,0.0,0.0,-1.7282,-1.7568,-1.7568,-1.8697,-1.9479,-1.9717,0.0,-2.0868,-2.1452,-2.1926,-2.2209,-2.231,-2.231,-2.231,-2.231,-2.231,-2.231,-2.231,-2.2366,-2.2394,-2.2377,-2.246,-2.2542,-2.2569,-2.2542,-2.2515,-2.2487,-2.2366,-2.231,-2.2338,-2.267,-2.3358,-2.4019,-1.5518,0.0,0.0,0.0,0.0,-1.447,-1.3689,-1.3315,-1.3067,-1.2911,-1.2884,-1.2829,-1.2671,-1.2662,-1.2687,-1.2743,-1.2743,0.0,0.0,0.0,0.0,-1.2771,-1.2367,-1.2175,-1.2205,-1.4654,-1.5471,0.0,0.0,0.0,-2.3463,-2.2876,-2.2675,0.0,0.0,0.0,-2.5212,-2.2158,0.0,0.0,0.0,0.0,0.0,0.0,-0.2224,-0.4893,-0.1296,0.0,0.0,0.0,-0.057,-0.2683,-1.0703,-1.3803,-1.4524,-1.4671,-1.4616,-1.4561,-1.4836,-1.4708,-1.4738,-1.5674,-1.5912,-1.625,-1.7538,-1.8109,-1.8549,-1.9212,-1.8652,-1.8335,-1.9364,0.0,0.0,0.0,0.0,0.0,0.0,0.0,0.0,0.0,0.0,-1.8217,0.0,0.0,-1.5969,-1.6287,-1.7821,-1.8459,0.0,0.0,-2.0228,0.0,-2.101,0.0,0.0,0.0,-2.231,-2.231,-2.231,-2.231,-2.231,-2.231,-2.231,-2.2338,-2.2432,-2.2487,-2.2432,-2.2542,-2.2515,-2.2405,-2.2338,-2.231,-2.2338,-2.2762,-2.2784,-2.2746,-1.6064,0.0,0.0,0.0,0.0,0.0,0.0,-1.1103,-1.1221,-1.2683,-1.2852,-1.2963,-1.3299,-1.2783,-1.2455,-1.2646,-1.261,-1.261,-1.2665,-1.261,-1.2533,-1.2412,-1.2271,-1.219,-1.2195,-1.1278,-1.1333,-1.2407,0.0,0.0,-2.302,0.0,0.0,-2.2186,0.0,-2.4394,0.0,0.0,0.0,-1.2344,-0.3538,0.0,0.0,0.0,0.0,0.0,0.0,0.0,0.0,0.0,0.0,-0.0825,-0.5502,-0.8718,-1.0929,-1.1764,-1.2003,-1.237,-1.4059,-1.4488,-1.4701,-1.549,-1.6004,-1.6597,-1.766,-1.8335,-1.8831,-1.9216,-1.8886,-1.8742,-1.9473,-1.8595,0.0,0.0,0.0,0.0,0.0,0.0,0.0,0.0,0.0,0.0,0.0,0.0,0.0,0.0,0.0,0.0,0.0,0.0,-2.0188,0.0,0.0,0.0,-2.231,0.0,-2.231,-2.231,-2.231,-2.231,-2.231,-2.231,-2.231,-2.231,-2.2366,-2.2405,-2.2422,-2.246,-2.246,-2.2388,-2.2338,-2.231,-2.2338,-2.2531,-2.2411,-2.2244,-1.6051,-1.59,0.0,0.0,-1.2293,-1.1383,-1.0354,-0.977,-1.0237,-1.2419,-1.2796,-1.3047,-1.3595,-1.2684,-1.2113,-1.2396,-1.2435,-1.2455,-1.253,-1.2475,-1.2336,-1.2107,-1.2107,-1.2018,-1.179,-0.8737,-0.8014,0.0,0.0,0.0,0.0,0.0,0.0,0.0,0.0,0.0,0.0,0.0,-2.1671,-1.8766,-0.5384,0.0,0.0,0.0,0.0,0.0,0.0,0.0,0.0,0.0,0.0,0.0,0.0,-0.2649,-0.5997,-0.7261,-0.911,-1.1269,-1.382,-1.4488,-1.4701,-1.549,-1.6188,-1.689,-1.7876,-1.8592,-1.9087,-1.9253,-1.9161,-1.9036,-1.9021,-1.8305,0.0,0.0,0.0,0.0,0.0,0.0,0.0,0.0,0.0,0.0,-1.8632,0.0,0.0,0.0,0.0,0.0,-1.8846,0.0,0.0,0.0,0.0,-2.1447,-2.217,0.0,-2.231,-2.231,-2.231,-2.231,-2.231,-2.231,-2.231,-2.231,-2.231,-2.2349,-2.2405,-2.2377,-2.2377,-2.2388,-2.2321,-2.2254,-2.219,-2.2131,-2.2052,-2.1929,0.0,0.0,0.0,0.0,0.0,-1.0479,-1.0228,-0.9849,-0.9716,-1.0097,-1.0472,-1.0832,-1.1201,-1.131,-1.1431,-1.152,-1.1732,-1.1897,-1.1976,-1.1897,-1.1854,-1.1848,-1.1848,-1.1826,-1.1805,-1.1446,-0.7943,0.0,0.0,-2.4885,0.0,0.0,0.0,0.0,0.0,0.0,0.0,-1.3871,-0.9433,-0.223,-0.0634,0.0,0.0,0.0,0.0,0.0,0.0,0.0,0.0,0.0,0.0,0.0,0.0,-0.0313,-0.0717,-0.0864,-0.7158,-1.4132,-1.4414,-1.4488,-1.4701,-1.549,-1.5747,-1.6206,-1.7748,-1.817,-1.8427,-1.9143,-1.872,-1.8001,-1.7278,-1.8227,-1.9295,0.0,0.0,0.0,0.0,0.0,-1.9462,-1.9716,0.0,0.0,0.0,-1.8178,0.0,0.0,-1.6535,0.0,0.0,0.0,0.0,-1.96,-2.0285,-2.101,-2.1755,-2.2105,-2.231,-2.231,-2.231,-2.231,-2.231,-2.231,-2.231,-2.231,-2.2349,-2.2388,-2.2398,-2.2321,-2.231,-2.231,-2.231,-2.2106,-2.1797,-2.1513,-2.1519,-2.1581,0.0,0.0,0.0,0.0,0.0,0.0,0.0,-0.8606,-0.8842,-0.891,-0.9572,-1.0271,-1.0897,-1.1015,-1.1094,-1.121,-1.1423,-1.1557,-1.1601,-1.1747,-1.1848,-1.1805,-0.9513,-0.9364,-1.1745,-1.1805,-1.0413,0.0,0.0,0.0,0.0,0.0,0.0,0.0,0.0,-1.7871,-1.6808,-0.8563,-0.3113,0.0,0.0,0.0,0.0,0.0,0.0,0.0,0.0,0.0,0.0,0.0,0.0,0.0,0.0,0.0,0.0,0.0,-0.2751,-0.706,-1.291,-1.4488,-1.4701,-1.549,-1.6059,-1.672,-1.7839,-1.8463,-1.8904,-1.9216,-1.9032,-1.8335,-1.6725,-1.7458,-1.8592,-1.9416,0.0,0.0,0.0,0.0,0.0,-1.9449,0.0,-1.6073,0.0,0.0,0.0,0.0,0.0,0.0,0.0,0.0,0.0,-2.0209,0.0,-2.1318,-2.2047,-2.2207,-2.231,-2.231,-2.231,-2.231,-2.231,-2.231,-2.231,-2.231,-2.2338,-2.2349,-2.2349,-2.231,-2.231,-2.2282,-2.1991,-2.1857,-2.1738,-2.1198,-2.1239,-2.151,-1.1606,0.0,-0.9069,0.0,-0.7494,-0.7675,-0.7025,-0.7413,-0.7859,-0.8099,-0.8826,-0.9625,-1.0483,-1.0777,-1.0968,-1.1094,-1.1392,-1.1534,-1.1445,-1.1725,-1.1358,-1.0129,-0.8498,0.0,-0.8319,-0.8334,-0.8515,-0.8899,-1.2552,0.0,0.0,0.0,0.0,0.0,-1.6526,-1.6921,-1.7792,-0.6926,-0.1424,0.0,0.0,0.0,0.0,0.0,0.0,0.0,0.0,0.0,0.0,0.0,0.0,0.0,0.0,-0.1962,-0.4255,-0.4255,-0.4255,-0.5758,-1.2635,-1.4488,-1.4659,-1.5397,-1.6005,-1.6702,-1.7663,-1.8336,-1.884,-1.9159,-1.906,-1.8555,-1.7289,-1.7147,-1.7679,-1.9069,0.0,0.0,0.0,-1.9305,0.0,0.0,-1.544,-1.4239,-1.8235,-1.804,0.0,0.0,0.0,0.0,0.0,0.0,0.0,0.0,0.0,0.0,-2.2122,-2.2231,-2.231,-2.231,-2.231,-2.231,-2.231,-2.231,-2.231,-2.2338,-2.231,-2.231,-2.231,-2.231,-2.2237,-2.2123,-2.1797,-2.1601,-2.1479,-2.1007,-2.1085,-2.1347,-0.6716,-0.7253,-0.7579,-0.5591,-0.523,-0.5543,-0.6388,-0.6518,-0.682,-0.7598,-0.8001,-0.8552,-0.9437,-1.0409,-1.1038,-1.1089,-1.1659,-1.1848,-1.1512,-1.1747,-1.0124,0.0,0.0,-0.8094,-0.0314,-0.015,-0.0141,-0.0153,0.0,0.0,-1.8571,0.0,-1.7345,-1.4988,-1.5754,-1.5239,-1.3515,-0.9506,-0.4782,0.0,0.0,0.0,0.0,0.0,0.0,0.0,0.0,0.0,0.0,0.0,0.0,0.0,0.0,-0.6584,-1.4323,-1.4323,-1.4323,-1.4341,-1.4469,-1.4488,-1.4623,-1.5175,-1.53,-1.5687,-1.7081,-1.7418,-1.7719,-1.8787,-1.8531,-1.8353,-1.9106,-1.7546,-1.6817,-1.8941,0.0,0.0,0.0,0.0,0.0,-1.9859,-1.599,-1.4717,-1.8343,-1.9055,0.0,0.0,0.0,0.0,0.0,0.0,0.0,-2.0605,-2.1301,0.0,-2.1721,-2.2097,-2.231,-2.231,-2.2366,-2.2349,-2.231,-2.231,-2.2338,-2.2394,-2.2338,-2.231,-2.231,-2.231,-2.2106,-2.1827,-2.1797,-2.1432,-2.0893,-2.0893,-2.0949,-2.1029,-0.1624,-0.2761,-0.3624,-0.339,-0.4108,-0.4821,-0.5168,-0.5622,-0.6052,-0.6356,-0.7259,-0.8058,-0.8634,-0.9662,-1.0348,0.0,-1.0902,-1.1127,0.0,-1.1674,-1.145,-0.998,-0.597,-0.2573,-0.006,0.0,0.0,-0.0,0.0,0.0,0.0,-1.7488,-1.552,-1.2801,-1.3067,-1.2876,-1.2347,-1.1465,-0.6799,0.0,0.0,0.0,0.0,0.0,0.0,0.0,0.0,0.0,0.0,0.0,-0.4401,-0.8729,-0.2091,-0.2127,-0.5923,-1.2562,-1.4488,-1.4488,-1.4488,-1.5019,-1.5537,-1.5356,-1.6124,-1.7012,-1.7329,-1.7825,-1.8303,-1.8662,-1.8574,-1.8393,-1.8236,-1.8143,-1.8107,-1.8195,-1.8703,0.0,-1.886,0.0,-1.4637,-1.4774,-1.5726,-1.6816,-1.7971,-1.8366,0.0,0.0,0.0,0.0,0.0,0.0,0.0,0.0,-2.1857,0.0,-2.2114,-2.2258,-2.231,-2.231,-2.231,-2.231,-2.231,-2.231,-2.231,-2.2338,-2.231,-2.231,-2.231,-2.231,-2.2254,-2.2077,-2.1446,-2.1197,-2.1119,-2.0563,-2.065,-2.0918,0.1378,0.0033,-0.1126,-0.2057,-0.2903,-0.3579,-0.3943,-0.4374,-0.4809,-0.5204,-0.6241,-0.7152,-0.7712,-0.8711,0.0,-1.0223,-1.0664,-1.0855,-1.0715,-1.0201,-1.0249,-1.1056,-0.3965,0.0,0.0,0.0,0.0,0.0,0.0,-0.3954,-1.1599,-1.3662,-1.3598,-1.1805,-1.1805,-1.1876,-1.1896,-1.0638,-0.8136,-0.4742,-0.1355,0.0,0.0,0.0,0.0,0.0,0.0,0.0,0.0,0.0,-0.6455,-1.3644,-0.8773,-0.7255,-0.7837,-1.0902,-1.3288,-1.4958,-1.4958,-1.5661,-1.6365,-1.6184,-1.6858,-1.7576,-1.7547,-1.8041,-1.8469,-1.845,-1.8528,-1.8482,-1.811,-1.8484,-1.8681,-1.8127,-1.8485,-1.877,-1.851,0.0,-1.4644,0.0,0.0,0.0,0.0,-1.8031,-1.8158,0.0,0.0,0.0,0.0,0.0,0.0,-2.1713,-2.2109,-2.2209,-2.2032,-2.2209,-2.231,-2.231,-2.231,-2.2338,-2.2377,-2.2338,-2.231,-2.2338,-2.231,-2.231,-2.231,-2.231,-2.218,-2.1886,-2.1244,-2.0959,-2.0861,-2.0308,-2.0284,-2.0466,0.2659,0.144,0.0199,0.0,-0.1486,0.0,-0.2664,-0.2863,-0.3192,-0.4066,-0.499,-0.5899,-0.6724,-0.7617,-0.8765,-1.0247,0.0,0.0,0.0,-0.7546,-0.673,-0.91,-0.3302,0.0,0.0,0.0,0.0,0.0,0.0,0.0,-0.0165,-0.7541,-1.1132,-1.1401,-1.1685,-1.1967,-1.1991,-0.7998,-0.8685,-1.1736,-0.337,0.0,0.0,0.0,0.0,0.0,0.0,0.0,-0.0102,-0.0728,-0.6758,-1.4529,-1.7537,-1.8713,-1.7537,-1.0184,-1.1737,-1.5833,-1.5796,-1.6358,-1.7067,-1.7397,-1.7471,-1.7498,-1.7752,-1.8057,-1.8249,-1.8187,-1.8371,-1.8547,-1.8566,-1.8566,-1.8566,-1.8566,-1.8566,-1.8508,-1.8296,-1.8275,-1.8348,0.0,0.0,0.0,-1.8046,-1.7988,-1.778,0.0,0.0,0.0,0.0,0.0,-2.0854,-2.1625,-2.2032,-2.2061,-2.1658,-2.2077,-2.231,-2.231,-2.231,-2.2366,-2.2487,-2.2366,-2.2338,-2.2377,-2.2338,-2.231,-2.231,-2.231,-2.1961,-2.1448,-2.1181,-2.0812,-2.0339,-2.015,-1.9975,-1.9797,0.0,0.0,0.2552,0.1592,0.059,-0.0197,-0.0523,-0.135,-0.2153,-0.2776,-0.3662,-0.4685,-0.5869,-0.6508,-0.7252,-0.822,-0.9168,-0.9906,-1.0361,-0.4776,-0.1711,-0.2316,-0.0841,0.0,0.0,0.0,0.0,0.0,0.0,0.0,-0.0045,-0.1915,-0.4406,-0.7437,-1.0458,-1.1833,-1.1858,-1.0842,-0.7599,-0.2981,-0.0864,0.0,0.0,0.0,0.0,0.0,0.0,0.0,-0.105,-0.7909,-0.9718,-0.9227,-1.0037,-1.2816,-1.5718,-1.5349,-1.6213,-1.7209,-1.6809,-1.7202,-1.7697,-1.7538,-1.7673,-1.7872,-1.7932,-1.7966,-1.7971,-1.7844,-1.7866,-1.798,-1.8173,-1.8214,-1.8232,-1.829,-1.829,-1.8208,-1.7954,-1.7927,-1.7936,0.0,-1.8021,-1.7958,-1.7868,-1.7847,-1.7561,0.0,0.0,0.0,-1.8673,-1.9273,-2.0398,-2.2089,-2.1899,-2.1882,-2.2135,-2.2237,-2.231,-2.231,-2.231,-2.231,-2.2338,-2.231,-2.231,-2.2338,-2.231,-2.231,-2.231,-2.231,-2.2197,-2.1949,-2.1337,-2.0991,-2.0747,-2.01,-1.9833,-1.9726,0.729,0.6132,0.5044,0.4005,0.3091,0.2288,0.1706,0.0555,-0.0429,-0.0888,-0.2196,-0.3428,-0.4234,-0.4996,-0.5694,-0.6329,-0.7711,-0.8722,-0.9047,-0.4856,-0.1664,-0.007,0.0,0.0,0.0,0.0,-0.1481,-0.452,-0.1481,0.0,0.0,0.0,-0.1148,-0.3294,-0.5446,-0.8409,-1.1805,-1.1805,-0.7227,0.0,0.0,0.0,0.0,0.0,0.0,-0.0542,-0.4657,-0.6131,-0.6554,-0.9388,-0.9839,-0.9455,-1.0785,-1.2777,-1.4962,-1.6807,-1.7154,-1.6954,-1.7034,-1.7505,-1.799,-1.7968,-1.7696,-1.7556,-1.7936,-1.79,-1.7816,-1.7777,-1.7772,-1.7794,-1.7932,-1.7958,-1.7975,-1.8014,-1.8103,-1.8082,-1.7816,-1.7732,-1.7732,-1.7772,-1.7658,-1.7502,-1.7361,-1.7337,-1.7176,-1.677,-1.7713,0.0,-1.8784,-1.978,-2.0765,-2.1675,-2.1628,-2.1718,-2.1974,-2.218,-2.231,-2.231,-2.231,-2.231,-2.231,-2.231,-2.231,-2.231,-2.2254,-2.2254,-2.2254,-2.2152,-2.1915,-2.1601,-2.1134,-2.0747,-2.0379,-1.9925,-1.9639,-1.9442,0.9432,0.85,0.7503,0.6308,0.5659,0.4943,0.392,0.2588,0.1511,0.0951,-0.0685,-0.1988,-0.2456,-0.3398,-0.4112,-0.449,-0.6032,-0.7035,-0.7183,-0.6036,-0.3979,-0.0934,-0.08,-0.08,-0.08,-0.0276,-0.2762,-0.8411,-0.3766,-0.0979,0.0,0.0,0.0,-0.0038,-0.1042,-0.5221,-1.1439,-1.0441,-0.6134,0.0,0.0,0.0,0.0,0.0,-0.0847,-0.3015,-1.067,-1.3396,-1.2787,-0.8829,-0.9303,-1.1964,-1.4293,-1.4678,-1.4566,-1.5936,-1.6024,-1.5878,-1.6812,-1.7376,-1.7785,-1.7998,-1.7317,-1.6799,-1.7582,-1.7625,-1.7552,-1.7783,-1.7811,-1.7766,-1.7789,-1.7789,-1.7811,-1.7839,-1.7975,-1.8001,-1.7883,0.0,-1.7631,-1.7789,-1.7455,-1.7126,-1.6917,-1.6841,-1.6789,-1.6738,-1.8134,-1.9034,-1.9151,-2.0489,-2.1162,-2.0894,-2.1368,-2.1628,-2.1688,-2.2106,-2.231,-2.231,-2.231,-2.2254,-2.2209,-2.2282,-2.2254,-2.218,-2.2197,-2.2214,-2.2185,-2.2003,-2.1568,-2.1039,-2.0877,-2.041,-1.9833,-1.9726,-1.9493,-1.9258,1.1212,1.0325,0.9511,0.8972,0.7605,0.6416,0.5913,0.4502,0.2958,0.1414,0.0852,-0.0,-0.1507,-0.2198,-0.2573,-0.27,-0.3284,-0.4156,-0.5325,-0.5747,-0.5502,-0.4529,-0.4489,-0.4489,-0.4489,-0.1539,-0.0502,-0.1532,-0.6127,-0.5499,0.0,0.0,0.0,-0.0251,-0.5863,-0.9042,-0.9834,-0.421,-0.1122,0.0,0.0,0.0,0.0,0.0,-0.4708,-1.1499,-1.2905,-1.3396,-1.3159,-1.1601,-1.1651,-1.2341,-1.2299,-1.281,-1.3453,-1.3692,-1.4187,-1.4946,-1.6445,-1.6664,-1.641,-1.6123,-1.5824,-1.5802,-1.6495,-1.6592,-1.6731,-1.7501,-1.7635,-1.7658,-1.7704,-1.771,-1.78,-1.8082,-1.7971,-1.7905,-1.8103,0.0,-1.7462,-1.7749,-1.7264,-1.6952,-1.7199,-1.6952,-1.6686,-1.6394,-1.7956,-1.8645,-1.7988,-1.9091,-1.9953,-2.04,-2.1197,-2.1794,-2.218,-2.2254,-2.231,-2.231,-2.231,-2.2106,-2.1718,-2.2106,-2.2077,-2.1735,-2.2065,-2.2214,-2.2185,-2.2044,-2.1735,-2.1308,-2.0878,-2.0481,-2.0085,-1.9741,-1.9574,-1.945,1.2841,1.2394,1.185,1.115,1.0162,0.9254,0.8567,0.6896,0.5283,0.4007,0.2771,0.1469,0.0,-0.0616,-0.1045,-0.1352,-0.155,-0.1954,-0.2627,-0.3812,-0.4544,-0.4686,-0.3993,-0.4131,-0.5264,-0.1821,0.0,-0.0,-0.3063,-0.463,-0.4668,-0.1485,-0.0748,-0.2322,-0.7571,-0.9905,-0.9705,-0.6629,-0.3264,0.0,0.0,0.0,-0.0389,-0.3967,-0.8336,-1.2517,-1.2505,-1.2332,-1.2089,-1.199,-1.1605,-1.1197,-1.1499,-1.1707,-1.2014,-1.2848,-1.401,-1.5183,-1.5773,-1.5828,-1.5685,-1.5526,-1.5126,-1.4888,-1.5375,-1.5671,-1.5967,-1.6393,-1.6719,-1.6994,-1.7085,-1.7296,-1.7486,-1.7676,-1.7849,0.0,-1.7738,-1.7412,-1.7287,-1.7486,-1.7117,-1.6926,-1.7272,-1.7126,-1.6892,-1.6581,-1.7971,-1.8602,-1.7989,-1.9435,-2.0112,-1.9836,-2.0767,-2.1477,-2.1928,-2.1928,-2.2032,-2.231,-2.231,-2.2032,-2.1628,-2.1823,-2.1705,-2.1306,-2.1631,-2.1784,-2.1754,-2.1615,-2.137,-2.1039,-2.0512,-2.0135,-1.9833,-1.9596,-1.9228,-1.886,1.4042,1.386,1.3559,1.2804,1.2218,1.1571,1.0756,0.8996,0.7413,0.6421,0.4603,0.2931,0.1723,0.1008,0.0471,0.0053,-0.0106,-0.0219,-0.0293,-0.1448,-0.2532,-0.3443,-0.2586,-0.2821,-0.4364,-0.2323,-0.0827,-0.0,-0.0329,-0.2896,-0.7416,-0.3389,-0.2257,-0.3763,-0.7634,-0.936,-0.9387,-0.9751,-0.6955,-0.2297,-0.2297,-0.2297,-0.2775,-0.7106,-0.9954,-1.1615,-1.1455,-1.123,-1.1075,-1.1352,-1.0762,-1.0043,-1.0682,-1.0736,-1.0798,-1.2025,-1.3611,-1.4932,-1.4884,-1.4864,-1.4832,-1.4815,-1.4278,-1.3847,-1.4239,-1.4743,-1.5186,-1.542,-1.5951,-1.6412,-1.656,-1.691,-1.7199,-1.7263,0.0,-1.7854,0.0,-1.7134,-1.7101,-1.728,-1.6926,-1.6825,-1.7248,-1.7167,-1.6942,-1.6686,-1.7856,-1.8365,-1.7869,-1.9327,-1.9815,-1.904,-2.0146,-2.0908,-2.1215,-2.1379,-2.1645,-2.1991,-2.1991,-2.1735,-2.129,-2.143,-2.1244,-2.0862,-2.115,-2.1276,-2.1293,-2.1135,-2.0909,-2.0595,-2.0115,-1.9777,-1.9538,-1.9354,-1.8912,-1.8344,1.4403,1.4056,1.3789,1.3792,1.2924,1.2109,1.1662,1.0197,0.8679,0.7376,0.5977,0.4672,0.3534,0.2478,0.1869,0.1894,0.1385,0.102,0.0884,0.083,0.0159,-0.1251,-0.1836,-0.1966,-0.1694,-0.3803,-0.3306,-0.0,-0.1317,-0.2506,-0.3654,-0.527,-0.4838,-0.2849,-0.6253,-0.7761,-0.7875,-0.9295,-0.9617,-0.9177,-0.9177,-0.9177,-0.8889,-0.6331,-0.7774,-1.1093,-1.0653,-1.0754,-1.0966,-1.0076,-0.9751,-0.965,-0.923,-0.9566,-1.0186,-1.051,-1.1686,-1.3061,-1.3733,-1.3677,-1.3379,-1.3147,-1.2761,-1.2587,-1.3102,-1.3634,-1.4257,-1.5133,-1.5848,-1.6369,-1.656,-1.6885,-1.7118,-1.7197,0.0,0.0,-1.7269,-1.6978,-1.6952,-1.7272,-1.668,-1.6512,-1.7126,-1.6866,-1.6528,-1.6258,-1.7259,-1.7572,-1.6833,-1.7345,-1.7713,-1.7807,-1.9296,-2.0092,-2.0122,-2.0734,-2.1055,-2.1103,-2.1103,-2.0846,-2.0416,-2.0862,-2.0781,-2.0382,-2.078,-2.0926,-2.0926,-2.073,-2.0462,-2.01,-1.9752,-1.9551,-1.9376,-1.913,-1.8851,-1.85,1.4691,1.4558,1.428,1.357,1.3547,1.3275,1.234,1.1761,1.0793,0.9082,0.7834,0.641,0.4598,0.3785,0.3251,0.3001,0.307,0.3112,0.3053,0.343,0.2414,-0.0353,-0.0772,-0.0674,-0.0111,-0.153,-0.1423,0.0313,-0.0227,-0.1302,-0.2853,-0.3484,-0.3855,-0.4097,-0.5605,-0.5923,-0.5363,-0.6363,-0.6701,-0.6563,-0.6733,-0.8044,-0.9642,-0.7214,-0.7894,-1.004,-0.9529,-0.9337,-0.9284,-0.9188,-0.8935,-0.865,-0.8753,-0.8987,-0.9359,-1.0025,-1.1565,-1.3032,-1.2906,-1.307,-1.3193,-1.2767,-1.2517,-1.2298,-1.2037,-1.2476,-1.3098,-1.373,-1.4416,-1.5061,-1.5635,-1.6117,-1.6454,-1.6554,0.0,-1.7256,-1.67,-1.6732,-1.6763,-1.6696,-1.6448,-1.6448,-1.6917,-1.6789,-1.6554,-1.6285,-1.6993,-1.7207,-1.6712,-1.6879,-1.6985,-1.707,-1.805,-1.909,-2.0191,-2.0424,-2.0715,-2.0991,-2.0991,-2.0764,-2.0314,-2.0483,-2.033,-1.9945,-2.0311,-2.0481,-2.0447,-2.0326,-2.0189,-1.9949,-1.9551,-1.9325,-1.9093,-1.8798,-1.8397,-1.7988,1.4939,1.4692,1.4274,1.3486,1.3559,1.3493,1.2882,1.2387,1.1676,1.0565,0.9171,0.7653,0.6045,0.5408,0.4908,0.4474,0.4981,0.5184,0.4915,0.5471,0.4366,0.111,0.0793,0.0947,0.1498,0.0848,0.0709,0.1131,0.0925,-0.0,-0.1567,-0.1578,-0.2453,-0.4056,-0.4781,-0.4492,-0.355,-0.4342,-0.4493,-0.426,-0.5001,-0.6606,-0.8451,-0.7608,-0.7989,-0.8926,-0.853,-0.8244,-0.8103,-0.8304,-0.8109,-0.7852,-0.8332,-0.8575,-0.8876,-0.9743,-1.102,-1.212,-1.1911,-1.2272,-1.2668,-1.2498,-1.2325,-1.2009,-1.1362,-1.1816,-1.2472,-1.2801,-1.35,-1.426,-1.4864,-1.5477,-1.5866,-1.5781,-1.6491,-1.686,-1.6176,-1.6394,-1.6554,-1.6285,-1.6258,-1.6394,-1.6738,-1.6696,-1.6538,-1.6285,-1.6637,-1.6711,-1.6368,-1.6337,-1.6442,-1.6666,-1.7113,-1.8095,-1.958,-1.9947,-2.0261,-2.0599,-2.0599,-2.0431,-2.0124,-2.0124,-1.9965,-1.9711,-1.9945,-2.005,-2.005,-1.9925,-1.9803,-1.9666,-1.931,-1.8988,-1.8736,-1.8436,-1.7988,-1.7516,1.5111,1.4348,1.3704,1.3679,1.2869,1.2474,1.3272,1.1857,1.0971,1.1707,0.983,0.8297,0.8023,0.7396,0.687,0.654,0.7128,0.7156,0.6302,0.6798,0.5986,0.3441,0.288,0.2852,0.3327,0.2797,0.2519,0.2512,0.184,0.123,0.0712,-0.0114,-0.1063,-0.2156,-0.3557,-0.358,-0.2656,-0.3732,-0.3924,-0.3654,-0.5452,-0.594,-0.5732,-0.7147,-0.7721,-0.7784,-0.7706,-0.7737,-0.7714,-0.7332,-0.7239,-0.7377,-0.7853,-0.8313,-0.884,-0.9557,-0.9746,-0.9883,-1.0669,-1.1124,-1.1566,-1.2214,-1.204,-1.1571,-1.1108,-1.1784,-1.2497,-1.2581,-1.3449,-1.4246,-1.447,-1.5136,-1.5492,-1.4895,-1.5805,-1.6363,-1.5682,-1.5996,-1.6258,-1.6203,-1.6203,-1.6324,-1.667,-1.6565,-1.6421,-1.6203,-1.6136,-1.5955,-1.561,-1.561,-1.5906,-1.6558,-1.6573,-1.7066,-1.8093,-1.9167,-1.9675,-1.969,-1.969,-1.969,-1.969,-1.969,-1.969,-1.969,-1.969,-1.969,-1.969,-1.9487,-1.9339,-1.9265,-1.8898,-1.8592,-1.8266,-1.8068,-1.7679,-1.7199,1.5257,1.4566,1.3756,1.3055,1.2637,1.2247,1.1796,1.175,1.1573,1.1091,1.0228,0.9347,0.8509,0.8,0.7658,0.7562,0.8638,0.939,0.956,0.9113,0.8369,0.728,0.5787,0.5355,0.6149,0.505,0.437,0.4185,0.2936,0.2354,0.2351,0.1129,0.0,-0.0998,-0.166,-0.2039,-0.2214,-0.2819,-0.3166,-0.3353,-0.4086,-0.4604,-0.5014,-0.5434,-0.5951,-0.6446,-0.6287,-0.6389,-0.6596,-0.6625,-0.6805,-0.7075,-0.7394,-0.8049,-0.8651,-0.8344,-0.9184,-1.0064,-0.9452,-0.9772,-1.0481,-1.1334,-1.1416,-1.1219,-1.092,-1.116,-1.1424,-1.1396,-1.2208,-1.2987,-1.319,-1.3871,-1.4428,-1.4645,-1.5374,-1.5821,-1.5551,-1.5924,-1.6093,-1.5769,-1.574,-1.5797,-1.5868,-1.594,-1.5911,-1.5725,-1.574,-1.5595,-1.5255,-1.5255,-1.5221,-1.5114,-1.5584,-1.616,-1.6824,-1.8262,-1.8891,-1.8731,-1.9087,-1.9035,-1.8574,-1.8679,-1.8679,-1.8574,-1.8574,-1.8574,-1.8574,-1.8447,-1.8344,-1.8226,-1.8147,-1.7948,-1.772,-1.7516,-1.7269,-1.7005,1.5352,1.4671,1.3911,1.33,1.2584,1.2014,1.1758,1.1524,1.1276,1.098,1.0445,0.9819,0.9153,0.9188,0.9135,0.8771,0.987,1.0842,1.1466,1.0934,1.0297,0.9646,0.8438,0.7738,0.7674,0.6844,0.6234,0.5876,0.4989,0.4259,0.3626,0.277,0.1597,0.0154,-0.0378,-0.0927,-0.1484,-0.2153,-0.25,-0.266,-0.322,-0.3623,-0.3951,-0.4268,-0.4726,-0.5197,-0.5282,-0.5484,-0.5734,-0.597,-0.6335,-0.6735,-0.6901,-0.7474,-0.8022,-0.7573,-0.8226,-0.8937,-0.8199,-0.8544,-0.9212,-0.9765,-1.0205,-1.0574,-1.0686,-1.074,-1.0815,-1.0985,-1.1447,-1.1958,-1.2278,-1.2929,-1.3551,-1.403,-1.4758,-1.5286,-1.5255,-1.5638,-1.5811,-1.5536,-1.5551,-1.558,-1.561,-1.5639,-1.558,-1.5477,-1.5389,-1.5225,-1.4982,-1.5054,-1.4864,-1.4392,-1.5249,-1.5833,-1.6059,-1.7391,-1.8127,-1.8212,-1.8616,-1.8577,-1.8198,-1.8266,-1.8266,-1.8198,-1.8198,-1.8159,-1.8106,-1.8014,-1.7908,-1.7787,-1.7747,-1.7585,-1.7297,-1.7186,-1.6976,-1.6752,1.539,1.4686,1.4097,1.4097,1.2728,1.1849,1.257,1.1288,1.0466,1.1123,1.0454,0.9905,0.9815,1.0594,1.0775,0.9986,1.0701,1.1522,1.2278,1.2059,1.1537,1.0671,1.0605,0.9895,0.8407,0.8281,0.8069,0.7678,0.7485,0.6489,0.4798,0.4535,0.3321,0.1345,0.049,-0.0112,-0.0578,-0.1583,-0.1851,-0.1686,-0.2655,-0.2847,-0.2671,-0.3468,-0.3857,-0.4039,-0.4566,-0.4867,-0.5049,-0.5355,-0.5837,-0.6317,-0.6305,-0.6696,-0.7116,-0.7101,-0.7085,-0.7085,-0.7037,-0.7438,-0.7878,-0.7872,-0.8711,-0.9678,-1.0305,-1.0432,-1.0525,-1.087,-1.096,-1.1125,-1.1554,-1.22,-1.2826,-1.323,-1.4071,-1.4676,-1.4783,-1.5134,-1.5359,-1.5359,-1.5418,-1.5507,-1.5683,-1.5522,-1.5388,-1.5402,-1.5072,-1.4873,-1.4791,-1.4963,-1.4769,-1.4203,-1.5308,-1.5845,-1.5715,-1.6572,-1.732,-1.7987,-1.8133,-1.8187,-1.8147,-1.8147,-1.8147,-1.8147,-1.8147,-1.8094,-1.7947,-1.7894,-1.7787,-1.7666,-1.7625,-1.7338,-1.6951,-1.6951,-1.671,-1.638,1.5402,1.4654,1.4043,1.4093,1.3186,1.2288,1.1851,1.1446,1.1004,1.0506,1.0254,1.0095,0.9971,1.02,1.0256,1.007,1.0233,1.098,1.2449,1.1227,1.0387,1.0241,1.0812,1.093,1.0541,0.9715,0.9484,0.991,0.8128,0.725,0.72,0.4768,0.3291,0.2631,0.1511,0.0707,0.0154,-0.0397,-0.0707,-0.0905,-0.1523,-0.172,-0.1698,-0.255,-0.29,-0.2996,-0.3529,-0.3905,-0.4259,-0.4905,-0.5336,-0.5638,-0.5683,-0.6094,-0.6511,-0.6253,-0.6613,-0.7018,-0.6583,-0.6649,-0.6986,-0.7599,-0.7944,-0.8329,-0.9022,-0.9852,-1.0164,-0.9061,-0.986,-1.0676,-1.0311,-1.1126,-1.2107,-1.2926,-1.3281,-1.3617,-1.3979,-1.4264,-1.4374,-1.4342,-1.469,-1.4982,-1.5011,-1.5208,-1.5334,-1.5329,-1.5019,-1.4804,-1.4721,-1.4668,-1.4471,-1.4133,-1.4763,-1.5389,-1.5863,-1.61,-1.649,-1.6989,-1.7475,-1.738,-1.6892,-1.7115,-1.7102,-1.6892,-1.6989,-1.6976,-1.6837,-1.6837,-1.6808,-1.6765,-1.6765,-1.6723,-1.6595,-1.6595,-1.6269,-1.5632,1.4868,1.473,1.4662,1.4672,1.3587,1.2542,1.2093,1.1347,1.0678,1.02,1.0178,1.0157,1.0054,1.0487,1.1091,1.1933,1.162,1.1758,1.2646,1.1445,1.0555,1.0217,1.0538,1.1019,1.1667,1.1132,1.0947,1.1162,1.0073,0.904,0.8047,0.6192,0.4616,0.3359,0.2492,0.1707,0.099,0.055,0.0154,-0.0221,-0.0685,-0.0885,-0.0977,-0.152,-0.1876,-0.2141,-0.2581,-0.3084,-0.3633,-0.4042,-0.4492,-0.4875,-0.4904,-0.5363,-0.5848,-0.5675,-0.5981,-0.6335,-0.6088,-0.6135,-0.6426,-0.7098,-0.7611,-0.8178,-0.9115,-0.942,-0.9313,-0.8577,-0.8839,-0.9169,-0.9191,-0.9976,-1.0974,-1.2022,-1.2653,-1.3123,-1.3496,-1.3842,-1.4052,-1.4052,-1.4278,-1.442,-1.4433,-1.4624,-1.4828,-1.5053,-1.4742,-1.4618,-1.4769,-1.4953,-1.4803,-1.435,-1.5201,-1.5721,-1.5787,-1.6081,-1.6401,-1.6675,-1.7044,-1.6989,-1.662,-1.6748,-1.6761,-1.6663,-1.6718,-1.6663,-1.6522,-1.6522,-1.6522,-1.6522,-1.6522,-1.6522,-1.6466,-1.625,-1.57,-1.4971,1.4461,1.4775,1.5135,1.5093,1.3747,1.2627,1.2416,1.1214,1.0264,1.0117,1.0141,1.0144,1.0086,1.0797,1.1903,1.3512,1.2853,1.2412,1.2574,1.1758,1.0994,1.0328,1.0325,1.0942,1.2256,1.2373,1.2318,1.2116,1.2112,1.0931,0.8705,0.783,0.6276,0.4224,0.3474,0.2741,0.2011,0.149,0.1034,0.0598,0.0198,-0.0088,-0.0266,-0.0556,-0.0911,-0.1306,-0.1673,-0.2323,-0.3029,-0.3141,-0.357,-0.4042,-0.4111,-0.4589,-0.5117,-0.5117,-0.5309,-0.5547,-0.5649,-0.58,-0.6049,-0.6662,-0.7371,-0.8171,-0.9231,-0.8927,-0.8469,-0.8491,-0.7988,-0.769,-0.8219,-0.8933,-0.9826,-1.099,-1.1953,-1.2679,-1.3054,-1.3475,-1.3756,-1.3776,-1.3855,-1.3888,-1.3855,-1.408,-1.4352,-1.4725,-1.4526,-1.4586,-1.4979,-1.5361,-1.529,-1.4817,-1.5869,-1.6308,-1.5885,-1.6296,-1.6577,-1.6675,-1.6803,-1.6803,-1.6718,-1.6718,-1.6761,-1.6803,-1.6803,-1.6705,-1.6522,-1.6522,-1.6522,-1.6479,-1.6423,-1.638,-1.6293,-1.5744,-1.5073,-1.4351,1.5239,1.4659,1.4181,1.4179,1.3311,1.2387,1.1681,1.1373,1.0946,1.0204,1.0065,1.0023,1.001,1.0183,1.0712,1.1754,1.1042,1.0868,1.1637,1.0861,1.0347,1.0309,1.0945,1.1734,1.2614,1.3093,1.336,1.3441,1.2534,1.1679,1.082,0.8489,0.7074,0.6377,0.4581,0.3646,0.3376,0.2682,0.2254,0.1999,0.1527,0.1117,0.0729,0.0132,-0.0177,-0.0353,-0.0866,-0.1573,-0.2298,-0.2606,-0.2832,-0.306,-0.3347,-0.3894,-0.4432,-0.4364,-0.4768,-0.5299,-0.5553,-0.5545,-0.5709,-0.666,-0.6816,-0.6901,-0.7501,-0.8189,-0.846,-0.7802,-0.7621,-0.758,-0.7625,-0.8281,-0.9209,-1.042,-1.0965,-1.1491,-1.2188,-1.2532,-1.2626,-1.2484,-1.2998,-1.3387,-1.3319,-1.4167,-1.4644,-1.4471,-1.4688,-1.5004,-1.5405,-1.5327,-1.5327,-1.5539,-1.6111,-1.6454,-1.6562,-1.6637,-1.6675,-1.6675,-1.6718,-1.6761,-1.6876,-1.6876,-1.6846,-1.6803,-1.6803,-1.6705,-1.6522,-1.6522,-1.6522,-1.6479,-1.6064,-1.5876,-1.5788,-1.4801,-1.4258,-1.3967,1.4762,1.4337,1.4043,1.4007,1.2819,1.1743,1.1397,1.0907,1.0424,1.0033,1.0,1.0176,1.0622,1.1191,1.1727,1.2183,1.1427,1.1099,1.147,1.0721,1.0268,1.029,1.0609,1.1168,1.2,1.2673,1.3142,1.349,1.3071,1.246,1.1646,0.9983,0.8525,0.7285,0.604,0.4986,0.4159,0.3653,0.3237,0.2889,0.2523,0.2121,0.1695,0.1315,0.09,0.0419,-0.0265,-0.0975,-0.1623,-0.1777,-0.2215,-0.2676,-0.2644,-0.2991,-0.3425,-0.3543,-0.4017,-0.4472,-0.4525,-0.4798,-0.5224,-0.5938,-0.6135,-0.6294,-0.6785,-0.7052,-0.7125,-0.6876,-0.6735,-0.6664,-0.6664,-0.7212,-0.802,-0.9185,-1.0023,-1.0794,-1.1549,-1.2066,-1.2318,-1.221,-1.2449,-1.2626,-1.2626,-1.3325,-1.3753,-1.3653,-1.4162,-1.456,-1.4651,-1.4773,-1.4882,-1.4922,-1.5533,-1.5914,-1.607,-1.6384,-1.6577,-1.6675,-1.6448,-1.6436,-1.6705,-1.6705,-1.665,-1.662,-1.6262,-1.6088,-1.5988,-1.5567,-1.5534,-1.5724,-1.58,-1.5623,-1.5322,-1.4501,-1.3931,-1.3505]}]]